     2.11           OBSERVATION DATA    G (GPS)             RINEX VERSION / TYPE
teqc 2010Oct21 OPUS Account 20111027 16:46:46UTC            PGM / RUN BY / DATE
Y 1524                                                      MARKER NAME
3004                                                        MARKER NUMBER
CSMIDDLETON NGS                                             OBSERVER / AGENCY
0220320152 TRIMBLE 5700 2.01                                REC # / TYPE / VERS
12214372 TRM41249.00 NONE                                   ANT # / TYPE
  -762463.0500 -5538298.8442  3060113.5581                  APPROX POSITION XYZ
        2.0000        0.0000        0.0000                  ANTENNA: DELTA H/E/N
     1     1                                                WAVELENGTH FACT L1/2
     5    L1    L2    C1    P1    P2                        # / TYPES OF OBSERV
    15                                                      LEAP SECONDS
  2011     8    16     0     0   30.0000000     GPS         TIME OF FIRST OBS
                                                            END OF HEADER
 11  8 16  0  0 30.0000000  0  8G17G10G09G12G05G04G02G28
 -31530837.18057 -24557230.48855  22636706.2894                   22636705.1054
 -24513780.24258 -19087815.01656  21349937.4844                   21349935.8484
 -16452858.30157 -12804939.22355  22833827.6644                   22833827.6134
 -15337602.66457 -11936562.76255  22559021.7114                   22559019.2624
  -8802526.72357  -6843760.22755  23504702.3984                   23504703.3164
 -33762903.74258 -26292085.15256  20850463.3054                   20850461.5274
 -29207201.94958 -22743313.63757  20901337.7734                   20901333.5004
 -28593346.19957 -22273596.39153  24110450.8914                   24110452.6054
 11  8 16  0  1  0.0000000  0  8G17G10G09G12G05G04G02G28
 -31514599.87947 -24544578.05945  22639796.3054                   22639794.5274
 -24585198.58248 -19143465.62546  21336347.1174                   21336345.3554
 -16421949.27747 -12780854.30145  22839709.0864                   22839709.4844
 -15448861.16447 -12023257.67245  22537849.6884                   22537847.0084
  -8933992.58647  -6946200.93744  23479684.8444                   23479686.3674
 -33729367.17248 -26265952.78146  20856844.8834                   20856842.9574
 -29258605.13348 -22783368.04347  20891556.0864                   20891551.5044
 -28521954.46946 -22217966.59843  24124037.4304                   24124038.0274
 11  8 16  0  1 30.0000000  0  8G17G10G09G12G05G04G02G28
 -31498230.60247 -24531822.79745  22642911.2114                   22642909.4064
 -24656062.17648 -19198683.96946  21322862.1724                   21322860.4064
 -16390615.37147 -12756438.30545  22845672.2974                   22845672.2504
 -15559851.73447 -12109743.79745  22516728.8524                   22516727.0274
  -9065352.66047  -7048559.22345  23454687.4774                   23454689.1024
 -33695508.19548 -26239569.18046  20863288.5554                   20863286.5824
 -29309633.63348 -22823130.48447  20881845.8054                   20881841.6174
 -28450319.52746 -22162147.27343  24137667.3444                   24137670.3284
 11  8 16  0  2  0.0000000  0  8G17G10G09G12G05G04G02G28
 -31481729.97347 -24518965.19145  22646050.6024                   22646049.3404
 -24726369.84448 -19253469.11746  21309482.6804                   21309481.2384
 -16358860.77747 -12731694.50045  22851715.2034                   22851714.9384
 -15670572.41047 -12196019.62945  22495659.3364                   22495657.0864
  -9196605.37947  -7150833.86745  23429711.1174                   23429712.0704
 -33661330.22348 -26212937.00846  20869792.1644                   20869790.4184
 -29360288.85248 -22862602.05146  20872206.0784                   20872201.9104
 -28378444.35546 -22106140.82443  24151346.0634                   24151348.3714
 11  8 16  0  2 30.0000000  0  8G17G10G09G12G05G04G02G28
 -31465093.48047 -24506001.72345  22649216.7194                   22649215.2234
 -24796115.37948 -19307816.25846  21296211.0084                   21296209.3364
 -16326684.56247 -12706622.15245  22857838.1414                   22857837.8674
 -15781017.11347 -12282080.39146  22474642.4694                   22474640.0394
  -9327743.62547  -7253019.30545  23404756.1724                   23404757.4844
 -33626831.90248 -26186055.20746  20876356.7114                   20876355.0044
 -29410567.62548 -22901780.30146  20862638.4534                   20862634.6134
 -28306327.07446 -22049945.66443  24165068.1644                   24165070.7584
 11  8 16  0  3  0.0000000  0  8G17G10G09G12G05G04G02G28
 -31448320.75047 -24492932.06245  22652408.3834                   22652406.7464
 -24865296.67648 -19361723.70746  21283045.7504                   21283044.1804
 -16294089.89147 -12681223.72744  22864040.3134                   22864040.1684
 -15891183.42247 -12367924.23845  22453678.1724                   22453676.1454
  -9458764.76647  -7355113.47345  23379823.3444                   23379825.1454
 -33592015.53548 -26158925.59446  20882982.3594                   20882980.0594
 -29460470.57448 -22940665.68446  20853142.1024                   20853138.2384
 -28233969.50446 -21993563.30543  24178838.6954                   24178839.9964
 11  8 16  0  3 30.0000000  0  8G17G10G09G12G05G04G02G28
 -31431412.25447 -24479756.64145  22655626.4224                   22655625.0944
 -24933912.95748 -19415190.89846  21269988.6414                   21269986.7894
 -16261081.52047 -12655502.95745  22870321.9844                   22870321.7734
 -16001069.93047 -12453550.05946  22432767.6414                   22432765.7154
  -9589667.33247  -7457115.27045  23354913.4614                   23354914.4574
 -33556884.70748 -26131550.93446  20889667.5944                   20889665.1484
 -29509999.68748 -22979259.76646  20843717.3054                   20843713.2544
 -28161375.11346 -21936996.34443  24192652.4064                   24192654.1524
 11  8 16  0  4  0.0000000  0  8G17G10G09G12G05G04G02G28
 -31414370.55147 -24466477.41845  22658869.4924                   22658867.3754
 -25001965.47348 -19468218.79346  21257038.5704                   21257037.1374
 -16227665.62947 -12629464.63745  22876680.8054                   22876681.0274
 -16110676.85547 -12538958.00046  22411910.4224                   22411908.1954
  -9720450.80947  -7559024.29745  23330026.6644                   23330026.4654
 -33521444.98048 -26103935.57846  20896411.6414                   20896409.5164
 -29559158.59048 -23017565.37947  20834362.5784                   20834358.5394
 -28088548.84446 -21880248.70343  24206510.9924                   24206512.7974
 11  8 16  0  4 30.0000000  0  8G17G10G09G12G05G04G02G28
 -31397191.91047 -24453091.47345  22662138.9064                   22662136.3484
 -25069448.63748 -19520803.03946  21244197.0944                   21244195.4614
 -16193842.59447 -12603109.03545  22883117.0314                   22883116.9024
 -16219998.64547 -12624143.76646  22391106.9144                   22391104.2894
  -9851109.84447  -7660836.30945  23305162.2664                   23305163.4654
 -33485695.73048 -26076079.03546  20903214.1564                   20903212.4064
 -29607944.88748 -23055580.63746  20825078.7274                   20825074.4574
 -28015489.75446 -21823319.62543  24220414.6564                   24220416.1844
 11  8 16  0  5  0.0000000  0  8G17G10G09G12G05G04G02G28
 -31379875.53147 -24439598.21545  22665433.7894                   22665432.7704
 -25136360.10948 -19572941.79746  21231464.0634                   21231462.1724
 -16159614.60546 -12576437.92245  22889629.9774                   22889630.3094
 -16329032.60947 -12709105.27345  22370358.7194                   22370355.9144
  -9981640.79747  -7762548.54745  23280323.4614                   23280323.2034
 -33449638.94548 -26047982.85546  20910075.6334                   20910073.6564
 -29656358.73048 -23093305.69546  20815865.8524                   20815861.5164
 -27942199.48846 -21766210.43743  24234361.2034                   24234362.2584
 11  8 16  0  5 30.0000000  0  8G17G10G09G12G05G04G02G28
 -31362423.41447 -24425999.17245  22668754.3134                   22668753.3204
 -25202700.68748 -19624635.71946  21218840.2664                   21218838.2814
 -16124987.75046 -12549455.98044  22896219.1484                   22896219.1724
 -16437778.91447 -12793842.63345  22349664.2584                   22349662.1054
 -10112043.35247  -7864160.72345  23255507.9144                   23255507.8674
 -33413279.71947 -26019651.00046  20916994.6564                   20916992.7384
 -29704403.67648 -23130743.28947  20806723.2584                   20806718.7544
 -27868682.65246 -21708924.69943  24248350.5944                   24248352.4694
 11  8 16  0  6  0.0000000  0  8G17G10G09G12G05G04G02G28
 -31344831.28147 -24412291.03145  22672102.3364                   22672100.7974
 -25268464.21948 -19675879.98046  21206325.6414                   21206323.6604
 -16089961.45746 -12522162.81645  22902884.6414                   22902884.8634
 -16546230.96947 -12878350.68046  22329026.6724                   22329025.1414
 -10242311.10947  -7965667.87545  23230718.8914                   23230719.2814
 -33376616.39848 -25991082.19546  20923971.4534                   20923969.0784
 -29752076.44948 -23167890.87547  20797651.3594                   20797647.2894
 -27794937.25446 -21651460.85243  24262384.0634                   24262385.2344
 11  8 16  0  6 30.0000000  0  8G17G10G09G12G05G04G02G28
 -31327100.96947 -24398475.22345  22675476.2584                   22675475.0514
 -25333651.40248 -19726675.14546  21193921.2894                   21193919.3554
 -16054541.53547 -12494562.89544  22909625.0864                   22909624.5904
 -16654388.66847 -12962629.37546  22308445.3134                   22308442.8794
 -10372443.20747  -8067069.30545  23205955.2584                   23205955.5084
 -33339654.05548 -25962280.39546  20931005.2734                   20931003.6684
 -29799380.19548 -23204750.91047  20788649.7504                   20788645.6844
 -27720968.04346 -21593822.62143  24276460.5554                   24276462.2584
 11  8 16  0  7  0.0000000  0  8G17G10G09G12G05G04G02G28
 -31309230.75047 -24384550.40245  22678877.1484                   22678875.6294
 -25398259.17648 -19777018.81646  21181626.4064                   21181624.4964
 -16018730.09047 -12466657.88745  22916439.6484                   22916439.6524
 -16762248.46947 -13046675.90646  22287919.7424                   22287918.1524
 -10502435.67647  -8168361.95345  23181218.8054                   23181218.3324
 -33302394.07848 -25933246.66046  20938095.4534                   20938094.0744
 -29846314.25048 -23241322.87146  20779718.5234                   20779714.6174
 -27646775.78146 -21536010.57443  24290577.9224                   24290580.7584
 11  8 16  0  7 30.0000000  0  8G17G10G09G12G05G04G02G28
 -31291223.45347 -24370518.76245  22682303.7974                   22682301.8524
 -25462288.97748 -19826912.12946  21169441.6564                   21169439.7974
 -15982533.51647 -12438452.80944  22923327.5784                   22923327.6804
 -16869810.68047 -13130490.61346  22267451.6804                   22267449.3284
 -10632289.16447  -8269546.33245  23156508.3754                   23156507.2664
 -33264841.78948 -25903985.16046  20945241.7034                   20945239.5354
 -29892882.96148 -23277610.16047  20770856.6644                   20770852.6414
 -27572365.78546 -21478028.88343  24304738.0634                   24304740.9144
 11  8 16  0  8  0.0000000  0  8G17G10G09G12G05G04G02G28
 -31273075.62947 -24356377.62945  22685757.3054                   22685756.0744
 -25525736.12948 -19876351.43046  21157368.5554                   21157366.2154
 -15945952.24647 -12409947.94944  22930289.2894                   22930288.5634
 -16977070.55547 -13214069.69546  22247040.9614                   22247038.7774
 -10761997.94147  -8370617.90645  23131824.9454                   23131825.1954
 -33226997.07448 -25874495.78146  20952442.9774                   20952441.1414
 -29939084.26248 -23313611.14547  20762064.6804                   20762060.6174
 -27497737.57446 -21419877.16443  24318939.6804                   24318942.1374
 11  8 16  0  8 30.0000000  0  8G17G10G09G12G05G04G02G28
 -31254787.10247 -24342126.86345  22689236.9304                   22689235.6604
 -25588599.03948 -19925335.47346  21145406.2114                   21145403.9064
 -15908990.19547 -12381146.40244  22937323.0474                   22937323.0434
 -17084025.87547 -13297411.45746  22226687.3524                   22226685.6994
 -10891559.61347  -8471574.88745  23107170.3284                   23107170.2664
 -33188862.63748 -25844780.64546  20959699.7664                   20959697.7934
 -29984919.27048 -23349326.70346  20753343.0004                   20753338.6334
 -27422893.14146 -21361557.00043  24333182.1174                   24333183.8754
 11  8 16  0  9  0.0000000  0  8G17G10G09G12G05G04G02G28
 -31236358.94947 -24327767.30145  22692743.7734                   22692742.2424
 -25650877.45348 -19973864.07846  21133554.8134                   21133552.9264
 -15871652.04347 -12352051.78144  22944427.7034                   22944427.9064
 -17190675.39147 -13380514.94946  22206393.3134                   22206391.0704
 -11020972.38347  -8572415.83645  23082543.7734                   23082543.7424
 -33150442.60248 -25814842.96946  20967011.3284                   20967009.4414
 -30030390.37548 -23384758.71547  20744689.9694                   20744685.7234
 -27347836.44146 -21303071.40643  24347465.0084                   24347466.6174
 11  8 16  0  9 30.0000000  0  7G17G10G09G12G05G04G02
 -31217788.98447 -24313297.22745  22696277.5314                   22696275.3054
 -25712567.82048 -20021934.46546  21121815.3984                   21121813.7074
 -15833939.87947 -12322665.73044  22951605.0704                   22951603.5824
 -17297015.36347 -13463377.23846  22186157.3914                   22186155.7304
 -11150232.08647  -8673137.51645  23057946.6024                   23057946.6134
 -33111737.64548 -25784683.28546  20974376.6414                   20974374.4344
 -30075496.84048 -23419906.58647  20736106.4454                   20736102.4224
 11  8 16  0 10  0.0000000  0  7G17G10G09G12G05G04G02
 -31199075.31247 -24298715.19145  22699838.4844                   22699837.4264
 -25773666.77048 -20069544.00046  21110188.7504                   21110186.5234
 -15795854.81647 -12292989.08244  22958851.4614                   22958851.8874
 -17403041.47747 -13545994.94146  22165981.0234                   22165978.8754
 -11279334.02347  -8773736.27745  23033378.4774                   23033378.8014
 -33072748.66848 -25754302.27746  20981795.7274                   20981794.1054
 -30120237.53148 -23454769.44147  20727592.4614                   20727588.5744
 11  8 16  0 10 30.0000000  0  7G17G10G09G12G05G04G02
 -31180208.71547 -24284013.98045  22703428.9774                   22703427.3834
 -25834164.20348 -20116684.82446  21098676.4924                   21098674.0164
 -15757392.09847 -12263018.19544  22966171.2034                   22966171.0594
 -17508742.46148 -13628359.30946  22145866.8364                   22145863.9264
 -11408266.68747  -8874203.10545  23008843.3054                   23008843.7584
 -33033469.58648 -25723695.20346  20989270.1804                   20989268.4844
 -30164604.76648 -23489341.29346  20719149.5164                   20719145.3834
 11  8 16  0 11  0.0000000  0  7G17G10G09G12G05G04G02
 -31161185.57047 -24269190.78945  22707048.5554                   22707047.3134
 -25894055.10548 -20163353.02346  21087279.5634                   21087277.4924
 -15718551.98847 -12232753.22344  22973561.6804                   22973561.5984
 -17614112.85548 -13710466.07046  22125815.2274                   22125813.1764
 -11537024.03947  -8974533.35245  22984341.8284                   22984341.7074
 -32993899.44548 -25692861.34046  20996799.8834                   20996798.1764
 -30208596.68448 -23523620.68447  20710778.4534                   20710774.0164
 11  8 16  0 11 30.0000000  0  7G17G10G09G12G05G04G02
 -31142007.44947 -24254246.83245  22710698.4694                   22710697.5634
 -25953340.27348 -20209549.22346  21075997.5634                   21075995.6954
 -15679339.83246 -12202198.35244  22981023.8134                   22981023.7194
 -17719152.29747 -13792314.97346  22105827.6094                   22105824.8524
 -11665605.58647  -9074726.60945  22959873.2114                   22959873.7034
 -32954042.91848 -25661804.31646  21004384.6174                   21004382.9654
 -30252215.98848 -23557609.73447  20702478.1174                   20702473.4384
 11  8 16  0 12  0.0000000  0  7G17G10G09G12G05G04G02
 -31122677.64547 -24239184.69145  22714377.0164                   22714374.6414
 -26012021.79748 -20255275.07446  21064830.8524                   21064829.0824
 -15639763.03947 -12171359.35545  22988555.4774                   22988555.4384
 -17823862.24247 -13873907.10246  22085901.4224                   22085899.1454
 -11794012.46947  -9174783.75845  22935438.1254                   22935437.9804
 -32913906.35248 -25630529.08246  21012022.8594                   21012021.0434
 -30295467.24648 -23591311.99647  20694247.4384                   20694243.3164
 11  8 16  0 12 30.0000000  0  7G17G10G09G12G05G04G02
 -31103199.64147 -24224007.03945  22718083.5164                   22718081.1564
 -26070101.62548 -20300532.04346  21053778.6884                   21053777.0204
 -15599828.89847 -12140241.89544  22996154.7504                   22996154.2234
 -17928243.71547 -13955243.28546  22066038.4304                   22066036.0274
 -11922245.53547  -9274705.50045  22911036.3444                   22911035.4184
 -32873496.23448 -25599040.68046  21019712.4774                   21019710.9144
 -30338355.41848 -23624731.32847  20686085.9534                   20686081.8054
 11  8 16  0 13  0.0000000  0  7G17G10G09G12G05G04G02
 -31083572.87147 -24208713.46945  22721818.7504                   22721816.4184
 -26127578.48447 -20345319.17646  21042841.3834                   21042839.3674
 -15559540.54747 -12108848.42244  23003821.1484                   23003821.0944
 -18032294.64147 -14036321.91046  22046238.3914                   22046235.5944
 -12050301.77347  -9374489.42645  22886667.7504                   22886667.0124
 -32832814.54748 -25567340.67246  21027453.9534                   21027451.8714
 -30380881.27748 -23657868.34447  20677993.3444                   20677989.4384
 11  8 16  0 13 30.0000000  0  7G17G10G09G12G05G04G02
 -31063801.03147 -24193306.85945  22725580.4064                   22725578.8094
 -26184454.96948 -20389638.48046  21032017.7734                   21032016.3164
 -15518905.86347 -12077185.09845  23011554.2504                   23011553.9654
 -18136016.81647 -14117144.34046  22026500.0864                   22026497.8054
 -12178182.59847  -9474136.68045  22862332.9774                   22862332.4384
 -32791868.59048 -25535434.74646  21035245.3914                   21035243.5234
 -30423050.14148 -23690727.18047  20669969.2734                   20669964.8204
 11  8 16  0 14  0.0000000  0  7G17G10G09G12G05G04G02
 -31043882.93047 -24177786.28945  22729371.1334                   22729369.5554
 -26240728.77348 -20433488.17646  21021309.6254                   21021307.5434
 -15477927.43047 -12045253.89545  23019351.4614                   23019351.9454
 -18239406.77047 -14197707.92246  22006826.0394                   22006823.4184
 -12305884.28147  -9573644.34845  22838031.8054                   22838031.7894
 -32750659.45748 -25503323.73446  21043087.1334                   21043085.5204
 -30464862.08648 -23723307.91047  20662012.8524                   20662008.7504
 11  8 16  0 14 30.0000000  0  7G17G10G09G12G05G04G02
 -31023819.04747 -24162152.12145  22733189.3364                   22733187.3364
 -26296399.37148 -20476867.82046  21010715.7504                   21010713.3984
 -15436609.85547 -12013058.44944  23027214.0864                   23027213.4304
 -18342463.21947 -14278011.60946  21987214.6174                   21987212.5824
 -12433404.88347  -9673010.91445  22813765.3444                   22813764.8674
 -32709190.94948 -25471010.62546  21050978.4064                   21050976.9774
 -30506318.99648 -23755611.96547  20654123.4844                   20654119.3634
 11  8 16  0 15  0.0000000  0  7G17G10G09G12G05G04G02
 -31003608.28947 -24146403.49245  22737035.4924                   22737033.5274
 -26351464.70747 -20519775.84446  21000236.5084                   21000235.3014
 -15394955.77047 -11980600.78945  23035140.6644                   23035141.8164
 -18445182.97347 -14358052.96546  21967668.2504                   21967664.8284
 -12560741.21947  -9772233.88345  22789534.3834                   22789533.1604
 -32667464.82048 -25438496.77046  21058918.8444                   21058916.4884
 -30547421.29348 -23787639.71547  20646301.8524                   20646297.7304
 11  8 16  0 15 30.0000000  0  7G17G10G09G12G05G04G02
 -30983249.29347 -24130539.35545  22740909.5864                   22740907.5904
 -26405922.25048 -20562210.26246  20989874.1954                   20989872.1174
 -15352968.08647 -11947883.21144  23043130.5314                   23043131.2854
 -18547562.93047 -14437829.52746  21948185.8674                   21948182.9884
 -12687889.33647  -9871310.22345  22765338.3984                   22765337.5084
 -32625482.57048 -25405783.32846  21066908.0704                   21066906.2304
 -30588169.05548 -23819391.20747  20638547.8984                   20638543.7154
 11  8 16  0 16  0.0000000  0  7G17G10G09G12G05G04G02
 -30962742.93047 -24114560.40245  22744811.4304                   22744810.4224
 -26459772.08248 -20604171.14546  20979626.8444                   20979625.1524
 -15310651.34047 -11914909.20745  23051183.6954                   23051183.2774
 -18649601.60247 -14517340.16446  21928768.1954                   21928765.9654
 -12814848.04747  -9970238.95745  22741178.7114                   22741178.5004
 -32583247.96548 -25372873.26646  21074944.8674                   21074943.2194
 -30628564.43448 -23850868.10547  20630861.2034                   20630856.7504
 11  8 16  0 16 30.0000000  0  7G17G10G09G12G05G04G02
 -30942089.33247 -24098466.71145  22748741.3984                   22748740.6484
 -26513013.39548 -20645657.84046  20969495.4534                   20969492.9884
 -15268009.45747 -11881681.87144  23059299.0084                   23059298.2154
 -18751297.33247 -14596583.56246  21909415.5704                   21909413.6844
 -12941614.88347 -10069018.17645  22717055.7344                   22717055.8594
 -32540763.98048 -25339768.86346  21083029.0004                   21083027.3364
 -30668608.90248 -23882071.56647  20623240.4844                   20623236.3794
 11  8 16  0 17  0.0000000  0  7G17G10G09G12G05G04G02
 -30921288.88347 -24082258.58645  22752699.7274                   22752698.4924
 -26565645.76248 -20686670.04346  20959479.6644                   20959477.4264
 -15225046.81647 -11848204.58244  23067473.7424                   23067473.8984
 -18852648.47747 -14675558.45746  21890129.8524                   21890127.6604
 -13068187.75447 -10167646.25845  22692969.5004                   22692969.1414
 -32498033.83248 -25306472.64846  21091160.2194                   21091158.5434
 -30708304.53948 -23913003.21547  20615687.1414                   20615682.3594
 11  8 16  0 17 30.0000000  0  7G17G10G09G12G05G04G02
 -30900340.03947 -24065934.83645  22756686.7504                   22756685.1054
 -26617667.02348 -20727206.06646  20949580.1024                   20949578.0784
 -15181766.20347 -11814479.47745  23075709.9304                   23075709.9614
 -18953651.78147 -14754262.30546  21870909.4144                   21870906.8284
 -13194562.89847 -10266120.27345  22668920.9304                   22668921.0984
 -32455059.32048 -25272986.03946  21099338.0314                   21099336.6294
 -30747651.43448 -23943663.11347  20608199.7424                   20608195.3164
 11  8 16  0 18  0.0000000  0  7G17G10G09G12G05G04G02
 -30879242.69147 -24049495.36345  22760701.3984                   22760699.8054
 -26669075.84848 -20767264.86346  20939797.6254                   20939795.8554
 -15138171.25047 -11780509.48444  23084005.6414                   23084005.8794
 -19054304.63347 -14832693.07846  21851756.0084                   21851753.2624
 -13320737.85947 -10364438.28545  22644910.7664                   22644911.2034
 -32411842.78548 -25239310.82446  21107562.3524                   21107560.6644
 -30786650.47348 -23974051.94947  20600778.3754                   20600773.9614
 11  8 16  0 18 30.0000000  0  7G17G10G09G12G05G04G02
 -30857995.29347 -24032938.96145  22764743.6414                   22764742.9104
 -26719870.14848 -20806844.80546  20930131.7894                   20930129.9414
 -15094264.28147 -11746296.32445  23092360.7974                   23092361.4454
 -19154604.39147 -14910848.69146  21832669.0704                   21832666.7894
 -13446708.43747 -10462597.06645  22620939.4774                   22620939.1954
 -32368385.46148 -25205447.98846  21115831.8054                   21115830.3284
 -30825302.08648 -24004170.07047  20593423.0394                   20593418.5234
 11  8 16  0 19  0.0000000  0  7G17G10G09G12G05G04G02
 -30836598.14147 -24016265.87945  22768816.2664                   22768815.2424
 -26770049.24248 -20845945.36746  20920582.9454                   20920581.2734
 -15050049.69946 -11711843.47745  23100774.9694                   23100775.5744
 -19254548.73047 -14988727.35946  21813650.6334                   21813648.2584
 -13572472.60947 -10560595.00845  22597007.2734                   22597007.1804
 -32324690.73848 -25171400.15646  21124146.6884                   21124145.0084
 -30863607.78548 -24034018.64847  20586133.6724                   20586128.7934
 11  8 16  0 19 30.0000000  0  7G17G10G09G12G05G04G02
 -30815052.05547 -23999476.73445  22772916.6884                   22772915.1454
 -26819613.33248 -20884566.71146  20911151.3674                   20911149.0274
 -15005532.26647 -11677154.62545  23109246.6564                   23109246.7114
 -19354136.33647 -15066328.06646  21794699.9064                   21794697.2664
 -13698028.75047 -10658430.82045  22573114.3754                   22573114.1454
 -32280762.23048 -25137170.17246  21132505.5394                   21132504.4844
 -30901570.11348 -24063599.66447  20578909.5704                   20578905.1994
 11  8 16  0 20  0.0000000  0  7G17G10G09G12G05G04G02
 -30793354.96147 -23982569.93745  22777045.0084                   22777043.7464
 -26868559.50048 -20922706.55546  20901836.9534                   20901834.6094
 -14960714.11747 -11642231.45344  23117775.2664                   23117775.0474
 -19453363.94147 -15143648.25046  21775817.5084                   21775814.6914
 -13823372.95347 -10756101.51645  22549262.6094                   22549262.3364
 -32236600.93448 -25102758.78146  21140909.6334                   21140908.0354
 -30939187.95348 -24092912.23447  20571751.3284                   20571746.8134
 11  8 16  0 20 30.0000000  0  7G17G10G09G12G05G04G02
 -30771506.13747 -23965544.91445  22781203.1804                   22781201.5784
 -26916886.68448 -20960364.08246  20892640.5164                   20892638.5434
 -14915598.76247 -11607076.72744  23126360.7034                   23126360.6764
 -19552228.82847 -15220685.78546  21757003.9064                   21757001.2154
 -13948501.99247 -10853604.53945  22525450.8984                   22525450.5904
 -32192209.20348 -25068167.83646  21149356.7424                   21149355.4104
 -30976462.98048 -24121957.69547  20564658.0314                   20564653.8404
 11  8 16  0 21  0.0000000  0  7G17G10G09G12G05G04G02
 -30749503.81247 -23948400.26645  22785390.0084                   22785388.3244
 -26964591.97748 -20997537.00846  20883562.5314                   20883560.3054
 -14870187.81247 -11571691.59844  23135001.3594                   23135001.5044
 -19650726.83647 -15297437.43746  21738260.4454                   21738258.0944
 -14073411.44547 -10950936.44945  22501681.5234                   22501680.8364
 -32147587.61348 -25033397.77346  21157848.0314                   21157846.4844
 -31013394.45347 -24150735.44547  20557630.1254                   20557625.6054
 11  8 16  0 21 30.0000000  0  7G17G10G09G12G05G04G02
 -30727348.08647 -23931136.09045  22789606.0944                   22789604.1994
 -27011674.69948 -21034224.82446  20874603.4924                   20874601.2384
 -14824485.12547 -11536079.18444  23143698.5004                   23143698.8714
 -19748856.09447 -15373901.75846  21719587.1884                   21719584.6174
 -14198098.22747 -11048094.86345  22477954.4694                   22477953.5664
 -32102739.02048 -24998450.83646  21166382.0634                   21166380.7274
 -31049983.64848 -24179246.48047  20550667.4844                   20550662.9534
 11  8 16  0 22  0.0000000  0  7G17G10G09G12G05G04G02
 -30705041.88747 -23913754.66445  22793850.7664                   22793849.7504
 -27058137.75047 -21070429.77346  20865761.4844                   20865759.8324
 -14778498.43447 -11500245.46944  23152449.1954                   23152449.9304
 -19846618.10547 -15450079.91846  21700983.0704                   21700981.1254
 -14322564.36747 -11145081.34445  22454268.5004                   22454268.7154
 -32057669.84048 -24963332.01246  21174959.1024                   21174957.3714
 -31086235.80148 -24207494.89847  20543768.9304                   20543764.2424
 11  8 16  0 22 30.0000000  0  7G17G10G09G12G05G04G02
 -30682582.33247 -23896253.74645  22798124.7734                   22798123.5124
 -27103977.91448 -21106149.35946  20857038.1094                   20857036.7544
 -14732228.62547 -11464191.14544  23161253.8914                   23161255.0004
 -19944007.85947 -15525968.00046  21682450.6644                   21682447.3364
 -14446804.12947 -11241891.43445  22430627.0004                   22430625.7424
 -32012379.78547 -24928041.06246  21183577.5864                   21183575.5864
 -31122149.34848 -24235479.46147  20536934.6094                   20536930.3674
 11  8 16  0 23  0.0000000  0  8G17G10G09G12G05G04G25G02
 -30659971.09047 -23878634.62945  22802427.1954                   22802426.5474
 -27149195.57448 -21141383.87146  20848433.6414                   20848431.5474
 -14685680.98447 -11427920.31244  23170111.8204                   23170113.1334
 -20041024.64147 -15601565.46146  21663989.2344                   21663986.9144
 -14570816.14547 -11338524.05145  22407027.6804                   22407027.2624
 -31966872.77748 -24892581.07846  21192237.3754                   21192235.5234
   -191803.96957   -134507.60254  24554008.0004                   24554009.3134
 -31157726.90648 -24263202.22747  20530164.4614                   20530160.2344
 11  8 16  0 23 30.0000000  0  8G17G10G09G12G05G04G25G02
 -30637214.94947 -23860902.62145  22806757.3134                   22806756.1214
 -27193797.11748 -21176138.29746  20839946.2584                   20839944.3444
 -14638866.27046 -11391441.38744  23179020.7664                   23179021.0554
 -20137673.46147 -15676876.19946  21645597.3914                   21645594.7114
 -14694605.60547 -11434983.24645  22383471.3834                   22383470.5944
 -31921158.68748 -24856959.71946  21200936.1724                   21200933.8834
   -321363.87146   -235463.30544  24529353.3914                   24529354.5274
 -31192977.03948 -24290669.84047  20523456.8834                   20523452.4574
 11  8 16  0 24  0.0000000  0  8G17G10G09G12G05G04G25G02
 -30614317.95347 -23843060.85245  22811114.7034                   22811113.4964
 -27237786.28148 -21210415.54346  20831575.2814                   20831572.7114
 -14591793.28147 -11354761.19944  23187977.8054                   23187978.7344
 -20233956.92247 -15751902.23446  21627275.1414                   21627273.0234
 -14818174.21947 -11531270.35545  22359957.0314                   22359957.1094
 -31875245.02048 -24821182.84446  21209673.1804                   21209671.5314
   -450818.10547   -336336.68044  24504719.0554                   24504720.5554
 -31227905.78948 -24317887.02747  20516810.0164                   20516805.9924
 11  8 16  0 24 30.0000000  0  8G17G10G09G12G05G04G25G02
 -30591277.17247 -23825107.01245  22815499.2344                   22815498.2504
 -27281159.38747 -21244212.73846  20823321.4924                   20823319.3794
 -14544462.19947 -11317879.90244  23196985.5084                   23196985.7774
 -20329869.60247 -15826639.35946  21609023.7344                   21609020.9574
 -14941515.80147 -11627380.56245  22336485.2814                   22336485.5434
 -31829130.96948 -24785249.82846  21218448.5704                   21218446.7814
   -580161.31647   -437123.56244  24480106.3364                   24480107.2974
 -31262511.27348 -24344852.32047  20510224.5004                   20510220.0044
 11  8 16  0 25  0.0000000  0  8G17G10G09G12G05G04G25G02
 -30568086.72747 -23807036.57845  22819912.0394                   22819911.4534
 -27323910.68747 -21277525.41846  20815186.3284                   20815184.4454
 -14496872.07447 -11280796.75844  23206041.5314                   23206042.5354
 -20425404.48447 -15901082.10546  21590843.9224                   21590841.3094
 -15064622.91047 -11723308.05945  22313059.0784                   22313058.5744
 -31782814.05947 -24749158.75846  21227262.3984                   21227260.9414
   -709386.28147   -537818.30944  24455515.0084                   24455516.7664
 -31296789.91847 -24371562.94547  20503701.7894                   20503697.3874
 11  8 16  0 25 30.0000000  0  8G17G10G09G12G05G04G25G02
 -30544744.05147 -23788847.52745  22824354.4384                   22824353.4454
 -27366036.73447 -21310350.87946  20807169.8914                   20807167.7344
 -14449023.49246 -11243512.21144  23215147.6334                   23215147.7194
 -20520556.61347 -15975226.60946  21572737.2894                   21572734.7464
 -15187490.44147 -11819048.87545  22289678.5634                   22289677.6484
 -31736294.05147 -24712909.40646  21236114.8204                   21236112.9694
   -838488.23447   -638417.19144  24430947.7274                   24430949.3834
 -31330740.28148 -24398017.74647  20497241.0004                   20497236.6214
 11  8 16  0 26  0.0000000  0  8G17G10G09G12G05G04G25G02
 -30521247.93747 -23770538.89545  22828825.7734                   22828824.2194
 -27407535.64548 -21342687.67246  20799273.2814                   20799270.8524
 -14400919.64546 -11206028.75444  23224301.2814                   23224301.2274
 -20615322.68047 -16049070.27346  21554703.5554                   21554701.2194
 -15310114.52347 -11914600.00845  22266343.8834                   22266342.8324
 -31689572.62548 -24676503.12146  21245005.5474                   21245003.9414
   -967463.99646   -738917.76644  24406405.1334                   24406406.0164
 -31364362.60248 -24424216.94947  20490843.2194                   20490838.3594
 11  8 16  0 26 30.0000000  0  8G17G10G09G12G05G04G25G02
 -30497597.68047 -23752110.15245  22833326.0234                   22833324.2344
 -27448406.57048 -21374535.13346  20791495.8364                   20791493.6764
 -14352563.59046 -11168348.77744  23233502.8754                   23233503.8834
 -20709700.02047 -16122611.03546  21536744.1564                   21536741.4414
 -15432492.41047 -12009959.29345  22243056.0084                   22243054.5274
 -31642651.60947 -24639941.31246  21253934.4774                   21253932.9104
  -1096310.96546   -839317.94544  24381885.9924                   24381887.3554
 -31397657.55547 -24450161.04747  20484507.3204                   20484502.5514
 11  8 16  0 27  0.0000000  0  8G17G10G09G12G05G04G25G02
 -30473792.26647 -23733560.51645  22837856.2814                   22837854.7464
 -27488648.59848 -21405892.53946  20783837.6484                   20783835.7194
 -14303958.80946 -11130474.97344  23242752.1094                   23242752.0824
 -20803686.25847 -16195847.04746  21518859.3444                   21518856.5864
 -15554620.73447 -12105124.10945  22219815.2664                   22219814.4224
 -31595533.30548 -24603225.77346  21262900.7194                   21262899.4064
  -1225026.53146   -939615.74644  24357392.3134                   24357394.0944
 -31430626.49647 -24475851.11347  20478233.4144                   20478228.8554
 11  8 16  0 27 30.0000000  0  8G17G10G09G12G05G04G25G02
 -30449829.48447 -23714888.22745  22842415.8134                   22842414.7734
 -27528258.65648 -21436757.48446  20776300.0634                   20776298.1214
 -14255106.60946 -11092408.39144  23252047.9064                   23252048.7734
 -20897277.07047 -16268774.93046  21501049.3834                   21501046.8674
 -15676494.33247 -12200090.44546  22196623.4144                   22196623.1604
 -31548217.59448 -24566356.40646  21271905.0784                   21271903.4304
  -1353606.14846  -1039807.58244  24332924.5084                   24332925.6214
 -31463268.01248 -24501286.05147  20472022.0084                   20472017.4844
 11  8 16  0 28  0.0000000  0  8G17G10G09G12G05G04G25G02
 -30425707.02747 -23696091.51245  22847006.8284                   22847004.5354
 -27567234.52048 -21467128.27346  20768883.3754                   20768881.0234
 -14206008.66447 -11054150.32044  23261391.5704                   23261391.6564
 -20990468.23847 -16341391.40646  21483315.8674                   21483313.1374
 -15798109.04747 -12294855.05546  22173480.7734                   22173479.6024
 -31500705.19548 -24529333.77346  21280946.2584                   21280944.3874
  -1482045.69946  -1139890.29744  24308483.1334                   24308484.3754
 -31495581.84447 -24526465.64547  20465872.6174                   20465868.5514
 11  8 16  0 28 30.0000000  0  8G17G10G09G12G05G04G25G02
 -28826008.14847 -22449572.92244  23151419.0394                   23151417.5984
 -26030157.34448 -20269405.78146  21061379.4694                   21061376.9924
 -12581253.47747  -9788107.38344  23570572.2894                   23570572.6724
 -19507837.26647 -15186094.52346  21765451.1174                   21765448.3364
 -14344041.11347 -11161815.00046  22450180.8444                   22450179.5864
 -29877583.32048 -23264563.50046  21589816.0704                   21589814.1334
    -34921.94946    -12261.30944  24583861.3834                   24583863.0164
 -29952151.28148 -23323792.45747  20759577.6484                   20759573.3524
 11  8 16  0 29  0.0000000  0  8G17G10G09G12G05G04G25G02
 -28801570.09447 -22430530.30945  23156069.9144                   23156068.2544
 -26067867.92248 -20298790.60946  21054203.0004                   21054201.2664
 -12531680.57047  -9749479.20744  23580005.5234                   23580005.7894
 -19600227.30947 -15258086.73446  21747869.8204                   21747867.0904
 -14465134.88347 -11256173.67245  22427137.3984                   22427136.5274
 -29829690.02748 -23227244.07446  21598929.6884                   21598928.2274
   -163079.91046   -112124.55944  24559473.5164                   24559474.7624
 -29983818.34048 -23348468.07446  20753551.8754                   20753547.1524
 11  8 16  0 29 30.0000000  0  8G17G10G09G12G05G04G25G02
 -28776970.93047 -22411362.14545  23160750.6254                   23160748.8954
 -26104941.68048 -20327679.23446  21047148.1094                   21047146.0004
 -12481872.72347  -9710667.96544  23589483.2734                   23589484.1334
 -19692210.45348 -15329761.88746  21730366.0784                   21730363.3634
 -14585960.87947 -11350323.69145  22404144.4774                   22404144.3754
 -29781606.84048 -23189776.66846  21608079.4774                   21608077.9304
   -291090.64846   -211873.08644  24535113.1094                   24535115.0124
 -30015161.02048 -23372890.93046  20747587.3134                   20747582.9964
 11  8 16  0 30  0.0000000  0  8G17G10G09G12G05G04G25G02
 -28752209.89147 -22392067.82844  23165462.6174                   23165460.7584
 -26141377.91448 -20356071.08646  21040214.7734                   21040212.4144
 -12431833.15246  -9671676.14844  23599006.4454                   23599006.5634
 -19783784.51247 -15401118.26646  21712939.8834                   21712937.0434
 -14706516.15647 -11444262.76645  22381204.0084                   22381202.7704
 -29733335.77748 -23152162.87546  21617265.5784                   21617263.6804
   -418951.57046   -311504.89843  24510782.3674                   24510783.7154
 -30046180.27348 -23397061.77047  20741684.8444                   20741680.2974
 11  8 16  0 30 30.0000000  0  8G17G10G09G12G05G04G25G02
 -28727288.76647 -22372648.78945  23170204.7974                   23170204.1054
 -26177178.60548 -20383967.70746  21033402.1254                   21033400.0864
 -12381567.64547  -9632508.28544  23608571.1564                   23608572.1954
 -19874949.55148 -15472155.92646  21695591.8914                   21695589.3364
 -14826800.24647 -11537990.53146  22358314.6724                   22358313.7384
 -29684881.43048 -23114406.25446  21626485.7584                   21626484.4144
   -546662.53146   -411019.88343  24486479.7814                   24486481.4104
 -30076879.31248 -23420983.09047  20735842.8204                   20735838.5704
 11  8 16  0 31  0.0000000  0  8G17G10G09G12G05G04G25G02
 -28702207.07047 -22353104.62144  23174977.4774                   23174976.0704
 -26212343.03148 -20411368.54346  21026710.4614                   21026708.2814
 -12331079.80546  -9593167.15244  23618178.2114                   23618179.8364
 -19965702.80147 -15542872.71546  21678321.5084                   21678319.4104
 -14946810.47747 -11631504.87945  22335477.1024                   22335476.3524
 -29636245.92248 -23076508.46546  21635741.2274                   21635739.3634
   -674221.07847   -510416.08644  24462206.5234                   24462207.9614
 -30107259.50048 -23444655.94146  20730061.7424                   20730057.0904
 11  8 16  0 31 30.0000000  0  8G17G10G09G12G05G04G25G02
 -28676962.99247 -22333433.93745  23179781.3754                   23179780.1914
 -26246869.06248 -20438271.92246  21020140.4454                   21020138.4774
 -12280371.39547  -9553654.17644  23627828.4304                   23627828.9654
 -20056040.27348 -15613265.52346  21661131.4304                   21661128.6254
 -15066542.20747 -11724802.24245  22312692.9144                   22312691.7384
 -29587429.82048 -23038469.96546  21645030.2274                   21645028.4384
   -801623.19147   -609690.41844  24437962.0314                   24437964.3794
 -30137320.18048 -23468079.83647  20724341.4304                   20724336.4344
 11  8 16  0 32  0.0000000  0  8G17G10G09G12G05G04G25G02
 -28651557.01247 -22313637.09845  23184616.9534                   23184614.6994
 -26280757.30148 -20464678.31646  21013691.6414                   21013689.4494
 -12229447.30547  -9513973.14144  23637518.1804                   23637519.3404
 -20145960.90647 -15683333.52346  21644019.9614                   21644017.8204
 -15185993.84047 -11817881.34446  22289962.1484                   22289960.7544
 -29538436.72348 -23000293.53946  21654353.3444                   21654351.8834
   -928867.55147   -708841.85244  24413749.0234                   24413750.4774
 -30167063.75048 -23491256.62947  20718681.0784                   20718676.6994
 11  8 16  0 32 30.0000000  0  8G17G10G09G12G05G04G25G02
 -28625985.52747 -22293711.26645  23189482.4534                   23189481.1954
 -26314004.27048 -20490585.03146  21007365.0634                   21007362.8554
 -12178308.00047  -9474124.41844  23647250.5634                   23647251.0234
 -20235459.61748 -15753072.74646  21626988.9384                   21626986.1604
 -15305159.40647 -11910737.52046  22267285.6954                   22267284.4734
 -29489265.59448 -22961978.39146  21663710.2584                   21663708.6564
  -1055948.77747   -807866.13744  24389565.7894                   24389567.3714
 -30196488.65648 -23514185.12147  20713081.8524                   20713077.2234
 11  8 16  0 33  0.0000000  0  8G17G10G09G12G05G04G25G02
 -28600251.75847 -22273658.99245  23194379.4064                   23194378.0514
 -26346612.89848 -20515994.32446  21001159.7664                   21001157.6764
 -12126960.59846  -9434113.53944  23657020.9924                   23657022.6254
 -20324537.27048 -15822483.87146  21610038.0164                   21610035.3284
 -15424039.85547 -12003371.53945  22244663.4144                   22244662.2234
 -29439922.27048 -22923529.05945  21673100.1484                   21673098.7624
  -1182867.76247   -906764.01644  24365414.0084                   24365416.0704
 -30225599.45748 -23536868.83247  20707542.2424                   20707538.0164
 11  8 16  0 33 30.0000000  0  8G17G10G09G12G05G04G25G02
 -28574356.31247 -22253480.77045  23199306.9924                   23199305.9224
 -26378583.69148 -20540906.60246  20995075.8444                   20995073.8324
 -12075409.36747  -9393943.81244  23666832.5004                   23666832.1214
 -20413192.83648 -15891566.09846  21593167.2194                   21593165.3014
 -15542633.21947 -12095781.85546  22222095.7664                   22222094.2424
 -29390409.84848 -22884947.98445  21682521.7664                   21682520.3014
  -1309623.27347  -1005534.50044  24341293.3834                   24341294.9024
 -30254398.30948 -23559309.46547  20702061.7034                   20702057.3204
 11  8 16  0 34  0.0000000  0  8G17G10G09G12G05G04G25G02
 -28548296.75847 -22233174.64145  23204266.0234                   23204264.7774
 -26409914.40648 -20565320.13746  20989113.8984                   20989111.9844
 -12023656.07047  -9353616.63344  23676679.3524                   23676680.5204
 -20501422.21948 -15960316.24646  21576377.7344                   21576374.8134
 -15660934.62147 -12187964.66445  22199583.3914                   22199582.4104
 -29340728.53548 -22846235.28146  21691976.1174                   21691974.4804
  -1436210.77047  -1104174.04344  24317204.0554                   24317206.3834
 -30282884.29348 -23581506.33246  20696641.3524                   20696636.3954
 11  8 16  0 34 30.0000000  0  8G17G10G09G12G05G04G25G02
 -28522071.69947 -22212739.55145  23209256.5084                   23209255.6334
 -26440603.87548 -20589233.98446  20983273.6954                   20983271.8634
 -11971703.59047  -9313134.25444  23686566.1564                   23686566.7344
 -20589222.32848 -16028731.90246  21559669.8754                   21559667.8484
 -15778940.75047 -12279917.37946  22177127.7894                   22177126.9384
 -29290879.97748 -22807392.27046  21701461.8284                   21701459.9144
  -1562627.09047  -1202680.20744  24293148.1884                   24293149.7974
 -30311057.75048 -23603459.64847  20691280.1094                   20691275.2894
 11  8 16  0 35  0.0000000  0  8G17G10G09G12G05G04G25G02
 -28495680.23047 -22192174.79745  23214278.7734                   23214277.7624
 -26470651.28548 -20612647.53946  20977556.0784                   20977554.1454
 -11919554.68047  -9272498.82844  23696489.2424                   23696490.7304
 -20676590.54347 -16096811.00846  21543044.5634                   21543041.5204
 -15896648.20347 -12371637.37546  22154728.3204                   22154727.1054
 -29240865.37948 -22768419.89145  21710979.6024                   21710977.7854
  -1688869.27746  -1301050.64844  24269124.6564                   24269127.1604
 -30338919.77048 -23625170.30547  20685978.3134                   20685973.7384
 11  8 16  0 35 30.0000000  0  8G17G10G09G12G05G04G25G02
 -28469122.90247 -22171480.78945  23219332.8834                   23219331.2664
 -26500056.88747 -20635560.96946  20971960.2664                   20971958.1414
 -11867213.71547  -9231713.72344  23706450.3834                   23706451.2384
 -20763525.12147 -16164552.21546  21526501.3834                   21526498.7234
 -16014055.02747 -12463123.12946  22132386.4064                   22132385.3984
 -29190688.10248 -22729320.73045  21720527.6954                   21720526.2034
  -1814935.57047  -1399284.01244  24245135.2344                   24245136.8674
 -30366472.25048 -23646639.75047  20680734.9384                   20680730.5744
 11  8 16  0 36  0.0000000  0  8G17G10G09G12G05G04G25G02
 -28442402.44547 -22150659.68445  23224417.2274                   23224416.4534
 -26528823.98047 -20657976.85946  20966485.7584                   20966483.7504
 -11814687.93447  -9190784.60544  23716445.0944                   23716446.1804
 -20850027.17247 -16231956.39146  21510040.4614                   21510037.3914
 -16131161.67247 -12554374.95746  22110101.9844                   22110101.0864
 -29140353.61748 -22690099.06645  21730106.3284                   21730104.9344
  -1940826.99247  -1497381.11344  24221179.0084                   24221180.9064
 -30393719.76247 -23667871.56247  20675550.1414                   20675545.6524
 11  8 16  0 36 30.0000000  0  8G17G10G09G12G05G04G25G02
 -28415515.66847 -22129708.95745  23229533.5634                   23229532.6054
 -26556949.59047 -20679892.90646  20961134.1414                   20961131.4144
 -11761977.81647  -9149711.87144  23726476.0634                   23726476.4104
 -20936091.67247 -16299019.62546  21493663.0394                   21493659.7734
 -16247962.76647 -12645388.69146  22087875.7734                   22087873.7704
 -29089861.21548 -22650754.36745  21739714.2734                   21739712.7384
  -2066538.10247  -1595337.75044  24197256.9064                   24197258.6644
 -30420660.42248 -23688864.25847  20670423.2974                   20670418.8954
 11  8 16  0 37  0.0000000  0  8G17G10G09G12G05G04G25G02
 -28388462.24647 -22108628.38744  23234682.0164                   23234680.2774
 -26584433.29347 -20701308.75846  20955904.0084                   20955901.9184
 -11709086.73847  -9108498.12544  23736540.7734                   23736541.6094
 -21021716.66047 -16365740.37946  21477368.7424                   21477366.0634
 -16364455.28947 -12736161.99246  22065707.9384                   22065706.4574
 -29039213.03548 -22611288.27045  21749352.6724                   21749350.8674
  -2192066.49647  -1693152.00044  24173369.6884                   24173371.1804
 -30447295.69147 -23709619.00047  20665354.9454                   20665350.3244
 11  8 16  0 37 30.0000000  0  8G17G10G09G12G05G04G25G02
 -28361241.15247 -22087417.16444  23239861.4844                   23239860.6804
 -26611274.38748 -20722223.87146  20950796.4924                   20950793.9574
 -11656017.81247  -9067145.81244  23746638.5394                   23746640.6564
 -21106899.20347 -16432116.37546  21461159.2584                   21461156.6024
 -16480635.96147 -12826692.29746  22043599.1094                   22043598.1524
 -28988410.66448 -22571702.03145  21759020.2274                   21759017.9694
  -2317409.18047  -1790821.55944  24149517.6804                   24149518.8794
 -30473626.10248 -23730136.19147  20660344.3594                   20660339.5044
 11  8 16  0 38  0.0000000  0  8G17G10G09G12G05G04G25G02
 -28333850.71547 -22066073.98044  23245073.0394                   23245073.0164
 -26637471.92248 -20742637.50046  20945810.8524                   20945808.7624
 -11602773.71147  -9025657.00444  23756772.0004                   23756773.0394
 -21191636.27347 -16498145.25046  21445034.3834                   21445032.0124
 -16596501.09047 -12916976.72346  22021550.5234                   22021549.6994
 -28937455.48848 -22531996.71545  21768716.2894                   21768714.8634
  -2442562.83247  -1888343.83644  24125701.7504                   24125702.6994
 -30499651.94948 -23750416.05947  20655391.5234                   20655386.7424
 11  8 16  0 38 30.0000000  0  8G17G10G09G12G05G04G25G02
 -28306295.87147 -22044602.69144  23250317.3444                   23250316.2664
 -26663030.65247 -20762553.36346  20940947.1644                   20940944.9534
 -11549363.07447  -8984038.38744  23766934.9224                   23766936.4264
 -21275930.62547 -16563829.13746  21428994.0944                   21428990.7544
 -16712053.18447 -13007017.21546  21999561.9694                   21999561.0354
 -28886354.28548 -22492177.61345  21778440.4924                   21778439.1374
  -2567529.84847  -1985720.68744  24101921.0394                   24101921.9694
 -30525379.84848 -23770463.76247  20650495.8204                   20650491.1684
 11  8 16  0 39  0.0000000  0  8G17G10G09G12G05G04G25G02
 -28278571.67247 -22022999.43444  23255592.8204                   23255591.6524
 -26687945.98847 -20781967.87946  20936205.8594                   20936203.8244
 -11495784.72347  -8942289.11344  23777130.7504                   23777132.2424
 -21359775.74247 -16629162.98046  21413038.7814                   21413036.0634
 -16827284.80547 -13096808.00846  21977633.7344                   21977632.3404
 -28835104.71948 -22452242.90245  21788193.2424                   21788191.8204
  -2692303.17247  -2082946.60544  24078177.2274                   24078178.6414
 -30550806.41448 -23790276.66447  20645657.1954                   20645652.6954
 11  8 16  0 39 30.0000000  0  8G17G10G09G12G05G04G25G02
 -28250677.85547 -22001264.01244  23260901.0234                   23260900.0164
 -26712218.34447 -20800881.38746  20931587.3444                   20931585.1134
 -11442042.44947  -8900412.13744  23787358.7974                   23787359.1604
 -21443169.55547 -16694145.15246  21397169.2034                   21397166.1174
 -16942193.60547 -13186347.23046  21955767.0784                   21955765.5784
 -28783709.37548 -22412194.59445  21797973.1804                   21797971.5824
  -2816880.67247  -2180019.94944  24054471.2734                   24054472.0474
 -30575933.15648 -23809855.92647  20640875.7344                   20640871.1024
 11  8 16  0 40  0.0000000  0  8G17G10G09G12G05G04G25G02
 -28222613.99247 -21979396.07444  23266241.9844                   23266240.2344
 -26735846.90247 -20819293.21546  20927090.6414                   20927088.8054
 -11388139.57446  -8858409.97344  23797615.1414                   23797616.3634
 -21526109.72347 -16758773.84846  21381386.4144                   21381383.3134
 -17056776.32447 -13275632.37946  21933962.8984                   21933960.6644
 -28732169.90648 -22372034.00445  21807781.3054                   21807779.2704
  -2941259.51247  -2276938.51244  24030802.3134                   24030803.4344
 -30600760.70347 -23829202.04747  20636151.2194                   20636146.5984
 11  8 16  0 40 30.0000000  0  8G17G10G09G12G05G04G25G02
 -28194381.21547 -21957396.52344  23271613.3204                   23271612.7974
 -26758833.93747 -20837205.16046  20922716.1564                   20922714.3874
 -11334081.25447  -8816286.71944  23807902.3134                   23807903.4804
 -21608596.04748 -16823048.87946  21365689.4534                   21365686.6094
 -17171032.33247 -13364662.95346  21912220.2814                   21912219.0314
 -28680490.33648 -22331764.21945  21817615.4454                   21817613.5984
  -3065439.05547  -2373701.77044  24007171.9304                   24007172.4654
 -30625292.24648 -23848317.53146  20631483.3284                   20631478.6954
 11  8 16  0 41  0.0000000  0  8G17G10G09G12G05G04G25G02
 -28165976.03947 -21935262.62944  23277019.7194                   23277018.1994
 -26781176.23448 -20854614.72346  20918464.7584                   20918462.6254
 -11279868.25447  -8774042.88744  23818218.5634                   23818220.1254
 -21690623.12947 -16886966.06646  21350080.0314                   21350077.5824
 -17284955.66047 -13453434.28146  21890541.7274                   21890540.2384
 -28628669.60248 -22291384.45745  21827476.6724                   21827475.3674
  -3189413.83647  -2470305.44944  23983580.1724                   23983581.2774
 -30649526.35248 -23867201.24246  20626871.4614                   20626867.1054
 11  8 16  0 41 30.0000000  0  8G17G10G09G12G05G04G25G02
 -28137400.28147 -21912995.81244  23282457.2814                   23282455.9304
 -26802875.56248 -20871523.27046  20914335.8134                   20914333.0664
 -11225505.78547  -8731682.61743  23828563.1954                   23828564.8244
 -21772190.83248 -16950525.28946  21334558.5004                   21334555.8364
 -17398545.36747 -13541945.66046  21868926.0554                   21868924.8164
 -28576711.42248 -22250897.57445  21837364.5554                   21837362.4884
  -3313183.03947  -2566748.94944  23960028.2424                   23960028.7544
 -30673466.08248 -23885855.56646  20622315.8674                   20622311.2464
 11  8 16  0 42  0.0000000  0  8G17G10G09G12G05G04G25G02
 -28108653.06647 -21890595.41444  23287928.3054                   23287926.4024
 -26823931.85248 -20887930.75046  20910328.6414                   20910326.6884
 -11170997.21147  -8689208.48044  23838937.1484                   23838936.9924
 -21853296.93448 -17013724.82046  21319124.3364                   21319121.9224
 -17511798.77347 -13630194.97746  21847374.6254                   21847373.4844
 -28524617.94548 -22210305.27345  21847277.0394                   21847275.5004
  -3436744.01247  -2663030.20344  23936514.7894                   23936515.3834
 -30697112.22748 -23904281.11746  20617816.1884                   20617811.5944
 11  8 16  0 42 30.0000000  0  8G17G10G09G12G05G04G25G02
 -28079733.28947 -21868060.53545  23293430.9534                   23293429.8954
 -26844344.21948 -20903836.46946  20906443.8984                   20906441.9534
 -11116344.84447  -8646622.33244  23849336.3054                   23849337.1334
 -21933937.92648 -17076561.93446  21303778.9924                   21303776.0354
 -17624712.12147 -13718179.32046  21825887.6644                   21825886.4224
 -28472390.37548 -22169608.48045  21857215.5944                   21857213.5234
  -3560093.29347  -2759146.49244  23913042.3594                   23913043.5394
 -30720465.16848 -23922478.21547  20613372.1954                   20613367.7344
 11  8 16  0 43  0.0000000  0  8G17G10G09G12G05G04G25G02
 -28050641.42247 -21845391.56245  23298967.0634                   23298965.8204
 -26864113.98447 -20919241.47346  20902682.3284                   20902679.8714
 -11061553.25047  -8603927.68044  23859763.0704                   23859764.1954
 -22014113.37948 -17139036.28946  21288521.9454                   21288519.4064
 -17737283.79347 -13805897.42246  21804466.1094                   21804464.8554
 -28420031.48448 -22128809.36345  21867179.4064                   21867177.3984
  -3683229.32047  -2855096.59044  23889610.0474                   23889611.7424
 -30743527.19548 -23940448.60946  20608983.6334                   20608978.9534
 11  8 16  0 43 30.0000000  0  8G17G10G09G12G05G04G25G02
 -28021376.59447 -21822587.81645  23304536.2114                   23304535.0474
 -26883241.15648 -20934145.75446  20899042.7114                   20899040.3364
 -11006625.66046  -8561127.05143  23870214.8284                   23870216.0784
 -22093820.73848 -17201145.89846  21273354.0944                   21273351.6414
 -17849510.78548 -13893346.94146  21783110.1484                   21783108.4344
 -28367542.99648 -22087909.26245  21877167.3594                   21877165.2894
  -3806149.30147  -2950878.30144  23866219.5394                   23866220.5704
 -30766299.23848 -23958193.04346  20604650.5784                   20604645.8094
 11  8 16  0 44  0.0000000  0  8G17G10G09G12G05G04G25G02
 -27991937.88747 -21799648.57845  23310138.0864                   23310136.3324
 -26901724.98848 -20948548.71946  20895525.2274                   20895522.6604
 -10951564.88747  -8518222.60244  23880693.5234                   23880694.4924
 -22173057.19547 -17262888.55546  21258276.1024                   21258273.1024
 -17961389.92647 -13980525.40646  21761820.3914                   21761818.7154
 -28314926.42648 -22046909.34445  21887179.8674                   21887178.1524
  -3928850.05947  -3046489.20344  23842870.1414                   23842871.2974
 -30788782.07448 -23975712.12947  20600372.2504                   20600367.6914
 11  8 16  0 44 30.0000000  0  8G17G10G09G12G05G04G25G02
 -27962323.08247 -21776572.13745  23315773.7814                   23315772.5044
 -26919563.84848 -20962449.11746  20892130.5634                   20892128.1994
 -10896372.45347  -8475215.62144  23891196.3134                   23891197.7344
 -22251818.66847 -17324261.10546  21243287.9144                   21243285.5124
 -18072916.29347 -14067428.98046  21740597.0164                   21740595.2384
 -28262181.65248 -22005809.56245  21897217.2274                   21897214.7584
  -4051326.97347  -3141925.69944  23819563.6644                   23819564.2074
 -30810974.70748 -23993005.08247  20596148.9064                   20596144.2974
 11  8 16  0 45  0.0000000  0  8G17G10G09G12G05G04G25G02
 -27932531.77747 -21753358.16445  23321442.7974                   23321441.5274
 -26936757.69147 -20975846.91046  20888858.4924                   20888856.1484
 -10841051.98847  -8432108.84844  23901723.9614                   23901724.1174
 -22330102.95348 -17385261.83246  21228391.3524                   21228387.9224
 -18184087.09047 -14154055.50446  21719442.2194                   21719440.0634
 -28209310.87548 -21964611.56645  21907278.1564                   21907275.9804
  -4173577.63747  -3237185.90244  23796299.3134                   23796300.7814
 -30832878.34048 -24010072.82447  20591980.5784                   20591975.9924
 11  8 16  0 45 30.0000000  0  8G17G10G09G12G05G04G25G02
 -27902567.43747 -21730009.33645  23327144.7274                   23327143.8444
 -26953311.64548 -20988746.07446  20885708.4924                   20885705.9924
 -10785611.01247  -8388908.16044  23912273.8054                   23912274.3164
 -22407912.98847 -17445893.00046  21213583.8754                   21213581.2424
 -18294904.11747 -14240406.35546  21698354.4144                   21698352.6024
 -28156320.34848 -21923320.27345  21917361.7504                   21917360.3984
  -4295603.82847  -3332271.19944  23773079.2194                   23773080.6374
 -30854499.14848 -24026920.19947  20587866.7034                   20587861.7194
 11  8 16  0 46  0.0000000  0  8G17G10G09G12G05G04G25G02
 -27872426.91447 -21706523.21545  23332880.9144                   23332879.5744
 -26969222.35248 -21001144.01646  20882680.5474                   20882678.5744
 -10730049.73447  -8345613.71944  23922846.6564                   23922848.0514
 -22485243.07048 -17506150.18446  21198868.9304                   21198866.3524
 -18405361.64847 -14326477.07446  21677334.8054                   21677332.8834
 -28103208.52748 -21881934.45745  21927469.0234                   21927467.2934
  -4417399.68447  -3427176.98444  23749902.4224                   23749903.3794
 -30875835.05948 -24043545.56647  20583806.4534                   20583801.7154
 11  8 16  0 46 30.0000000  0  8G17G10G09G12G05G04G25G02
 -27842111.97347 -21682901.20344  23338649.3594                   23338647.7424
 -26984492.37948 -21013042.73046  20879775.1414                   20879772.9414
 -10674374.00847  -8302230.14544  23933440.9144                   23933442.6844
 -22562093.11348 -17566033.31246  21184244.6254                   21184241.8054
 -18515458.94147 -14412267.09846  21656383.8754                   21656382.4654
 -28049979.83248 -21840457.57445  21937598.0394                   21937595.9184
  -4538964.82847  -3521902.99644  23726769.0234                   23726770.1054
 -30896889.06648 -24059951.28146  20579799.9694                   20579794.9694
 11  8 16  0 47  0.0000000  0  8G17G10G09G12G05G04G25G02
 -27811622.79347 -21659143.40645  23344450.7194                   23344449.6334
 -26999122.49248 -21024442.80146  20876991.0234                   20876988.7734
 -10618587.87947  -8258760.48444  23944057.2424                   23944058.3524
 -22638462.30548 -17625541.75446  21169712.3674                   21169709.3794
 -18625194.12147 -14497774.95346  21635502.0084                   21635500.1024
 -27996636.70348 -21798891.52045  21947748.8134                   21947746.4694
  -4660297.27347  -3616447.72744  23703679.8984                   23703680.9264
 -30917663.22748 -24076138.91447  20575846.8594                   20575841.8554
 11  8 16  0 47 30.0000000  0  8G17G10G09G12G05G04G25G02
 -27780956.21947 -21635247.36344  23350286.4534                   23350285.0004
 -27013110.64148 -21035342.62946  20874328.7194                   20874326.4304
 -10562691.93047  -8215205.28544  23954694.4844                   23954694.5784
 -22714345.64848 -17684671.61746  21155272.0634                   21155269.2194
 -18734561.78947 -14582996.43746  21614689.9844                   21614688.3594
 -27943178.23848 -21757235.60545  21957921.1884                   21957919.7544
  -4781391.86747  -3710807.09844  23680636.4384                   23680637.1454
 -30938156.14548 -24092107.39847  20571946.7974                   20571942.0314
 11  8 16  0 48  0.0000000  0  8G17G10G09G12G05G04G25G02
 -27750112.62147 -21611213.38344  23356155.6094                   23356154.8324
 -27026457.81648 -21045743.01246  20871789.2274                   20871786.5314
 -10506690.21947  -8171567.67244  23965350.8054                   23965352.5514
 -22789741.98048 -17743422.00446  21140924.6174                   21140921.4774
 -18843560.18047 -14667930.18446  21593948.0634                   21593946.6524
 -27889607.21148 -21715491.98045  21968115.9224                   21968113.3754
  -4902246.74647  -3804979.63344  23657637.8984                   23657639.5744
 -30958369.93748 -24107858.39847  20568100.7034                   20568095.8874
 11  8 16  0 48 30.0000000  0  8G17G10G09G12G05G04G25G02
 -27719092.38747 -21587041.77344  23362058.8674                   23362057.4574
 -27039165.34048 -21055644.96146  20869371.0474                   20869368.7464
 -10450587.24246  -8127851.14144  23976026.9924                   23976028.6094
 -22864650.30148 -17801792.10246  21126670.1334                   21126667.1254
 -18952187.49247 -14752574.75846  21573277.1724                   21573275.3054
 -27835926.33648 -21673662.73845  21978330.9534                   21978328.6564
  -5022860.02347  -3898963.92244  23634686.7034                   23634687.3204
 -30978306.60248 -24123393.43747  20564306.3834                   20564301.8594
 11  8 16  0 49  0.0000000  0  8G17G10G09G12G05G04G25G02
 -27687897.51247 -21562734.06244  23367995.2894                   23367993.5784
 -27051235.80948 -21065050.51246  20867074.1484                   20867071.7544
 -10394388.41446  -8084059.91444  23986721.0164                   23986722.7544
 -22939070.51648 -17859781.85546  21112508.1334                   21112505.1094
 -19060443.07447 -14836929.68746  21552676.5234                   21552674.7854
 -27782139.63748 -21631751.05545  21988566.4614                   21988564.3484
  -5143231.41047  -3992759.74244  23611780.1484                   23611781.2734
 -30997969.53148 -24138715.18447  20560564.8364                   20560560.1844
 11  8 16  0 49 30.0000000  0  8G17G10G09G12G05G04G25G02
 -27656524.27347 -21538287.38344  23373965.0784                   23373963.5124
 -27062666.67648 -21073957.66846  20864898.8524                   20864896.4654
 -10338094.08646  -8040194.29744  23997433.0394                   23997434.9574
 -23012997.57048 -17917387.35246  21098440.6564                   21098437.3834
 -19168321.27347 -14920990.54746  21532148.1024                   21532146.3914
 -27728246.11747 -21589756.12945  21998821.6254                   21998819.9224
  -5263355.22347  -4086362.64544  23588920.8984                   23588922.8364
 -31017356.93748 -24153822.25446  20556875.5634                   20556870.9494
 11  8 16  0 50  0.0000000  0  8G17G10G09G12G05G04G25G02
 -27624970.98847 -21513700.39544  23379969.8674                   23379968.3594
 -27073456.98848 -21082365.68046  20862845.6334                   20862843.4654
 -10281706.12147  -7996255.66444  24008163.3594                   24008165.5084
 -23086427.92648 -17974605.79346  21084467.3204                   21084464.2774
 -19275817.94548 -15004754.11746  21511691.8444                   21511690.1914
 -27674246.03547 -21547678.15645  22009097.2344                   22009096.2114
  -5383227.35247  -4179769.43744  23566110.3834                   23566111.8444
 -31036468.67648 -24168714.49247  20553238.8984                   20553233.7664
 11  8 16  0 50 30.0000000  0  8G17G10G09G12G05G04G25G02
 -27593238.02047 -21488973.39144  23386007.9384                   23386007.2114
 -27083607.92648 -21090275.47346  20860913.6804                   20860911.5274
 -10225228.68746  -7952247.35944  24018911.0314                   24018913.5864
 -23159361.02748 -18031436.76646  21070588.3834                   21070585.5744
 -19382931.15648 -15088218.89846  21491309.2034                   21491306.5354
 -27620141.88747 -21505519.10545  22019393.4844                   22019391.8554
  -5502845.93047  -4272978.66044  23543348.1174                   23543348.7894
 -31055306.62948 -24183393.39846  20549653.8674                   20549648.8284
 11  8 16  0 51  0.0000000  0  8G17G10G09G12G05G04G25G02
 -27561326.81247 -21464107.49644  23392080.5084                   23392079.5594
 -27093122.11348 -21097689.11346  20859103.4304                   20859100.6024
 -10168666.99246  -7908173.36344  24029674.5554                   24029675.9264
 -23231796.42248 -18087879.91846  21056804.4454                   21056801.3134
 -19489660.19547 -15171384.29746  21470998.5784                   21470997.4964
 -27565937.43047 -21463281.89545  22029707.8984                   22029706.5314
  -5622210.24247  -4365989.75045  23520633.9384                   23520634.9384
 -31073874.07848 -24197861.53947  20546120.5234                   20546116.3204
 11  8 16  0 51 30.0000000  0  8G17G10G09G12G05G04G25G02
 -27529236.61347 -21439102.16044  23398187.1484                   23398185.6484
 -27101999.55548 -21104606.58646  20857414.3674                   20857412.0474
 -10112023.86347  -7864035.94544  24040453.5634                   24040454.5984
 -23303731.98448 -18143933.59846  21043115.8984                   21043112.9924
 -19596002.23048 -15254248.15246  21450762.6884                   21450760.9774
 -27511633.96547 -21420967.52745  22040041.6414                   22040040.3014
  -5741317.23047  -4458800.32844  23497968.3364                   23497969.3324
 -31092171.46548 -24212119.23447  20542638.5234                   20542633.9344
 11  8 16  0 52  0.0000000  0  8G17G10G09G12G05G04G25G02
 -27496967.70747 -21413957.54744  23404327.7344                   23404326.0634
 -27110241.47748 -21111028.84846  20855846.0314                   20855843.1684
 -10055303.45346  -7819838.33644  24051247.1564                   24051248.3404
 -23375166.25048 -18199596.64146  21029522.1804                   21029519.5044
 -19701955.00848 -15336808.68746  21430600.4454                   21430599.0594
 -27457234.11347 -21378578.05945  22050393.7114                   22050393.0554
  -5860165.03547  -4551408.95345  23475352.8284                   23475352.8324
 -31110201.18048 -24226168.35247  20539207.8284                   20539202.9884
 11  8 16  0 52 30.0000000  0  8G17G10G09G12G05G04G25G02
 -27464518.37947 -21388672.37144  23410502.7194                   23410501.4694
 -27117847.23448 -21116955.39146  20854398.2974                   20854395.8794
  -9998507.90247  -7775582.14144  24062055.7114                   24062056.4414
 -23446096.10248 -18254866.62946  21016024.4614                   21016022.0004
 -19807514.86748 -15419063.05546  21410513.1414                   21410511.2234
 -27402738.35247 -21336113.84845  22060763.7814                   22060762.4774
  -5978749.62547  -4643812.46545  23452786.2584                   23452787.4064
 -31127962.93048 -24240008.65647  20535827.8834                   20535822.9924
 11  8 16  0 53  0.0000000  0  8G17G10G09G12G05G04G25G02
 -27431887.30147 -21363245.52344  23416711.9844                   23416711.2074
 -27124816.15648 -21122385.70346  20853072.1334                   20853069.9804
  -9941639.34847  -7731269.09844  24072876.9144                   24072878.4304
 -23516518.79348 -18309741.43446  21002623.3834                   21002620.7464
 -19912678.36748 -15501008.56646  21390501.1174                   21390499.3324
 -27348147.38747 -21293575.46145  22071152.4534                   22071150.8164
  -6097067.34447  -4736008.06244  23430271.4064                   23430271.8634
 -31145456.80948 -24253640.23447  20532499.1724                   20532494.5984
 11  8 16  0 53 30.0000000  0  8G17G10G09G12G05G04G25G02
 -27399073.89547 -21337676.65244  23422955.9384                   23422954.5164
 -27131149.10248 -21127320.44946  20851866.8054                   20851864.8014
  -9884700.82046  -7686901.52744  24083712.0864                   24083713.7974
 -23586432.16448 -18364219.36346  20989319.5004                   20989316.6374
 -20017442.48448 -15582642.88346  21370565.1174                   21370563.0984
 -27293462.72347 -21250964.06245  22081558.0004                   22081556.9344
  -6215115.46547  -4827993.57444  23407807.1024                   23407807.7034
 -31162684.10548 -24267064.09447  20529220.6024                   20529216.3404
 11  8 16  0 54  0.0000000  0  8G17G10G09G12G05G04G25G02
 -27366079.21146 -21311966.52044  23429234.6174                   23429233.6454
 -27136848.53548 -21131761.55546  20850782.0474                   20850779.8954
  -9827697.41047  -7642483.35244  24094559.4454                   24094560.8094
 -23655836.05548 -18418300.31246  20976112.2424                   20976109.4924
 -20121806.32048 -15663965.28146  21350705.6724                   21350703.7384
 -27238688.06247 -21208282.53145  22091981.7974                   22091980.8554
  -6332892.95347  -4919768.21144  23385394.9454                   23385395.4224
 -31179647.57048 -24280282.36347  20525992.6644                   20525988.3164
 11  8 16  0 54 30.0000000  0  8G17G10G09G12G05G04G25G02
 -27332902.81646 -21286114.82844  23435547.8134                   23435546.7584
 -27141914.61348 -21135709.13346  20849818.2114                   20849816.2624
  -9770632.16046  -7598017.03143  24105418.6254                   24105419.6524
 -23724728.02048 -18471982.33646  20963002.7814                   20962999.9574
 -20225767.03948 -15744973.56246  21330922.3754                   21330920.2934
 -27183824.24247 -21165531.52345  22102422.4144                   22102420.3954
  -6450396.86747  -5011329.62944  23363034.8204                   23363035.3284
 -31196348.09448 -24293295.75447  20522814.7194                   20522809.6454
 11  8 16  0 55  0.0000000  0  8G17G10G09G12G05G04G25G02
 -27299544.07446 -21260121.03144  23441896.3524                   23441894.5944
 -27146347.60548 -21139163.40246  20848974.3524                   20848972.7274
  -9713507.78946  -7553504.63743  24116288.6954                   24116290.1174
 -23793106.06248 -18525263.91046  20949990.9304                   20949987.8554
 -20329321.46548 -15825665.27346  21311216.6254                   21311214.8364
 -27128872.85247 -21122712.27345  22112878.8054                   22112877.6724
  -6567623.96947  -5102675.39844  23340727.3834                   23340727.1884
 -31212786.55148 -24306104.93747  20519686.4774                   20519681.6804
 11  8 16  0 55 30.0000000  0  8G17G10G09G12G05G04G25G02
 -27266002.75446 -21233984.98044  23448278.5704                   23448277.8014
 -27150148.85948 -21142125.41446  20848251.2344                   20848249.1484
  -9656328.44547  -7508949.41044  24127170.6884                   24127171.6214
 -23860969.12548 -18578144.20346  20937076.8284                   20937074.2344
 -20432467.94548 -15906039.08646  21291588.3834                   21291586.8594
 -27073836.30147 -21079826.66845  22123352.5394                   22123351.0044
  -6684572.42247  -5193804.02044  23318472.5164                   23318472.7974
 -31228964.93448 -24318711.44947  20516607.6254                   20516603.3134
 11  8 16  0 56  0.0000000  0  8G17G10G09G12G05G04G25G02
 -27232277.67646 -21207705.72744  23454697.6254                   23454695.5044
 -27153318.26648 -21144595.06646  20847648.3984                   20847646.4574
  -9599096.37146  -7464353.09043  24138061.0474                   24138062.2934
 -23928314.46148 -18630621.07446  20924261.4694                   20924258.3914
 -20535203.00848 -15986092.32846  21272038.3444                   21272036.7074
 -27018715.41047 -21036875.35545  22133841.3914                   22133839.8634
  -6801238.58247  -5284712.66844  23296271.2194                   23296272.0234
 -31244883.48448 -24331115.50047  20513578.5704                   20513573.7734
 11  8 16  0 56 30.0000000  0  8G17G10G09G12G05G04G25G02
 -27198371.02046 -21181284.94944  23461148.7734                   23461147.3164
 -27155859.38348 -21146575.14146  20847164.4384                   20847162.4064
  -9541816.98446  -7419719.85943  24148960.2664                   24148962.2704
 -23995142.25848 -18682694.66046  20911544.5234                   20911541.3444
 -20637526.10548 -16065824.53546  21252567.1484                   21252565.0514
 -26963514.13347 -20993861.38745  22144345.6884                   22144344.1094
  -6917622.11347  -5375401.07044  23274124.3134                   23274124.8984
 -31260545.55548 -24343319.70347  20510598.1254                   20510593.6724
 11  8 16  0 57  0.0000000  0  8G17G10G09G12G05G04G25G02
 -27164280.36347 -21154720.82444  23467636.2814                   23467634.3364
 -27157770.84048 -21148064.58246  20846800.8524                   20846798.8874
  -9484491.72346  -7375050.93743  24159869.6954                   24159870.7974
 -24061448.70748 -18734361.99646  20898926.8524                   20898924.1094
 -20739433.14148 -16145232.55146  21233174.6954                   21233172.4384
 -26908231.96547 -20950784.38345  22154865.0554                   22154864.8244
  -7033718.50447  -5465865.75444  23252031.7974                   23252032.5704
 -31275950.66048 -24355323.67247  20507666.5704                   20507661.7704
 11  8 16  0 57 30.0000000  0  8G17G10G09G12G05G04G25G02
 -27130006.91847 -21128014.28544  23474157.8834                   23474156.3874
 -27159054.84848 -21149065.09046  20846556.5634                   20846554.2154
  -9427124.88346  -7330349.62544  24170786.4774                   24170787.5594
 -24127234.44948 -18785623.59446  20886408.0554                   20886405.2934
 -20840922.75448 -16224315.31246  21213861.4064                   21213859.8714
 -26852872.13747 -20907646.87145  22165400.3914                   22165398.9064
  -7149526.31647  -5556105.55145  23229994.7734                   23229995.1414
 -31291101.22748 -24367129.30947  20504783.7194                   20504778.6414
 11  8 16  0 58  0.0000000  0  8G17G10G09G12G05G04G25G02
 -27095548.32847 -21101163.44544  23480715.8834                   23480713.6254
 -27159710.39548 -21149575.89146  20846431.8984                   20846429.3754
  -9369718.21946  -7285617.27043  24181710.8754                   24181712.7034
 -24192495.39548 -18836476.25046  20873989.3984                   20873986.5044
 -20941990.54748 -16303069.37946  21194629.1254                   21194627.6804
 -26797434.39547 -20864448.64145  22175949.7274                   22175948.4734
  -7265041.09447  -5646116.99245  23208012.7194                   23208013.2624
 -31305996.64848 -24378736.13346  20501949.1094                   20501944.3524
 11  8 16  0 58 30.0010000  0  8G17G10G09G12G05G04G25G02
 -25485485.02747 -19846568.64544  23787100.2274                   23787098.8954
 -25584319.30148 -19921998.39146  21146218.7974                   21146216.1764
  -7736855.82846  -6013257.07843  24492433.3674                   24492436.3484
 -22681810.41848 -17659319.09846  21161463.2664                   21161460.3984
 -19467215.33248 -15153893.80546  21475269.6024                   21475267.4454
 -25166501.28947 -19593591.69145  22486306.2664                   22486304.8524
  -5804841.20747  -4508298.85944  23485879.8754                   23485879.0274
 -29745218.92648 -23162545.69147  20798955.2114                   20798950.9804
 11  8 16  0 59  0.0000000  0  8G17G10G09G12G05G04G25G02
 -25450656.07846 -19819429.24244  23793727.6804                   23793727.0084
 -25583720.81648 -19921532.02346  21146332.5554                   21146330.0434
  -7679380.75446  -5968471.41043  24503370.6484                   24503372.6334
 -22746013.67648 -17709347.58646  21149245.6094                   21149242.8014
 -19567429.07448 -15231982.38746  21456199.3284                   21456197.3014
 -25110914.47747 -19550277.30545  22496883.9304                   22496882.1764
  -5919758.17647  -4597844.50044  23464011.3284                   23464011.4924
 -29759607.03948 -23173757.19947  20796217.1254                   20796212.4384
 11  8 16  0 59 30.0000000  0  8G17G10G09G12G05G04G25G02
 -25415642.35547 -19792145.82844  23800390.7734                   23800389.3324
 -25582499.51247 -19920580.34846  21146565.3134                   21146562.3834
  -7621876.33246  -5923662.84843  24514313.9614                   24514315.8674
 -22809691.81648 -17758966.89846  21137128.2344                   21137125.0044
 -19667220.01648 -15309741.48446  21437209.7584                   21437207.5434
 -25055255.60247 -19506906.72745  22507475.3444                   22507473.5474
  -6034380.72747  -4687160.71545  23442199.5234                   23442199.9534
 -29773746.95748 -23184775.31247  20793526.5634                   20793521.9024
 11  8 16  1  0  0.0000000  0  8G17G10G09G12G05G04G25G02
 -25380441.68047 -19764716.74644  23807089.0394                   23807087.9654
 -25580653.02348 -19919141.51246  21146916.4534                   21146913.8524
  -7564344.23446  -5878832.78543  24525262.3364                   24525263.9304
 -22872838.04348 -17808171.72746  21125111.5864                   21125108.9184
 -19766578.81248 -15387163.87146  21418302.3204                   21418300.3404
 -24999524.55947 -19463479.95345  22518080.7974                   22518079.4184
  -6148699.16847  -4776239.96944  23420445.1094                   23420445.7114
 -29787636.10248 -23195598.02046  20790883.4384                   20790878.9844
 11  8 16  1  0 30.0000000  0  8G17G10G09G12G05G04G25G02
 -25345056.20346 -19737143.62144  23813822.9454                   23813821.4264
 -25578184.97348 -19917218.34046  21147386.1024                   21147383.3524
  -7506790.25846  -5833985.69544  24536214.9534                   24536216.0744
 -22935452.97348 -17856962.56646  21113196.5634                   21113193.5274
 -19865505.44548 -15464249.50046  21399477.1954                   21399474.8014
 -24943725.77047 -19420000.37945  22528699.1804                   22528696.8754
  -6262713.41847  -4865082.19145  23398749.2734                   23398749.6484
 -29801278.00848 -23206228.07046  20788287.2974                   20788282.8754
 11  8 16  1  1  0.0000000  0  8G17G10G09G12G05G04G25G02
 -25309483.43746 -19709424.61344  23820591.8914                   23820591.0474
 -25575094.47347 -19914810.14546  21147974.2664                   21147971.7544
  -7449215.48846  -5789122.34444  24547170.4694                   24547172.8444
 -22997532.63748 -17905336.30546  21101383.0784                   21101379.9694
 -19963995.89848 -15540995.25046  21380734.8594                   21380733.0474
 -24887858.61747 -19376467.51245  22539329.6334                   22539328.2624
  -6376418.54347  -4953683.53545  23377111.8364                   23377112.1454
 -29814672.12948 -23216665.04347  20785738.6564                   20785734.2034
 11  8 16  1  1 30.0000000  0  8G17G10G09G12G05G04G25G02
 -25273724.20346 -19681560.27044  23827397.1484                   23827395.1134
 -25571383.67247 -19911918.59046  21148680.4694                   21148677.8794
  -7391624.16046  -5744246.09443  24558129.0554                   24558131.7624
 -23059076.83648 -17953292.80946  21089671.7194                   21089668.7774
 -20062048.21948 -15617399.59046  21362076.0944                   21362073.8754
 -24831925.74247 -19332883.46145  22549973.8204                   22549972.3444
  -6489813.15647  -5042042.91445  23355533.2424                   23355533.9884
 -29827820.83648 -23226910.78546  20783236.5004                   20783232.2304
 11  8 16  1  2  0.0000000  0  8G17G10G09G12G05G04G25G02
 -25237775.75046 -19653548.52044  23834238.3524                   23834236.1954
 -25567051.43048 -19908542.79346  21149504.1884                   21149502.1994
  -7334017.24646  -5699357.70743  24569092.6414                   24569094.0084
 -23120081.73848 -18000829.07046  21078062.6724                   21078060.1914
 -20159658.12948 -15693459.20746  21343501.4924                   21343499.3244
 -24775926.59447 -19289247.75045  22560629.4844                   22560628.2704
  -6602892.37147  -5130156.56645  23334015.6024                   23334016.3244
 -29840722.91448 -23236964.34847  20780781.5634                   20780776.5594
 11  8 16  1  2 30.0000000  0  8G17G10G09G12G05G04G25G02
 -25201640.97746 -19625391.57044  23841113.6564                   23841112.4264
 -25562101.59848 -19904685.76646  21150446.4534                   21150444.2664
  -7276400.64146  -5654461.76243  24580056.4844                   24580059.0314
 -23180548.44948 -18047945.96546  21066556.2734                   21066553.2854
 -20256826.07448 -15769174.43446  21325011.0784                   21325009.3324
 -24719865.52347 -19245563.80145  22571297.7814                   22571296.3524
  -6715656.32847  -5218024.55545  23312557.0474                   23312557.6054
 -29853382.28948 -23246828.78947  20778372.4844                   20778367.7814
 11  8 16  1  3  0.0000000  0  8G17G10G09G12G05G04G25G02
 -25165318.62546 -19597088.43744  23848025.9694                   23848024.0664
 -25556534.53948 -19900347.78546  21151505.8444                   21151503.4344
  -7218776.83246  -5609560.21943  24591022.1484                   24591023.9694
 -23240474.73448 -18094641.76646  21055152.7894                   21055149.7814
 -20353548.90248 -15844542.80146  21306605.1254                   21306603.3404
 -24663743.15647 -19201832.09445  22581977.5704                   22581976.2304
  -6828101.61747  -5305644.22745  23291159.2194                   23291159.9264
 -29865799.60948 -23256504.60947  20776009.3524                   20776004.9264
 11  8 16  1  3 30.0000000  0  8G17G10G09G12G05G04G25G02
 -25128809.07846 -19568639.42644  23854973.0554                   23854971.8244
 -25550352.60948 -19895530.68446  21152682.0234                   21152679.6914
  -7161149.97346  -5564656.29743  24601987.7504                   24601990.6024
 -23299859.95348 -18140915.94546  21043851.8054                   21043849.6484
 -20449825.20348 -15919563.24246  21288284.0704                   21288282.1564
 -24607562.01647 -19158054.58245  22592668.4384                   22592666.9694
  -6940226.50847  -5393014.22745  23269822.5164                   23269822.5594
 -29877976.88748 -23265993.37946  20773692.1954                   20773687.4534
 11  8 16  1  4  0.0000000  0  8G17G10G09G12G05G04G25G02
 -25092112.77346 -19540044.92644  23861956.7504                   23861955.9774
 -25543557.45347 -19890235.73046  21153975.1954                   21153973.2194
  -7103523.75046  -5519752.85243  24612953.6484                   24612956.0164
 -23358703.14548 -18186767.76246  21032654.2424                   21032651.9064
 -20545652.90248 -15994234.10946  21270048.8204                   21270046.7934
 -24551324.19147 -19114232.89545  22603370.1334                   22603368.5434
  -7052028.82847  -5480132.90245  23248547.7504                   23248547.4654
 -29889915.85248 -23275296.46546  20771420.1024                   20771415.6564
 11  8 16  1  4 30.0000000  0  8G17G10G09G12G05G04G25G02
 -25055226.59846 -19511302.48444  23868976.5474                   23868974.6764
 -25536147.32448 -19884461.59046  21155385.5474                   21155382.7894
  -7045898.14546  -5474849.94943  24623919.8674                   24623921.8164
 -23416999.52048 -18232193.49646  21021561.0784                   21021557.7974
 -20641027.03148 -16068551.55146  21251900.1254                   21251898.1094
 -24495028.23447 -19070365.90245  22614083.1094                   22614081.4654
  -7163503.06647  -5566995.92245  23227334.4384                   23227335.0124
 -29901614.66848 -23284412.41847  20769193.8524                   20769189.7384
 11  8 16  1  5  0.0000000  0  8G17G10G09G12G05G04G25G02
 -25018151.41046 -19482412.74244  23876031.0864                   23876029.7894
 -25528124.59048 -19878210.10246  21156912.0634                   21156910.0744
  -6988277.41846  -5429950.81244  24634885.4534                   24634887.6414
 -23474749.32448 -18277193.34446  21010571.5634                   21010568.0234
 -20735946.05148 -16142514.36346  21233837.1414                   21233834.9654
 -24438676.66847 -19026455.60945  22624806.4844                   22624804.8054
  -7274647.71147  -5653602.10245  23206184.5004                   23206185.1254
 -29913075.82448 -23293343.17646  20767012.8284                   20767008.2234
 11  8 16  1  5 30.0000000  0  8G17G10G09G12G05G04G25G02
 -24980886.14546 -19453374.89544  23883122.1254                   23883121.4344
 -25519489.78148 -19871481.66446  21158555.1804                   21158552.5594
  -6930664.13746  -5385057.48844  24645848.2114                   24645850.8754
 -23531950.32848 -18321765.53946  20999686.3984                   20999683.6484
 -20830407.38748 -16216120.54346  21215861.9384                   21215859.8324
 -24382270.35947 -18982502.64145  22635540.1414                   22635538.4534
  -7385459.49247  -5739948.89845  23185097.4384                   23185098.5274
 -29924299.84448 -23302089.16046  20764877.2114                   20764872.4774
 11  8 16  1  6  0.0000000  0  8G17G10G09G12G05G04G25G02
 -24943430.12146 -19424188.38744  23890250.1954                   23890248.9104
 -25510243.79347 -19864276.99246  21160314.5234                   21160312.2034
  -6873060.83246  -5340171.94543  24656810.3054                   24656812.4184
 -23588600.35548 -18365908.40646  20988906.6884                   20988903.8094
 -20924407.99248 -16289367.71146  21197974.4614                   21197971.8484
 -24325810.20347 -18938507.71945  22646284.2894                   22646282.6414
  -7495935.19547  -5826033.84845  23164074.8984                   23164075.2274
 -29935287.34448 -23310650.83247  20762785.9924                   20762782.0394
 11  8 16  1  6 30.0000000  0  8G17G10G09G12G05G04G25G02
 -24905785.37946 -19394854.77744  23897413.3674                   23897412.5634
 -25500390.55948 -19856599.12946  21162189.6564                   21162187.0824
  -6815473.03946  -5295298.45743  24667769.2504                   24667771.7344
 -23644700.64548 -18409622.90646  20978230.5864                   20978227.8134
 -21017948.23448 -16362256.15246  21180173.9454                   21180171.8914
 -24269300.24247 -18894473.99245  22657037.6884                   22657036.5434
  -7606074.82847  -5911856.89145  23143115.7584                   23143116.7734
 -29946042.14848 -23319031.18046  20760739.7504                   20760735.0634
 11  8 16  1  7  0.0000000  0  8G17G10G09G12G05G04G25G02
 -24867951.06247 -19365373.46544  23904613.2504                   23904611.8954
 -25489930.70348 -19848448.57446  21164179.9924                   21164177.7734
  -6757903.13746  -5250438.89843  24678723.9384                   24678726.9884
 -23700248.82848 -18452907.18746  20967660.3984                   20967657.4884
 -21111025.11748 -16434783.53546  21162462.0864                   21162459.5704
 -24212741.06647 -18850401.91445  22667800.3914                   22667799.2704
  -7715874.84047  -5997415.30545  23122221.4064                   23122222.0784
 -29956564.84048 -23327230.66446  20758737.1334                   20758732.9064
 11  8 16  1  7 30.0000000  0  8G17G10G09G12G05G04G25G02
 -24829926.84047 -19335744.19544  23911849.3134                   23911847.7424
 -25478865.40648 -19839826.25846  21166285.4534                   21166283.1724
  -6700354.20746  -5205595.74243  24689675.3524                   24689678.1334
 -23755243.58648 -18495760.23446  20957195.5474                   20957191.9654
 -21203636.41048 -16506948.12146  21144838.5554                   21144836.3094
 -24156134.37147 -18806292.80545  22678572.0084                   22678570.7344
  -7825332.67647  -6082707.07045  23101392.3914                   23101392.6994
 -29966856.34448 -23335250.00447  20756778.9694                   20756774.0554
 11  8 16  1  8  0.0000000  0  8G17G10G09G12G05G04G25G02
 -24791712.44547 -19305966.73444  23919121.2194                   23919120.0824
 -25467195.98448 -19830733.18746  21168506.3754                   21168503.8094
  -6642829.10246  -5160771.10943  24700622.1884                   24700623.6524
 -23809683.72348 -18538181.10546  20946835.8054                   20946832.9844
 -21295779.42648 -16578747.81246  21127304.3444                   21127302.3524
 -24099481.08247 -18762147.39544  22689353.0314                   22689351.8914
  -7934445.53947  -6167730.03145  23080629.1414                   23080629.3874
 -29976917.75448 -23343090.04746  20754864.1414                   20754859.9184
 11  8 16  1  8 30.0000000  0  8G17G10G09G12G05G04G25G02
 -24753306.63747 -19276040.14144  23926429.7114                   23926428.4144
 -25454923.53548 -19821170.22746  21170841.9534                   21170839.2384
  -6585330.05146  -5115966.73443  24711563.9614                   24711566.2074
 -23863566.89548 -18580167.97746  20936582.3054                   20936579.2344
 -21387451.26248 -16650180.35246  21109859.6334                   21109857.3594
 -24042782.14547 -18717966.41445  22700142.7814                   22700141.4774
  -8043210.09447  -6252481.58645  23059931.6644                   23059931.7774
 -29986749.46948 -23350751.10946  20752993.2344                   20752988.7894
 11  8 16  1  9  0.0000000  0  8G17G10G09G12G05G04G25G02
 -24714707.36747 -19245962.75844  23933774.2194                   23933773.5864
 -25442047.13348 -19811136.66046  21173291.9384                   21173289.6334
  -6527858.02746  -5071183.46543  24722500.8444                   24722502.9734
 -23916889.75848 -18621718.23846  20926435.1564                   20926432.3134
 -21478647.96948 -16721242.67246  21092505.5004                   21092503.1884
 -23986036.76247 -18673749.25045  22710940.7424                   22710939.5434
  -8151621.66447  -6336958.08645  23039301.5944                   23039301.9064
 -29996350.77348 -23358232.63346  20751165.8914                   20751161.7274
 11  8 16  1  9 30.0000000  0  8G17G10G09G12G05G04G25G02
 -24675918.64546 -19215737.76644  23941156.2194                   23941154.3554
 -25428572.23848 -19800636.73046  21175856.2894                   21175853.6524
  -6470420.25046  -5026426.89143  24733430.5314                   24733433.3834
 -23969655.22748 -18662834.17246  20916393.8834                   20916390.9144
 -21569371.56648 -16791936.33246  21075241.3914                   21075238.8524
 -23929250.48847 -18629500.19945  22721746.8444                   22721745.6134
  -8259681.93047  -6421160.83645  23018738.1644                   23018738.8284
 -30005727.06648 -23365538.82446  20749382.2114                   20749377.5664
 11  8 16  1 10  0.0000000  0  8G17G10G09G12G05G04G25G02
 -24636940.72746 -19185365.33244  23948572.0704                   23948571.8554
 -25414501.18448 -19789672.25046  21178533.5474                   21178531.3484
  -6413020.52746  -4981699.99243  24744354.1564                   24744356.1764
 -24021862.21948 -18703514.93046  20906459.3834                   20906456.3244
 -21659620.49248 -16862260.11346  21058067.7734                   21058065.4224
 -23872425.35947 -18585220.89545  22732560.1094                   22732559.4414
  -8367388.80947  -6505088.24645  22998242.5004                   22998242.4304
 -30014879.94148 -23372670.92246  20747640.3054                   20747635.6884
 11  8 16  1 10 30.0000000  0  8G17G10G09G12G05G04G25G02
 -24597770.25846 -19154842.87544  23956027.1484                   23956025.2464
 -25399832.27348 -19778241.92246  21181325.2424                   21181322.9964
  -6355658.90246  -4937002.78942  24755269.6724                   24755271.7664
 -24073507.02048 -18743757.60946  20896631.6884                   20896628.5634
 -21749389.11748 -16932209.62946  21040985.1484                   21040982.5004
 -23815559.53947 -18540909.87944  22743381.3754                   22743380.5274
  -8474736.60547  -6588735.82445  22977814.7664                   22977815.4534
 -30023807.52048 -23379627.47346  20745941.2974                   20745936.6374
 11  8 16  1 11  0.0000000  0  8G17G10G09G12G05G04G25G02
 -24558408.39846 -19124171.26644  23963517.1334                   23963515.6954
 -25384568.43048 -19766348.00846  21184229.7504                   21184227.3284
  -6298339.34846  -4892338.35242  24766176.9844                   24766179.2974
 -24124589.71948 -18783562.28946  20886911.0784                   20886908.0704
 -21838677.14848 -17001784.66846  21023994.3674                   21023991.8094
 -23758655.91447 -18496569.38345  22754209.8594                   22754208.6174
  -8581724.15247  -6672102.68745  22957455.4924                   22957456.1914
 -30032512.49248 -23386410.55547  20744284.8914                   20744280.4774
 11  8 16  1 11 30.0000000  0  8G17G10G09G12G05G04G25G02
 -24518854.43746 -19093349.97744  23971043.3674                   23971042.4734
 -25368710.66448 -19753991.29746  21187247.4774                   21187245.1024
  -6241064.64546  -4847708.84843  24777076.0084                   24777077.9884
 -24175108.24648 -18822927.35246  20877297.7664                   20877294.6454
 -21927481.32448 -17070982.67246  21007095.1564                   21007092.5314
 -23701715.25847 -18452200.03544  22765044.8134                   22765044.1524
  -8688348.10947  -6755186.25445  22937165.3134                   22937166.6884
 -30040995.38348 -23393020.59447  20742670.8054                   20742666.3364
 11  8 16  1 12  0.0000000  0  8G17G10G09G12G05G04G25G02
 -24479109.77746 -19062380.10944  23978607.4384                   23978606.4844
 -25352262.66448 -19741174.65646  21190377.3674                   21190374.9534
  -6183839.33246  -4803117.85243  24787966.2504                   24787968.0314
 -24225063.07048 -18861853.16446  20867791.2424                   20867788.1914
 -22015801.70348 -17139803.69146  20990288.4144                   20990286.0434
 -23644740.54347 -18407804.16045  22775887.3754                   22775886.2114
  -8794607.75447  -6837985.92645  22916945.0784                   22916945.3014
 -30049258.86348 -23399459.65246  20741098.1174                   20741093.3554
 11  8 16  1 12 30.0000000  0  8G17G10G09G12G05G04G25G02
 -24439174.26646 -19031261.48844  23986206.8834                   23986204.6334
 -25335225.70748 -19727899.10246  21193619.4534                   21193616.6954
  -6126666.50446  -4758567.72743  24798845.1884                   24798848.5434
 -24274453.33248 -18900339.06646  20858392.9144                   20858389.5634
 -22103636.10548 -17208246.02746  20973574.3054                   20973571.4734
 -23587733.09847 -18363382.77744  22786735.7504                   22786734.2074
  -8900500.41047  -6920499.63345  22896794.2734                   22896794.6374
 -30057304.50048 -23405728.97746  20739567.2194                   20739562.6724
 11  8 16  1 13  0.0000000  0  8G17G10G09G12G05G04G25G02
 -24399047.10346 -18999993.62943  23993842.8134                   23993840.9694
 -25317601.02348 -19714165.57046  21196973.2034                   21196970.6954
  -6069548.71146  -4714060.48042  24809714.7894                   24809717.7584
 -24323277.27348 -18938383.67646  20849101.7974                   20849098.9884
 -22190982.07448 -17276307.76246  20956952.5164                   20956950.3014
 -23530693.85247 -18318936.62144  22797589.8984                   22797588.3484
  -9006023.24247  -7002725.16845  22876713.8364                   22876714.5394
 -30065132.82848 -23411828.96146  20738077.1414                   20738072.8404
 11  8 16  1 13 30.0000000  0  8G17G10G09G12G05G04G25G02
 -24358726.77046 -18968575.07843  24001515.1804                   24001513.1334
 -25299388.53148 -19699974.00446  21200438.9534                   21200436.3834
  -6012486.91846  -4669596.88743  24820573.6094                   24820575.3714
 -24371531.73048 -18975984.52746  20839919.4064                   20839916.7114
 -22277835.65248 -17343985.83246  20940424.7344                   20940422.2774
 -23473622.42647 -18274465.37944  22808450.1954                   22808448.7734
  -9111171.78148  -7084659.05145  22856704.8054                   22856704.9694
 -30072743.14548 -23417759.06646  20736629.0784                   20736624.4384
 11  8 16  1 14  0.0000000  0  8G17G10G09G12G05G04G25G02
 -24318213.52746 -18937006.28544  24009224.4454                   24009223.0784
 -25280590.68448 -19685326.32446  21204015.7584                   21204013.3554
  -5955484.75446  -4625179.71943  24831420.3444                   24831423.8284
 -24419216.59048 -19013141.53546  20830845.2814                   20830842.3524
 -22364195.60247 -17411279.23846  20923991.0474                   20923989.0124
 -23416520.49247 -18229970.36344  22819316.4694                   22819315.0944
  -9215944.09447  -7166299.77745  22836767.3364                   22836767.9414
 -30080137.16448 -23423520.62147  20735221.9614                   20735217.1804
 11  8 16  1 14 30.0000000  0  8G17G10G09G12G05G04G25G02
 -24277508.41046 -18905288.04144  24016969.8284                   24016969.3324
 -25261210.37148 -19670224.77746  21207703.8674                   21207701.8754
  -5898546.41446  -4580812.31643  24842255.7814                   24842258.9024
 -24466332.04748 -19049854.85946  20821879.6024                   20821876.6484
 -22450060.92647 -17478187.23046  20907651.3834                   20907648.8364
 -23359390.62147 -18185453.58244  22830187.5234                   22830185.8674
  -9320338.90647  -7247646.35245  22816901.4534                   22816901.5744
 -30087317.59048 -23429115.75446  20733855.4064                   20733851.4064
 11  8 16  1 15  0.0000000  0  8G17G10G09G12G05G04G25G02
 -24236610.46547 -18873419.43744  24024753.3754                   24024752.0514
 -25241248.32848 -19654669.92646  21211502.7034                   21211500.0784
  -5841673.84446  -4536496.17643  24853079.0234                   24853080.3754
 -24512876.05548 -19086122.91446  20813022.4694                   20813019.3164
 -22535428.85948 -17544707.64546  20891406.2114                   20891404.2464
 -23302233.41047 -18140915.47744  22841064.9224                   22841063.0084
  -9424352.71947  -7328696.02745  22797108.3054                   22797108.2114
 -30094284.64548 -23434544.61346  20732529.7814                   20732525.2624
 11  8 16  1 15 30.0000000  0  7G17G10G12G05G04G25G02
 -24195516.95347 -18841398.49244  24032572.2114                   24032571.3404
 -25220703.87148 -19638661.25446  21215411.8594                   21215409.6094
 -24558845.02348 -19121942.87546  20804274.8134                   20804272.1334
 -22620294.93448 -17610837.00447  20875256.6724                   20875254.4924
 -23245047.47747 -18096355.00844  22851946.2894                   22851945.0784
  -9527980.54347  -7409444.94945  22777388.8134                   22777388.5044
 -30101036.78948 -23439806.01646  20731245.0164                   20731240.6914
 11  8 16  1 16  0.0000000  0  7G17G10G12G05G04G25G02
 -24154228.07047 -18809225.28544  24040430.4454                   24040428.9734
 -25199579.12148 -19622200.39546  21219431.8834                   21219429.2274
 -24604238.47748 -19157314.37546  20795636.5084                   20795633.8984
 -22704657.75848 -17676574.21546  20859203.2584                   20859200.3834
 -23187834.37547 -18051773.37544  22862834.1414                   22862831.7344
  -9631220.31247  -7489891.48845  22757742.4924                   22757742.6094
 -30107575.66448 -23444901.23046  20730000.4304                   20729996.2344
 11  8 16  1 16 30.0000000  0  7G17G10G12G05G04G25G02
 -24112736.50446 -18776894.18744  24048325.3204                   24048324.1294
 -25177868.46948 -19605282.99246  21223563.7034                   21223560.9024
 -24649047.84048 -19192230.75447  20787109.8984                   20787106.7734
 -22788507.93748 -17741911.96146  20843246.8364                   20843244.5784
 -23130588.05947 -18007165.85544  22873727.4454                   22873725.0864
  -9734062.07047  -7570027.89145  22738173.1254                   22738172.5864
 -30113895.49648 -23449825.75846  20728798.0784                   20728793.7464
 11  8 16  1 17  0.0000000  0  7G17G10G12G05G04G25G02
 -24071040.30946 -18744403.60944  24056259.7274                   24056258.1484
 -25155572.30147 -19587909.34446  21227806.0474                   21227803.6994
 -24693270.76248 -19226690.15646  20778694.4064                   20778691.4344
 -22871841.86348 -17806847.43746  20827388.8984                   20827386.6174
 -23073308.13747 -17962532.14544  22884627.3204                   22884625.7034
  -9836501.66447  -7649850.91445  22718679.3674                   22718678.5664
 -30119995.08248 -23454578.67247  20727637.2974                   20727632.5554
 11  8 16  1 17 30.0000000  0  7G17G10G12G05G04G25G02
 -24029140.35947 -18711754.28144  24064232.9144                   24064232.4774
 -25132693.34047 -19570081.56646  21232160.0164                   21232157.4304
 -24736907.09048 -19260692.48046  20770390.4774                   20770387.2074
 -22954658.43048 -17871379.76646  20811629.2974                   20811627.0314
 -23015996.77047 -17917873.94544  22895532.8524                   22895532.8094
  -9938537.38747  -7729359.23845  22699262.4614                   22699262.4384
 -30125876.57048 -23459161.64146  20726518.1954                   20726513.5664
 11  8 16  1 18  0.0000000  0  7G17G10G12G05G04G25G02
 -23987042.55946 -18678950.73044  24072244.3054                   24072242.9184
 -25109239.24647 -19551805.63746  21236623.1094                   21236620.4304
 -24779961.97748 -19294241.72746  20762197.7734                   20762194.5234
 -23036961.91048 -17935512.30147  20795967.5084                   20795965.1564
 -22958661.28147 -17873196.93744  22906443.9614                   22906442.7114
 -10040172.82847  -7808555.64845  22679921.8284                   22679922.1374
 -30131547.50848 -23463580.53946  20725438.8594                   20725434.3054
 11  8 16  1 18 30.0000000  0  7G17G10G12G05G04G25G02
 -23944745.57446 -18645992.05144  24080293.2344                   24080292.0824
 -25085210.93748 -19533082.26646  21241195.6644                   21241193.3364
 -24822433.39148 -19327336.32846  20754115.4144                   20754112.9144
 -23118749.18748 -17999242.59446  20780404.0474                   20780401.5704
 -22901301.50447 -17828501.00044  22917358.9614                   22917357.2624
 -10141404.33647  -7887437.30145  22660657.7274                   22660657.8554
 -30137007.79748 -23467835.29746  20724399.8204                   20724395.2974
 11  8 16  1 19  0.0000000  0  7G17G10G12G05G04G25G02
 -23902251.38747 -18612879.64844  24088379.2034                   24088378.0124
 -25060612.09448 -19513914.32046  21245876.4384                   21245873.9884
 -24864322.23848 -19359976.96947  20746144.4844                   20746141.5354
 -23200019.89848 -18062570.36746  20764938.3834                   20764936.2154
 -22843920.51247 -17783788.55544  22928278.6094                   22928277.3134
 -10242231.28547  -7966003.72345  22641471.4224                   22641471.0864
 -30142260.29348 -23471928.14146  20723400.5164                   20723395.8204
 11  8 16  1 19 30.0000000  0  7G17G10G12G05G04G25G02
 -23859560.89147 -18579614.30144  24096503.2664                   24096502.3914
 -25035446.20747 -19494304.52346  21250665.3284                   21250662.8324
 -24905629.00048 -19392164.05146  20738284.1174                   20738281.1484
 -23280774.48048 -18125495.96146  20749571.4844                   20749568.9804
 -22786520.86747 -17739061.57844  22939201.3834                   22939200.1454
 -10342652.53147  -8044254.00845  22622361.7974                   22622361.7464
 -30147307.42648 -23475860.96146  20722440.0474                   20722435.6604
 11  8 16  1 20  0.0000000  0  7G17G10G12G05G04G25G02
 -23816673.33646 -18546195.36743  24104664.1724                   24104662.4304
 -25009714.02047 -19474253.45346  21255561.9064                   21255559.8834
 -24946352.12548 -19423896.34046  20730534.3834                   20730531.2934
 -23361009.70748 -18188016.87146  20734303.0234                   20734300.5664
 -22729102.72747 -17694320.16044  22950127.6484                   22950125.7234
 -10442664.59847  -8122185.44545  22603329.9774                   22603329.4964
 -30152149.57448 -23479634.05546  20721518.7734                   20721514.4224
 11  8 16  1 20 30.0000000  0  7G17G10G12G05G04G25G02
 -23773590.71946 -18512624.46543  24112863.0394                   24112860.7034
 -24983419.42247 -19453764.14546  21260565.6094                   21260563.2034
 -24986492.62548 -19455174.62946  20722895.9774                   20722893.2774
 -23440725.84048 -18250133.29346  20719133.7974                   20719131.0044
 -22671669.37547 -17649566.90244  22961056.9694                   22961054.9694
 -10542267.17647  -8199797.82045  22584376.0234                   22584375.6414
 -30156789.78148 -23483249.79746  20720635.5314                   20720630.6054
 11  8 16  1 21  0.0000000  0  7G17G10G12G05G04G25G02
 -23730315.14846 -18478903.19943  24121098.0784                   24121096.1454
 -24956566.80547 -19432840.01646  21265675.5554                   21265673.2234
 -25026052.21948 -19486000.26246  20715368.5314                   20715365.4184
 -23519923.23048 -18311845.49246  20704062.8834                   20704060.6214
 -22614224.21547 -17604804.43744  22971988.4224                   22971987.5164
 -10641459.98048  -8277090.88745  22565500.2894                   22565500.2664
 -30161231.42648 -23486710.79346  20719790.3914                   20719785.7544
 11  8 16  1 21 30.0000000  0  7G17G10G12G05G04G25G02
 -23686845.98446 -18445031.12543  24129369.4064                   24129368.0904
 -24929157.50847 -19411482.10546  21270891.2114                   21270889.0004
 -25065029.03148 -19516371.79346  20707951.2504                   20707948.2194
 -23598599.56648 -18373151.68747  20689091.3444                   20689088.3794
 -22556767.61347 -17560033.03144  22982922.0234                   22982920.2384
 -10740239.89847  -8354062.21545  22546702.9694                   22546703.4614
 -30165475.30948 -23490017.70746  20718982.5394                   20718978.0084
 11  8 16  1 22  0.0000000  0  7G17G10G12G05G04G25G02
 -23643184.00046 -18411008.78143  24137677.6954                   24137676.4694
 -24901194.94947 -19389693.09446  21276212.6094                   21276209.9924
 -25103423.58248 -19546289.60246  20700644.7114                   20700642.1024
 -23676754.39848 -18434051.50446  20674218.8204                   20674216.2774
 -22499301.73847 -17515254.41044  22993857.1174                   22993855.5474
 -10838605.59048  -8430710.79345  22527984.9774                   22527984.8054
 -30169523.03948 -23493171.77746  20718212.1254                   20718207.8594
 11  8 16  1 22 30.0000000  0  7G17G10G12G05G04G25G02
 -23599327.27746 -18376834.70343  24146024.0234                   24146021.9884
 -24872679.15648 -19367472.98846  21281639.1804                   21281636.5354
 -25141233.62548 -19575751.95747  20693449.9774                   20693447.1054
 -23754383.86348 -18494541.95346  20659446.5234                   20659443.6804
 -22441826.05947 -17470468.17644  23004794.2504                   23004792.4574
 -10936552.74247  -8507033.22745  22509346.0234                   22509346.6294
 -30173374.14848 -23496172.62546  20717479.4064                   20717474.4574
 11  8 16  1 23  0.0000000  0  7G17G10G12G05G04G25G02
 -23555274.71146 -18342508.02743  24154406.9384                   24154404.9534
 -24843610.69548 -19344822.22746  21287170.7034                   21287168.4304
 -25178456.92248 -19604757.09446  20686366.5704                   20686363.6604
 -23831484.90648 -18554620.64847  20644774.4924                   20644772.1804
 -22384340.25846 -17425674.03144  23015733.4384                   23015731.9884
 -11034077.57047  -8583026.57045  22490787.5634                   22490787.6094
 -30177028.27348 -23499019.97746  20716783.7814                   20716779.5704
 11  8 16  1 23 30.0000000  0  7G17G10G12G05G04G25G02
 -23511028.96946 -18308030.76643  24162826.6644                   24162825.0864
 -24813994.44548 -19321744.62946  21292806.1174                   21292803.9184
 -25215095.68448 -19633306.76646  20679394.0314                   20679391.0634
 -23908059.00048 -18614288.72746  20630202.7344                   20630200.4694
 -22326848.28547 -17380875.09444  23026674.2274                   23026672.0904
 -11131180.61747  -8658691.25045  22472309.3674                   22472309.7974
 -30180489.46548 -23501716.99646  20716125.2974                   20716121.1994
 11  8 16  1 24  0.0000000  0  7G17G10G12G05G04G25G02
 -23466588.97746 -18273402.21143  24171283.3834                   24171281.6804
 -24783831.82847 -19298241.28146  21298545.6174                   21298543.5164
 -25251148.64148 -19661399.95347  20672533.4144                   20672530.4964
 -23984103.65248 -18673544.24646  20615732.0864                   20615729.4414
 -22269350.16446 -17336071.37144  23037615.6644                   23037614.6024
 -11227858.54747  -8734024.64845  22453912.2584                   22453912.0864
 -30183757.94148 -23504263.82846  20715503.4844                   20715499.1254
 11  8 16  1 24 30.0000000  0  7G17G10G12G05G04G25G02
 -23421954.19146 -18238621.84043  24179777.5084                   24179775.4024
 -24753124.10548 -19274313.17646  21304389.7814                   21304387.2154
 -25286614.09848 -19689035.35547  20665784.8524                   20665781.8634
 -24059616.22348 -18732385.16846  20601362.0474                   20601359.6884
 -22211846.31646 -17291263.19944  23048557.5704                   23048557.4264
 -11324108.07447  -8809024.23445  22435596.8594                   22435596.7934
 -30186833.92248 -23506660.68746  20714917.7734                   20714913.3554
 11  8 16  1 25  0.0000000  0  8G17G10G29G12G05G04G25G02
 -23377126.41046 -18203690.99643  24188307.5164                   24188306.1484
 -24721875.01648 -19249963.22345  21310335.4694                   21310333.1294
   2996544.05515                  24543133.656
 -25321493.20748 -19716213.86747  20659147.7584                   20659144.5784
 -24134596.82848 -18790811.55947  20587094.0474                   20587091.5354
 -22154339.46547 -17246452.69144  23059501.6564                   23059499.9024
 -11419928.60947  -8883689.56645  22417362.8754                   22417362.2584
 -30189720.24248 -23508909.74646  20714368.7734                   20714363.9654
 11  8 16  1 25 30.0000000  0  8G17G10G29G12G05G04G25G02
 -23332112.67246 -18168615.32843  24196872.4924                   24196870.6524
 -24690094.33247 -19225199.04346  21316383.6254                   21316380.9224
   2891945.04315                  24523229.156
 -25355793.00848 -19742940.96146  20652620.4224                   20652617.4694
 -24209051.39148 -18848828.07046  20572925.6414                   20572923.3404
 -22096838.03947 -17201646.37544  23070443.7114                   23070442.3834
 -11515325.19547  -8958024.53945  22399209.1564                   22399208.7194
 -30192425.59047 -23511017.80546  20713854.2814                   20713849.4064
 11  8 16  1 26  0.0000000  0  8G17G10G29G12G05G04G25G02
 -23286917.72346 -18133398.43444  24205472.8054                   24205471.0944
 -24657788.78948 -19200025.88745  21322531.1254                   21322528.8674
   2787266.00445   2184134.81352  24503308.7344                   24503308.4494
 -25389517.42647 -19769219.70747  20646202.8674                   20646199.9414
 -24282982.68748 -18906436.82447  20558856.8284                   20558854.2894
 -22039347.90647 -17156848.88344  23081383.8204                   23081381.8874
 -11610300.09447  -9032030.92245  22381135.9064                   22381135.6524
 -30194955.27747 -23512988.96946  20713372.5234                   20713367.9104
 11  8 16  1 26 30.0000000  0  8G17G10G29G12G05G04G25G02
 -23241538.94946 -18098038.31643  24214108.8444                   24214106.9574
 -24624957.44148 -19174443.02046  21328778.8444                   21328776.1604
   2682509.91445   2102506.88742  24483374.4454                   24483373.5274
 -25422663.12148 -19795047.50847  20639895.2344                   20639892.3754
 -24356386.69948 -18963634.71947  20544888.8834                   20544886.1054
 -21981867.09447 -17112058.63344  23092322.1254                   23092319.8714
 -11704848.04347  -9105704.60945  22363144.0784                   22363144.1254
 -30197307.70347 -23514822.02046  20712924.7974                   20712920.6564
 11  8 16  1 27  0.0000000  0  8G17G10G29G12G05G04G25G02
 -23195972.16846 -18062531.68744  24222779.8054                   24222777.3794
 -24591598.43047 -19148448.95746  21335126.6724                   21335123.9694
   2577682.25046   2020823.07042  24463426.5314                   24463424.8634
 -25455225.75447 -19820420.96546  20633698.7424                   20633696.2624
 -24429257.83648 -19020417.37547  20531021.9534                   20531019.1684
 -21924392.45746 -17067273.18444  23103259.1174                   23103257.0164
 -11798962.56247  -9179040.55546  22345234.6254                   22345234.6454
 -30199480.16848 -23516514.82846  20712511.7894                   20712506.7854
 11  8 16  1 27 30.0000000  0  8G17G10G29G12G05G04G25G02
 -23150214.04746 -18026875.98043  24231486.6484                   24231485.0704
 -24557711.03147 -19122043.18446  21341575.5314                   21341572.7854
   2472786.50446   1939086.24643  24443465.6174                   24443464.0004
 -25487201.42648 -19845337.05147  20627614.0704                   20627611.1024
 -24501590.99248 -19076780.82846  20517257.1724                   20517254.6724
 -21866921.64546 -17022490.71944  23114194.9304                   23114193.6724
 -11892638.20747  -9252034.52346  22327408.8914                   22327409.3164
 -30201469.99648 -23518065.33246  20712132.9534                   20712128.3134
 11  8 16  1 28  0.0000000  0  8G17G10G29G12G05G04G25G02
 -23104266.00846 -17991072.26243  24240230.7114                   24240228.5354
 -24523298.89148 -19095228.51245  21348123.9924                   21348120.8594
   2367821.68046   1857295.54343  24423491.5944                   24423490.0354
 -25518590.97348 -19869796.41847  20621640.9064                   20621637.7504
 -24573386.49248 -19132725.34047  20503595.1954                   20503592.5824
 -21809457.41446 -16977713.36344  23125130.2584                   23125127.8954
 -11985874.06647  -9324685.79345  22309666.6484                   22309666.7194
 -30203280.00848 -23519475.71946  20711788.5084                   20711783.7704
 11  8 16  1 28 30.0000000  0  8G17G10G29G12G05G04G25G02
 -23058127.57046 -17955120.17243  24249010.5554                   24249008.2544
 -24488363.53547 -19068006.14845  21354771.6414                   21354769.2034
   2262788.85246   1775451.91843  24403504.5634                   24403503.4144
 -25549393.67248 -19893798.51246  20615779.5554                   20615776.1454
 -24644642.24648 -19188249.25447  20490035.5234                   20490032.6804
 -21751999.93046 -16932941.28144  23136063.8674                   23136061.7344
 -12078667.22747  -9396992.10945  22292008.5234                   22292008.1334
 -30204910.72347 -23520746.39546  20711477.9614                   20711473.3484
 11  8 16  1 29  0.0000000  0  8G17G10G29G12G05G04G25G02
 -23011795.95746 -17919017.58243  24257826.8674                   24257825.9224
 -24452904.17247 -19040375.46945  21361519.4844                   21361516.2734
   2157691.69546   1693558.16042  24383504.8594                   24383503.3444
 -25579605.67648 -19917340.31646  20610030.6024                   20610027.2704
 -24715353.66448 -19243349.01647  20476579.3284                   20476577.0434
 -21694547.27346 -16888172.96943  23146996.1804                   23146995.2704
 -12171012.30147  -9468949.27345  22274435.6884                   22274435.6914
 -30206359.92648 -23521875.64546  20711202.3754                   20711197.7974
 11  8 16  1 29 30.0000000  0  8G17G10G29G12G05G04G25G02
 -22965274.83646 -17882767.31644  24266679.4844                   24266677.7624
 -24416926.75047 -19012341.09845  21368365.4384                   21368363.1054
   2052527.27346   1611611.92642  24363493.0234                   24363490.0824
 -25609231.15648 -19940425.09446  20604392.7274                   20604389.8874
 -24785523.02348 -19298026.40247  20463226.7034                   20463223.8554
 -21637103.96146 -16843411.96944  23157927.3984                   23157926.2504
 -12262910.71147  -9540558.39145  22256948.1724                   22256947.3594
 -30207632.35948 -23522867.12946  20710960.3524                   20710955.5204
 11  8 16  1 30  0.0000000  0  8G17G10G29G12G05G04G25G02
 -21343143.13346 -16618768.56244  24575361.0474                   24575359.8324
 -22805012.09447 -17756303.71545  21675102.8754                   21675100.1724
   3522722.13346   2757218.41843  24643261.1414                   24643258.8554
 -24062845.67248 -18735449.36746  20898660.0234                   20898656.9574
 -23279723.94148 -18124676.43447  20749770.7424                   20749768.0394
 -20004250.14546 -15571058.33244  23468649.4224                   23468648.2194
 -10778934.54347  -8384213.29345  22539339.4064                   22539339.1024
 -28633306.54348 -22296119.73446  21010544.6484                   21010539.8484
 11  8 16  1 30 30.0000000  0  8G17G10G29G12G05G04G25G02
 -21296237.38746 -16582218.63344  24584287.0234                   24584285.6644
 -22767999.91847 -17727463.04746  21682146.3524                   21682143.3484
   3417430.14546   2675172.85243  24623224.8524                   24623223.4924
 -24091290.51648 -18757614.16046  20893247.1414                   20893244.0554
 -23348799.24648 -18178501.30547  20736626.2344                   20736623.2974
 -19946822.75446 -15526309.75444  23479577.5234                   23479576.6804
 -10869927.18447  -8455116.59845  22522023.7344                   22522023.8634
 -28634222.96948 -22296833.82446  21010370.0554                   21010365.7384
 11  8 16  1 31  0.0000000  0  8G17G10G29G12G05G04G25G02
 -21249140.05946 -16545519.37143  24593248.0944                   24593247.3244
 -22730474.32048 -17698222.31646  21689286.8834                   21689284.5634
   3312074.87546   2593077.95743  24603176.0864                   24603175.4494
 -24119145.10548 -18779319.02346  20887946.4924                   20887943.1524
 -23417326.23448 -18231898.91047  20723585.5004                   20723582.9924
 -19889405.54347 -15481569.06644  23490503.7034                   23490502.6174
 -10960464.05547  -8525664.77045  22504795.4454                   22504795.3324
 -28634963.55948 -22297410.89146  21010229.1094                   21010224.4534
 11  8 16  1 31 30.0000000  0  8G17G10G29G12G05G04G25G02
 -21201848.45746 -16508668.77743  24602249.4614                   24602247.2894
 -22692435.25448 -17668581.48045  21696525.4144                   21696523.4264
   3206659.62546   2510936.24243  24583116.0394                   24583114.9064
 -24146406.55948 -18800561.69147  20882758.9064                   20882755.7704
 -23485300.84448 -18284866.10547  20710650.3834                   20710647.7234
 -19831996.40247 -15436834.68444  23501428.4534                   23501427.1804
 -11050540.37947  -8595854.07045  22487654.6024                   22487654.4344
 -28635526.61348 -22297849.61746  21010121.7734                   21010117.3204
 11  8 16  1 32  0.0000000  0  8G17G10G29G12G05G04G25G02
 -21154364.47346 -16471668.21943  24611284.8594                   24611282.3834
 -22653886.72348 -17638543.65245  21703861.2344                   21703858.6844
   3101183.08646   2428746.80543  24563044.3834                   24563043.3204
 -24173076.13348 -18821343.15646  20877683.8674                   20877680.4184
 -23552723.67648 -18337403.33647  20697820.5704                   20697817.8674
 -19774598.14547 -15392108.75444  23512350.8594                   23512349.9104
 -11140155.61347  -8665684.07446  22470600.8524                   22470601.2304
 -28635915.05948 -22298152.28546  21010047.9774                   21010043.7894
 11  8 16  1 32 30.0000000  0  8G17G10G29G12G05G04G25G02
 -21106688.95746 -16434518.46143  24620357.2974                   24620354.4574
 -22614831.80148 -17608111.23445  21711292.7114                   21711290.1254
   2995645.03946   2346509.41843  24542961.0394                   24542959.7854
 -24199154.83248 -18841664.20747  20872721.0474                   20872718.2384
 -23619594.00848 -18389510.05547  20685095.7424                   20685092.8094
 -19717212.46547 -15347392.66444  23523271.8134                   23523270.0434
 -11229308.34047  -8735153.69946  22453635.9384                   22453635.2854
 -28636130.43448 -22298320.10946  21010007.3054                   21010002.5084
 11  8 16  1 33  0.0000000  0  7G10G29G12G05G04G25G02
 -22575271.75847 -17577285.23045  21718821.1564                   21718818.4654
   2890047.60546   2264225.74243  24522866.9064                   24522866.5784
 -24224641.48048 -18861523.91847  20867871.4224                   20867868.3484
 -23685909.52048 -18441184.44147  20672476.0164                   20672473.4104
 -19659838.95347 -15302686.00044  23534188.8834                   23534187.2734
 -11317995.13747  -8804260.27745  22436759.1724                   22436759.2894
 -28636172.85548 -22298353.14846  21009999.2194                   21009994.4304
 11  8 16  1 33 30.0000000  0  7G10G29G12G05G04G25G02
 -22535209.34848 -17546067.77045  21726444.6254                   21726441.8014
   2784391.37946   2181896.30143  24502761.2424                   24502759.8134
 -24249535.05948 -18880921.49247  20863134.4924                   20863130.7624
 -23751669.10248 -18492425.63747  20659962.2894                   20659959.4414
 -19602478.71947 -15257989.70744  23545104.0474                   23545102.8484
 -11406214.07047  -8873002.25045  22419971.7034                   22419971.6174
 -28636043.19548 -22298252.10246  21010023.5864                   21010018.9924
 11  8 16  1 34  0.0000000  0  7G10G29G12G05G04G25G02
 -22494639.86348 -17514455.18045  21734164.4534                   21734162.0704
   2678683.59446   2099526.61743  24482645.8984                   24482643.9614
 -24273830.00848 -18899852.60946  20858510.9694                   20858507.7304
 -23816864.82048 -18543227.44947  20647556.0944                   20647552.7934
 -19545126.04347 -15213299.31244  23556017.8754                   23556016.5164
 -11493956.13348  -8941372.66045  22403275.3204                   22403274.7464
 -28635736.03948 -22298012.74246  21010082.2664                   21010077.6094
 11  8 16  1 34 30.0000000  0  7G10G29G12G05G04G25G02
 -22453562.85947 -17482447.12145  21741981.1414                   21741978.9184
   2572927.96146   2017119.70343  24462520.6414                   24462519.4574
 -24297522.75047 -18918314.46146  20854002.5084                   20853999.2974
 -23881492.10948 -18593586.34047  20635257.6174                   20635254.9384
 -19487778.55147 -15168612.95744  23566931.2114                   23566929.3054
 -11581216.07848  -9009367.38346  22386669.9454                   22386670.0514
 -28635249.10548 -22297633.29746  21010174.7894                   21010170.1334
 11  8 16  1 35  0.0000000  0  7G10G29G12G05G04G25G02
 -22411980.31648 -17450045.14545  21749894.2424                   21749891.3874
   2467125.48046   1934676.24643  24442386.9454                   24442385.7544
 -24320612.75848 -18936306.66446  20849608.5864                   20849605.5274
 -23945549.70348 -18643501.30947  20623067.9454                   20623065.0314
 -19430436.70746 -15123931.00444  23577842.9144                   23577840.6214
 -11667991.36748  -9076984.44946  22370157.2734                   22370157.6644
 -28634583.01648 -22297114.24246  21010301.4534                   21010296.7624
 11  8 16  1 35 30.0000000  0  7G10G29G12G05G04G25G02
 -22369900.21147 -17417255.44545  21757901.7974                   21757899.1214
   2361271.79346   1852192.90643  24422244.3984                   24422243.1954
 -24343104.96548 -18953833.05146  20845328.2734                   20845325.2154
 -24009041.99648 -18692975.78947  20610985.6414                   20610983.0084
 -19373106.59046 -15079258.16844  23588752.0474                   23588749.9304
 -11754285.23047  -9144226.39146  22353736.4454                   22353735.8284
 -28633743.84448 -22296460.31646  21010461.1804                   21010456.1684
 11  8 16  1 36  0.0000000  0  7G10G29G12G05G04G25G02
 -22327325.39147 -17384080.26245  21766003.4384                   21766000.6564
   2255366.96546   1769669.70343  24402091.1024                   24402090.2624
 -24364999.87148 -18970894.01246  20841161.9304                   20841158.8874
 -24071968.42248 -18742009.33647  20599011.1564                   20599008.5904
 -19315789.85946 -15034595.75444  23599658.9924                   23599657.5984
 -11840096.17647  -9211092.02745  22337406.6094                   22337405.8914
 -28632733.57448 -22295673.07846  21010653.6254                   21010648.4844
 11  8 16  1 36 30.0000000  0  7G10G29G12G05G04G25G02
 -22284260.41047 -17350523.13745  21774198.2034                   21774196.0314
   2149409.80946   1687105.70743  24381927.9614                   24381927.3714
 -24386300.12948 -18987491.60947  20837108.6884                   20837105.3014
 -24134329.51648 -18790602.35547  20587144.1954                   20587141.7544
 -19258489.10246 -14989945.80544  23610563.1884                   23610562.3324
 -11925423.96148  -9277581.17245  22321169.1174                   22321169.1844
 -28631554.87548 -22294754.59046  21010877.4064                   21010872.9144
 11  8 16  1 37  0.0000000  0  7G10G29G12G05G04G25G02
 -22240709.73847 -17316587.55545  21782486.0474                   21782483.2894
   2043398.89146   1604499.84043  24361754.6484                   24361753.9924
 -24407007.25848 -19003627.02746  20833168.1174                   20833164.4024
 -24196126.37548 -18838755.71147  20575384.7894                   20575381.9654
 -19201207.03947 -14945310.44944  23621464.0784                   23621461.9574
 -12010268.48847  -9343693.75445  22305023.9534                   22305023.8404
 -28630210.59848 -22293707.06646  21011133.5234                   21011128.8244
 11  8 16  1 37 30.0000000  0  7G10G29G12G05G04G25G02
 -22196673.78947 -17282273.81645  21790865.5554                   21790863.0634
   1937336.83646   1521854.13743  24341571.5394                   24341569.9964
 -24427119.50048 -19019298.89846  20829340.6414                   20829337.7704
 -24257356.04748 -18886467.10947  20563733.0084                   20563730.2624
 -19143942.73447 -14900688.89844  23632360.4304                   23632359.1844
 -12094625.80548  -9409426.68446  22288971.3834                   22288971.3634
 -28628699.90248 -22292529.88746  21011420.6484                   21011415.9494
 11  8 16  1 38  0.0000000  0  7G10G29G12G05G04G25G02
 -22152160.55148 -17247588.17245  21799335.9144                   21799333.2234
   1831219.50446   1439165.35244  24321378.4384                   24321377.4224
 -24446642.19948 -19034511.38347  20825625.7894                   20825622.6294
 -24318022.62948 -18933739.73447  20552188.7114                   20552185.7894
 -19086701.98046 -14856085.71544  23643253.1254                   23643252.1294
 -12178498.92247  -9474782.34046  22273010.6724                   22273010.3754
 -28627028.96948 -22291227.84846  21011739.1564                   21011734.4184
 11  8 16  1 38 30.0000000  0  7G10G29G12G05G04G25G02
 -22107169.85248 -17212530.48045  21807897.7424                   21807894.8834
   1725049.76646   1356435.76644  24301175.6334                   24301173.6604
 -24465572.84848 -19049262.53146  20822023.2504                   20822019.7974
 -24378122.62148 -18980570.85247  20540752.2034                   20540749.0004
 -19029483.43746 -14811499.83244  23654141.6174                   23654140.3164
 -12261883.64547  -9539757.41046  22257142.8364                   22257142.9414
 -28625196.55148 -22289799.97346  21012087.7424                   21012083.1254
 11  8 16  1 39  0.0000000  0  7G10G29G12G05G04G25G02
 -22061703.78547 -17177102.36345  21816549.5634                   21816546.5824
   1618829.09046   1273666.46544  24280961.6484                   24280960.1484
 -24483911.43448 -19063552.33646  20818533.7194                   20818530.5634
 -24437654.78548 -19026959.51247  20529423.0554                   20529420.5634
 -18972286.98846 -14766931.16044  23665025.0314                   23665023.9734
 -12344777.22348  -9604349.77346  22241368.9534                   22241368.5904
 -28623202.79348 -22288246.36746  21012466.8754                   21012461.8594
 11  8 16  1 39 30.0000000  0  7G10G29G12G05G04G25G02
 -22015763.85548 -17141305.02045  21825291.6254                   21825289.2464
   1512559.19946   1190858.84844  24260738.5784                   24260737.8054
 -24501656.71548 -19077379.82446  20815157.0234                   20815154.1024
 -24496616.98047 -19072904.03947  20518203.1564                   20518200.2504
 -18915112.48846 -14722379.59844  23675905.4384                   23675903.4924
 -12427176.55148  -9668557.01246  22225688.9454                   22225688.3714
 -28621047.52348 -22286566.91446  21012877.4064                   21012872.4024
 11  8 16  1 40  0.0000000  0  7G10G29G12G05G04G25G02
 -21969354.43048 -17105141.82445  21834123.0084                   21834120.4304
   1406239.58646   1108012.48844  24240506.8444                   24240506.5554
 -24518810.35248 -19090746.28947  20811892.6724                   20811889.4924
 -24555009.94948 -19118405.01647  20507091.2584                   20507088.5474
 -18857962.07046 -14677846.84443  23686781.0164                   23686778.5004
 -12509081.16448  -9732378.76646  22210103.0634                   22210102.5314
 -28618733.41048 -22284763.68446  21013317.6254                   21013312.5314
 11  8 16  1 40 30.0000000  0  7G10G29G12G05G04G25G02
 -21922479.56648 -17068615.94945  21843042.9304                   21843040.4804
   1299869.12946   1025126.52344  24220265.5234                   24220265.4494
 -24535374.40248 -19103653.33247  20808740.5474                   20808737.5784
 -24612834.37948 -19163462.97747  20496087.4454                   20496084.5124
 -18800838.52746 -14633334.92243  23697651.7734                   23697649.1094
 -12590490.90648  -9795814.89146  22194611.0554                   22194610.7234
 -28616263.07448 -22282838.73446  21013787.7974                   21013782.4964
 11  8 16  1 41  0.0000000  0  7G10G29G12G05G04G25G02
 -21875140.64147 -17031728.46945  21852051.3444                   21852048.3054
   1193450.13346    942202.72744  24200014.5234                   24200013.4414
 -24551347.84848 -19116100.17646  20805700.9224                   20805698.0704
 -24670087.81248 -19208076.00847  20485192.7814                   20485189.9844
 -18743740.99246 -14588843.31643  23708516.0314                   23708514.9064
 -12671402.40248  -9858862.79346  22179214.3054                   22179213.8484
 -28613636.00448 -22280791.64546  21014287.3754                   21014282.6804
 11  8 16  1 41 30.0000000  0  7G10G29G12G05G04G25G02
 -21827341.94947 -16994482.73445  21861147.1884                   21861144.8834
   1086981.80546    859240.45344  24179754.2034                   24179751.8364
 -24566732.43448 -19128088.15646  20802773.6024                   20802770.3714
 -24726771.29748 -19252244.92247  20474406.2974                   20474403.4534
 -18686671.84047 -14544373.82843  23719376.0784                   23719374.9964
 -12751815.22748  -9921522.09846  22163912.1334                   22163911.9884
 -28610854.54748 -22278624.26246  21014816.9774                   21014812.1024
 11  8 16  1 42  0.0000000  0  7G10G29G12G05G04G25G02
 -21779084.34047 -16956879.38745  21870329.9384                   21870327.6844
    980466.66846    776241.71944  24159484.6644                   24159482.9024
 -24581526.41848 -19139615.93446  20799958.3364                   20799955.2504
 -24782882.00047 -19295967.51247  20463728.5084                   20463725.6684
 -18629629.84847 -14499925.52043  23730231.4614                   23730229.5784
 -12831725.61348  -9983789.89846  22148705.6094                   22148705.4654
 -28607917.80547 -22276335.87146  21015375.5474                   21015370.6454
 11  8 16  1 42 30.0000000  0  7G10G29G12G05G04G25G02
 -21730367.54347 -16918918.25445  21879600.7424                   21879598.0434
    873907.94546    693209.01643  24139207.2814                   24139206.4304
 -24595728.14548 -19150682.19547  20797255.4844                   20797252.8874
 -24838417.10247 -19339241.59047  20453160.4534                   20453157.8634
 -18572613.48847 -14455497.15644  23741081.5474                   23741080.0044
 -12911129.28948 -10045662.85946  22133595.6884                   22133595.0864
 -28604824.39148 -22273925.39846  21015964.0394                   21015958.9494
 11  8 16  1 43  0.0000000  0  7G10G29G12G05G04G25G02
 -21681196.26247 -16880602.95745  21888957.5394                   21888954.9694
    767304.64547    610141.57444  24118921.2584                   24118919.6094
 -24609339.85548 -19161288.72346  20794665.5084                   20794662.3244
 -24893377.52748 -19382067.85947  20442701.9614                   20442698.8054
 -18515625.27047 -14411090.71543  23751925.5704                   23751924.4224
 -12990026.41448 -10107141.10546  22118581.8914                   22118581.7734
 -28601577.44948 -22271395.29746  21016581.9454                   21016577.4884
 11  8 16  1 43 30.0000000  0  7G10G29G12G05G04G25G02
 -21631573.98848 -16841936.24245  21898400.5474                   21898397.7274
    660656.50446    527039.18844  24098626.7034                   24098625.0204
 -24622362.80148 -19171436.45347  20792187.1884                   20792184.5124
 -24947763.45748 -19424446.48047  20432352.6254                   20432349.8484
 -18458666.86347 -14366707.53944  23762764.9694                   23762762.1214
 -13068415.97348 -10168223.83646  22103664.7424                   22103664.7154
 -28598178.59048 -22268746.82046  21017228.6884                   21017223.8444
 11  8 16  1 44  0.0000000  0  7G10G29G12G05G04G25G02
 -21581502.31247 -16802919.34845  21907928.9844                   21907925.9654
    553966.05146    443903.84044  24078324.1174                   24078323.3164
 -24634796.03548 -19181124.68046  20789821.0394                   20789818.3914
 -25001572.67648 -19466375.70747  20422112.8914                   20422110.1214
 -18401737.28947 -14322346.84444  23773597.6484                   23773596.0634
 -13146294.55948 -10228908.40246  22088844.8594                   22088845.0004
 -28594627.20348 -22265979.50046  21017904.6564                   21017899.5274
 11  8 16  1 44 30.0000000  0  7G10G29G12G05G04G25G02
 -21530986.61347 -16763556.46145  21917541.6484                   21917539.1024
    447231.31647    360734.00044  24058013.4384                   24058012.3954
 -24646642.64548 -19190355.77747  20787566.7114                   20787563.5274
 -25054807.03548 -19507856.99247  20411982.8134                   20411979.6254
 -18344840.27747 -14278011.49644  23784425.2894                   23784423.7464
 -13223663.21148 -10289195.62546  22074122.0944                   22074121.9304
 -28590926.88747 -22263096.11746  21018608.5784                   21018603.5474
 11  8 16  1 45  0.0000000  0  7G10G29G12G05G04G25G02
 -21480026.49247 -16723847.25845  21927238.7814                   21927236.9884
    340456.23446    277532.68444  24037694.7584                   24037693.4884
 -24657899.74248 -19199127.53546  20785424.9224                   20785421.7624
 -25107463.61748 -19548888.07047  20401962.7344                   20401959.5634
 -18287973.66047 -14233699.82843  23795246.2114                   23795245.3594
 -13300517.19148 -10349081.81246  22059497.1024                   22059497.1604
 -28587075.78548 -22260095.24246  21019341.6094                   21019336.4104
 11  8 16  1 45 30.0000000  0  7G10G29G12G05G04G25G02
 -21428626.79347 -16683795.55145  21937020.2664                   21937017.5634
    233639.53547    194298.94144  24017368.3674                   24017366.7894
 -24668570.12948 -19207442.10546  20783394.3754                   20783390.9964
 -25159543.40248 -19589469.69147  20392052.0944                   20392049.3954
 -18231139.75847 -14189413.67243  23806061.0944                   23806059.3094
 -13376856.66048 -10408567.06646  22044970.4144                   22044970.1684
 -28583076.39547 -22256978.82446  21020102.7424                   21020098.0554
 11  8 16  1 46  0.0000000  0  7G10G29G12G05G04G25G02
 -21376788.89147 -16643402.37145  21946884.3834                   21946882.0124
    126783.39146    111034.42244  23997034.0394                   23997031.8594
 -24678653.35248 -19215299.14546  20781475.5704                   20781472.3324
 -25211044.14548 -19629600.10547  20382251.6644                   20382248.9384
 -18174338.07847 -14145152.63343  23816869.9384                   23816868.4224
 -13452678.54748 -10467649.03946  22030541.8134                   22030541.6884
 -28578928.59047 -22253746.76246  21020891.7194                   21020886.7384
 11  8 16  1 46 30.0000000  0  7G10G29G12G05G04G25G02
 -21324515.08247 -16602669.53545  21956831.7814                   21956829.3674
     19889.05546     27740.18443  23976693.1564                   23976690.9494
 -24688149.65248 -19222698.85546  20779668.1334                   20779665.0594
 -25261965.36748 -19669278.95747  20372561.7034                   20372558.8874
 -18117569.00447 -14100916.98043  23827673.4064                   23827671.2584
 -13527980.76648 -10526326.05146  22016212.1724                   22016211.8524
 -28574632.95748 -22250399.48846  21021709.2504                   21021704.5824
 11  8 16  1 47  0.0000000  0  7G10G29G12G05G04G25G02
 -21271810.65647 -16561601.14145  21966861.1884                   21966858.3714
    -87045.09847    -55585.10243  23956343.7974                   23956341.5864
 -24697061.84448 -19229643.40646  20777972.5784                   20777969.2624
 -25312308.89848 -19708507.64847  20362981.7034                   20362979.0434
 -18060835.46547 -14056709.00444  23838469.4454                   23838467.5554
 -13602763.96148 -10584598.63346  22001981.5634                   22001981.3754
 -28570192.70347 -22246939.53146  21022554.0944                   21022548.9964
 11  8 16  1 47 30.0000000  0  7G10G29G12G05G04G25G02
 -21218677.14847 -16520198.40645  21976972.3204                   21976969.6684
   -194016.62547   -138939.48444  23935987.2274                   23935985.5984
 -24705389.10248 -19236132.16446  20776387.8204                   20776384.4804
 -25362072.93748 -19747284.79747  20353512.0634                   20353508.9964
 -18004137.04747 -14012528.41044  23849258.7814                   23849256.7504
 -13677025.30548 -10642464.55946  21987849.8204                   21987849.5474
 -28565607.59848 -22243366.71546  21023426.4304                   21023422.2034
 11  8 16  1 48  0.0000000  0  7G10G29G12G05G04G25G02
 -21165115.93447 -16478462.37545  21987164.5474                   21987161.9344
   -301023.45347   -222321.37544  23915624.7504                   23915623.3524
 -24713130.85248 -19242164.69546  20774914.4924                   20774911.3834
 -25411255.40648 -19785608.77047  20344152.8444                   20344149.3094
 -17947472.80146 -13968374.46543  23860041.3914                   23860040.0904
 -13750761.62148 -10699921.39546  21973818.4924                   21973818.3014
 -28560876.83648 -22239680.39546  21024326.8674                   21024322.0124
 11  8 16  1 48 30.0000000  0  7G10G29G12G05G04G25G02
 -21111131.22347 -16436396.36345  21997437.2974                   21997435.2194
   -408066.56646   -305731.55944  23895255.3204                   23895254.3874
 -24720289.14148 -19247742.57046  20773552.4304                   20773549.1374
 -25459858.02048 -19823480.89547  20334904.0084                   20334900.9384
 -17890845.22346 -13924249.05543  23870816.8134                   23870815.2034
 -13823973.14548 -10756969.29746  21959886.6724                   21959886.1884
 -28556003.44948 -22235882.92646  21025254.2584                   21025249.1564
 11  8 16  1 49  0.0000000  0  7G10G29G12G05G04G25G02
 -21056726.19947 -16394002.83245  22007790.1564                   22007787.9694
   -515144.86346   -389169.13744  23874878.5314                   23874877.6884
 -24726865.25448 -19252866.80946  20772300.9304                   20772297.5164
 -25507880.25448 -19860900.79347  20325765.6094                   20325762.7544
 -17834255.18447 -13880152.90643  23881586.0704                   23881583.7854
 -13896658.32048 -10813607.06646  21946054.8834                   21946055.1214
 -28550988.36748 -22231975.05946  21026208.6094                   21026203.8284
 11  8 16  1 49 30.0000000  0  7G10G29G12G05G04G25G02
 -21001902.51647 -16351283.06645  22018222.9304                   22018219.7624
   -622256.19946   -472632.47344  23854495.7734                   23854494.6484
 -24732858.96148 -19257537.22746  20771160.4774                   20771157.2114
 -25555320.44948 -19897867.14847  20316738.0554                   20316734.9184
 -17777701.82047 -13836085.29343  23892348.3204                   23892345.5274
 -13968814.17648 -10869832.37146  21932324.1884                   21932324.6334
 -28545830.91848 -22227956.25446  21027190.2034                   21027185.3524
 11  8 16  1 50  0.0000000  0  7G10G29G12G05G04G25G02
 -20946663.05947 -16308239.32845  22028734.3204                   22028732.3834
   -729399.69147   -556120.83644  23834107.5164                   23834106.9104
 -24738270.69148 -19261754.15246  20770130.8444                   20770127.4494
 -25602178.37948 -19934379.79747  20307821.4774                   20307818.1564
 -17721185.89846 -13792046.85543  23903101.9534                   23903099.9384
 -14040439.28148 -10925644.10546  21918694.8594                   21918693.8954
 -28540532.45748 -22223827.57446  21028198.2194                   21028193.1954
 11  8 16  1 50 30.0000000  0  7G10G29G12G05G04G25G02
 -20891012.19147 -16264875.01245  22039324.6644                   22039322.2704
   -836576.05546   -639634.84444  23813712.7734                   23813711.3094
 -24743102.85948 -19265519.47346  20769211.0784                   20769208.4024
 -25648455.32848 -19970439.71947  20299015.1564                   20299011.9534
 -17664709.47346 -13748039.30543  23913848.8204                   23913847.3484
 -14111533.59448 -10981042.22746  21905165.5004                   21905165.2304
 -28535094.93448 -22219590.51246  21029232.8524                   21029227.5554
 11  8 16  1 51  0.0000000  0  7G10G29G12G05G04G25G02
 -20834949.95747 -16221190.15245  22049992.9064                   22049990.5274
   -943781.64847   -723171.61744  23793311.8674                   23793310.4844
 -24747353.60948 -19268831.74247  20768402.3284                   20768398.5044
 -25694148.35948 -20006044.64547  20290320.0704                   20290316.7774
 -17608270.79746 -13704061.07843  23924588.3914                   23924587.8834
 -14182092.93048 -11036023.49646  21891738.5704                   21891738.7774
 -28529516.78148 -22215243.89546  21030294.6414                   21030289.4654
 11  8 16  1 51 30.0000000  0  7G10G29G12G05G04G25G02
 -20778480.70747 -16177188.12145  22060738.9224                   22060735.6884
  -1051017.07447   -806731.61744  23772905.4694                   23772904.4454
 -24751024.99248 -19271692.56246  20767703.7664                   20767700.8164
 -25739258.28548 -20041195.20347  20281735.5004                   20281732.7274
 -17551871.53146 -13660113.61343  23935321.3754                   23935319.8364
 -14252117.21148 -11090587.83246  21878413.9144                   21878412.5634
 -28523800.07848 -22210789.30146  21031382.2194                   21031377.2584
 11  8 16  1 52  0.0000000  0  7G10G29G12G05G04G25G02
 -20721609.07447 -16132872.55545  22071560.7114                   22071558.7274
  -1158282.93047   -890315.33644  23752493.8204                   23752492.3594
 -24754120.01648 -19274104.26646  20767114.6024                   20767110.9844
 -25783787.04748 -20075892.91847  20273262.4774                   20273259.4024
 -17495514.33646 -13616198.91044  23946046.6804                   23946044.3524
 -14321606.74248 -11144735.48046  21865190.1644                   21865189.8324
 -28517947.69148 -22206228.98046  21032495.8984                   21032490.8164
 11  8 16  1 52 30.0000000  0  7G10G29G12G05G04G25G02
 -20664336.39147 -16088244.49245  22082459.2814                   22082457.0394
  -1265576.74247   -973920.85544  23732076.4844                   23732075.0234
 -24756638.14848 -19276066.43446  20766635.3674                   20766632.6024
 -25827732.55948 -20110136.14547  20264899.5474                   20264896.8364
 -17439198.03546 -13572316.05943  23956762.6174                   23956760.8484
 -14390558.36748 -11198463.97346  21852068.8674                   21852068.3634
 -28511958.94948 -22201562.41046  21033635.7974                   21033630.5944
 11  8 16  1 53  0.0000000  0  7G10G29G12G05G04G25G02
 -20606664.93447 -16043305.70345  22093434.6484                   22093431.3404
  -1372897.33247  -1057547.23444  23711653.3444                   23711652.3714
 -24758579.53948 -19277579.20346  20766266.0704                   20766262.8984
 -25871094.17248 -20143924.38747  20256648.2734                   20256645.0744
 -17382922.91046 -13528465.28943  23967471.6884                   23967469.9534
 -14458970.27348 -11251771.91446  21839050.3054                   21839050.4414
 -28505834.03548 -22196789.73046  21034801.3284                   21034795.8094
 11  8 16  1 53 30.0000000  0  7G10G29G12G05G04G25G02
 -20548599.69547 -15998060.03945  22104483.1954                   22104480.8554
  -1480245.76646  -1141195.30144  23691225.4304                   23691224.0634
 -24759947.14548 -19278644.87146  20766005.6414                   20766002.2814
 -25913873.93048 -20177259.23047  20248507.4844                   20248504.6844
 -17326691.46546 -13484648.58243  23978172.2274                   23978169.5784
 -14526843.16448 -11304659.84846  21826134.9224                   21826134.4184
 -28499576.12948 -22191913.42646  21035991.9304                   21035986.7774
 11  8 16  1 54  0.0000000  0  7G10G29G12G05G04G25G02
 -20490141.69947 -15952508.36345  22115607.6024                   22115605.5044
  -1587618.91046  -1224862.60544  23670793.0394                   23670791.6954
 -24760740.23448 -19279262.84846  20765854.2664                   20765851.4224
 -25956069.84048 -20210139.13347  20240477.8284                   20240475.1024
 -17270502.58247 -13440865.02344  23988864.6884                   23988862.2154
 -14594173.61748 -11357125.09046  21813322.2274                   21813321.3954
 -28493183.87947 -22186932.44146  21037208.3134                   21037203.2464
 11  8 16  1 54 30.0000000  0  7G10G29G12G05G04G25G02
 -20431293.68047 -15906652.77745  22126806.0234                   22126803.5984
  -1695015.44547  -1308548.16844  23650356.3524                   23650354.5124
 -24760959.60248 -19279433.78546  20765812.8284                   20765809.7544
 -25997681.12548 -20242563.48847  20232559.5944                   20232556.3914
 -17214356.45747 -13397114.77044  23999549.1724                   23999547.5354
 -14660960.05948 -11409166.43746  21800613.3674                   21800612.4264
 -28486658.02048 -22181847.33646  21038450.3054                   21038445.0314
 11  8 16  1 55  0.0000000  0  7G10G29G12G05G04G25G02
 -20372060.32447 -15860496.91845  22138078.0084                   22138075.5514
  -1802436.30147  -1392252.65244  23629914.9064                   23629913.1054
 -24760608.11348 -19279159.89846  20765879.8754                   20765876.6174
 -26038710.00848 -20274534.00847  20224751.6564                   20224748.5554
 -17158255.48046 -13353399.71944  24010224.2734                   24010223.0704
 -14727202.96148 -11460784.24646  21788007.2664                   21788007.2734
 -28480001.17648 -22176660.16846  21039716.5944                   21039711.8364
 11  8 16  1 55 30.0000000  0  7G10G29G12G05G04G25G02
 -20312441.30147 -15814040.52345  22149423.1024                   22149420.4264
  -1909877.53147  -1475973.07044  23609469.2664                   23609467.3754
 -24759683.72748 -19278439.58646  20766055.9924                   20766052.6374
 -26079153.04348 -20306048.03547  20217055.6954                   20217052.8054
 -17102196.72347 -13309717.56243  24020891.7664                   24020890.3554
 -14792897.71948 -11511974.93046  21775506.1724                   21775505.3054
 -28473210.94147 -22171369.06246  21041009.2034                   21041003.8634
 11  8 16  1 56  0.0000000  0  7G10G29G12G05G04G25G02
 -20252442.54347 -15767288.24245  22160840.4924                   22160838.4614
  -2017340.71547  -1559710.53944  23589019.9454                   23589017.9574
 -24758190.59848 -19277276.10946  20766339.9534                   20766336.7234
 -26119013.14148 -20337107.82847  20209470.5634                   20209467.6054
 -17046184.07046 -13266071.31643  24031550.7114                   24031549.1334
 -14858046.05548 -11562739.83246  21763108.7894                   21763108.5164
 -28466291.07048 -22165976.93446  21042325.8134                   21042321.2194
 11  8 16  1 56 30.0000000  0  7G10G29G12G05G04G25G02
 -20192064.44547 -15720240.36745  22172330.0234                   22172327.5784
  -2124822.57047  -1643462.59844  23568566.9304                   23568564.6054
 -24756127.32848 -19275668.36746  20766732.6334                   20766729.5514
 -26158288.16848 -20367711.71947  20201996.8204                   20201993.9534
 -16990215.55146 -13222459.45743  24042201.1724                   24042199.8014
 -14922644.46548 -11613076.22346  21750816.2274                   21750816.1134
 -28459240.66848 -22160483.08646  21043667.5554                   21043662.6024
 11  8 16  1 57  0.0000000  0  7G10G29G12G05G04G25G02
 -20131311.39147 -15672900.32045  22183890.9064                   22183888.6134
  -2232323.39147  -1727229.43744  23548110.1564                   23548108.1994
 -24753495.84448 -19273617.84446  20767233.4774                   20767229.8134
 -26196979.21548 -20397860.55147  20194634.1174                   20194630.9924
 -16934292.93046 -13178883.37943  24052843.1094                   24052841.5354
 -14986692.68048 -11662983.87946  21738627.9774                   21738627.8634
 -28452060.90248 -22154888.44146  21045033.6564                   21045028.8674
 11  8 16  1 57 30.0000000  0  7G10G29G12G05G04G25G02
 -20070187.11347 -15625271.01245  22195522.4224                   22195520.1334
  -2339843.19147  -1811011.01644  23527649.0554                   23527648.2384
 -24750299.20748 -19271126.96146  20767841.7974                   20767837.8874
 -26235087.34448 -20427555.16447  20187382.3284                   20187379.6524
 -16878417.86746 -13135344.34443  24063475.3054                   24063473.9574
 -15050190.57848 -11712462.73846  21726544.6254                   21726544.6484
 -28444753.71548 -22149194.52046  21046424.5704                   21046419.2854
 11  8 16  1 58  0.0000000  0  7G10G29G12G05G04G25G02
 -20008695.05147 -15577355.10945  22207224.0164                   22207221.6844
  -2447381.17647  -1894806.80544  23507185.4844                   23507184.2894
 -24746538.69148 -19268196.67646  20768557.3284                   20768553.9454
 -26272612.92248 -20456795.85247  20180241.3364                   20180238.5394
 -16822591.18446 -13091842.98043  24074099.0084                   24074097.0164
 -15113137.36348 -11761512.14846  21714566.3134                   21714565.9184
 -28437320.37948 -22143402.29346  21047838.8674                   21047833.4574
 11  8 16  1 58 30.0000000  0  7G10G29G12G05G04G25G02
 -19946835.48447 -15529152.84445  22218995.2734                   22218992.4494
  -2554933.50447  -1978613.77744  23486718.8834                   23486718.1644
 -24742212.74248 -19264825.79746  20769380.2894                   20769377.3674
 -26309553.62148 -20485580.77747  20173211.8444                   20173209.2854
 -16766810.80546 -13048377.77743  24084713.6564                   24084711.6294
 -15175529.21948 -11810129.14546  21702693.8674                   21702693.1094
 -28429759.39548 -22137510.59446  21049277.4614                   21049272.8914
 11  8 16  1 59  0.0000000  0  7G10G29G12G05G04G25G02
 -19884612.34447 -15480667.27745  22230835.8834                   22230833.8954
  -2662499.94547  -2062431.72744  23466249.5164                   23466248.6024
 -24737323.70747 -19261016.14846  20770310.7584                   20770307.2304
 -26345910.29348 -20513910.62547  20166293.4224                   20166290.3714
 -16711077.59846 -13004949.32843  24095319.0394                   24095316.9804
 -15237365.67248 -11858313.36346  21690926.8054                   21690926.2304
 -28422071.88748 -22131520.30146  21050740.4694                   21050735.4494
 11  8 16  1 59 30.0000000  0  7G10G29G12G05G04G25G02
 -19822028.93447 -15431900.98845  22242745.2814                   22242743.0474
  -2770080.35247  -2146260.57044  23445777.9144                   23445777.1254
 -24731873.07848 -19256768.89846  20771348.3054                   20771344.9304
 -26381683.55948 -20541785.87147  20159486.1254                   20159483.0634
 -16655393.17246 -12961558.84043  24105914.8364                   24105914.2424
 -15298646.08648 -11906064.31646  21679265.1564                   21679264.7424
 -28414259.41448 -22125432.63746  21052227.0864                   21052222.1844
 11  8 16  2  0  0.0000000  0  7G10G29G12G05G04G25G02
 -19759086.38347 -15382854.82845  22254722.8754                   22254719.9104
  -2877671.30547  -2230097.65644  23425304.5234                   23425301.8554
 -24725860.29348 -19252083.60546  20772492.2894                   20772488.7814
 -26416871.78548 -20569205.25047  20152789.9774                   20152786.7504
 -16599755.82446 -12918205.09443  24116501.9924                   24116500.8674
 -15359367.59048 -11953379.74646  21667710.4304                   21667710.3954
 -28406320.99248 -22119246.82446  21053737.9064                   21053733.0824
 11  8 16  2  0 30.0000000  0  7G10G29G12G05G04G25G02
 -19695789.87547 -15333532.87545  22266767.7664                   22266765.2464
  -2985273.59447  -2313943.55945  23404828.0554                   23404826.4344
 -24719288.94148 -19246963.06246  20773742.6564                   20773739.3834
 -26451477.22748 -20596170.49647  20146204.7274                   20146201.3164
 -16544168.14146 -12874889.97343  24127080.6954                   24127078.9414
 -15419531.10548 -12000260.36746  21656261.5314                   21656260.9454
 -28398259.17248 -22112964.85946  21055271.8364                   21055266.8284
 11  8 16  2  1  0.0000000  0  7G10G29G12G05G04G25G02
 -19632141.94547 -15283937.09044  22278879.4144                   22278877.1994
  -3092886.15647  -2397797.46945  23384350.0234                   23384348.9964
 -24712159.54748 -19241407.68446  20775099.2734                   20775096.0634
 -26485499.74648 -20622681.52747  20139730.4224                   20139727.0984
 -16488630.23046 -12831613.65243  24137648.5394                   24137648.2274
 -15479135.00848 -12046704.94146  21644919.1884                   21644918.5864
 -28390074.49248 -22106587.15646  21056829.0394                   21056824.0274
 11  8 16  2  1 30.0000000  0  7G10G29G12G05G04G25G02
 -19568142.55947 -15234067.43045  22291058.0944                   22291055.3874
  -3200504.94947  -2481656.21944  23363871.2424                   23363869.2734
 -24704471.36748 -19235416.89146  20776562.0704                   20776559.1954
 -26518936.80148 -20648736.35247  20133367.4844                   20133364.4064
 -16433139.64846 -12788374.24244  24148209.2504                   24148207.6414
 -15538175.56248 -12092710.54346  21633684.4064                   21633683.9064
 -28381764.65248 -22100111.93046  21058410.5944                   21058405.8164
 11  8 16  2  2  0.0000000  0  8G26G10G29G12G05G04G25G02
   6128648.43556   4789197.31653  24958336.3674                   24958334.6764
 -17928377.16047 -13956328.14844  22603094.9844                   22603092.2814
  -1732705.35947  -1337916.23444  23643183.5314                   23643182.1054
 -23120806.13348 -18001392.02746  21077924.0554                   21077920.7114
 -24976368.00048 -19446734.66047  20426908.4844                   20426905.0314
 -14802279.08246 -11517573.79343  24458551.8754                   24458550.2154
 -14021230.10248 -10910675.09446  21922349.4614                   21922349.0634
 -26797911.37548 -20865940.51646  21359807.9144                   21359802.8634
 11  8 16  2  2 30.0000000  0  8G26G10G29G12G05G04G25G02
   6011352.01646   4697797.57843  24936014.9924                   24936013.8094
 -17863694.94147 -13905926.41445  22615404.0474                   22615401.1914
  -1840344.27747  -1421790.64144  23622700.3134                   23622699.0824
 -23112015.11348 -17994541.88746  21079596.9844                   21079593.4924
 -25008646.20348 -19471886.48847  20420766.2974                   20420763.1804
 -14746895.76246 -11474417.95743  24469090.3054                   24469088.7384
 -14079152.02048 -10955809.02346  21911326.8594                   21911326.6884
 -26789365.21148 -20859281.14546  21361434.0474                   21361429.3014
 11  8 16  2  3  0.0000000  0  8G26G10G29G12G05G04G25G02
   5893922.77646   4606294.32843  24913669.4844                   24913668.4104
 -17798682.48447 -13855267.36745  22627775.3204                   22627772.2894
  -1947998.17247  -1505676.73044  23602214.4534                   23602213.5314
 -23102681.64548 -17987269.05146  21081372.6954                   21081369.6954
 -25040352.23848 -19496592.45747  20414732.7584                   20414729.4384
 -14691573.55146 -11431309.71944  24479618.3754                   24479616.0784
 -14136519.92248 -11000511.27746  21900410.6334                   21900410.0124
 -26780708.45748 -20852535.60246  21363081.3594                   21363076.3914
 11  8 16  2  3 30.0000000  0  8G26G10G29G12G05G04G25G02
   5776366.08646   4514691.82843  24891298.3134                   24891297.8984
 -17733340.09447 -13804351.19545  22640209.8524                   22640206.9884
  -2055663.13347  -1589571.41844  23581726.7894                   23581724.6254
 -23092804.37548 -17979572.47746  21083252.2424                   21083249.0984
 -25071483.44548 -19520850.52047  20408808.3444                   20408805.2774
 -14636310.18046 -11388247.32843  24490133.8054                   24490132.2344
 -14193330.03148 -11044778.84846  21889599.7194                   21889599.2814
 -26771939.29748 -20845702.47346  21364750.0084                   21364744.8054
 11  8 16  2  4  0.0000000  0  8G26G10G29G12G05G04G25G02
   5658685.28546   4422992.60243  24868904.4534                   24868903.2424
 -17667670.40247 -13753180.03145  22652706.4224                   22652703.9774
  -2163337.81647  -1673473.70344  23561237.3284                   23561235.3524
 -23082384.51248 -17971453.10546  21085235.1484                   21085231.7894
 -25102040.17648 -19544660.93747  20402994.0164                   20402990.3834
 -14581105.49346 -11345230.70743  24500639.2344                   24500637.3634
 -14249581.06247 -11088610.79346  21878895.5704                   21878895.0904
 -26763058.02348 -20838781.98046  21366440.0084                   21366435.0084
 11  8 16  2  4 30.0000000  0  8G26G10G29G12G05G04G25G02
   5540887.69546   4331202.42643  24846487.7114                   24846487.8484
 -17601671.66847 -13701752.43045  22665265.2584                   22665262.8164
  -2271016.03947  -1757378.73844  23540746.9304                   23540744.3484
 -23071418.82048 -17962908.41846  21087322.1564                   21087318.8914
 -25132018.15248 -19568020.37147  20397289.1414                   20397286.0354
 -14525955.29346 -11302256.46943  24511134.1024                   24511131.1294
 -14305267.34448 -11132002.66846  21868298.4064                   21868297.9304
 -26754060.44548 -20831770.85546  21368152.4844                   21368147.1994
 11  8 16  2  5  0.0000000  0  8G26G10G29G12G05G04G25G02
   5422974.62946   4239322.23043  24824050.5004                   24824049.4104
 -17535348.51247 -13650072.03145  22677885.5784                   22677882.6374
  -2378698.34047  -1841286.94544  23520255.4694                   23520253.6684
 -23059910.50048 -17953940.89846  21089512.1484                   21089508.6524
 -25161419.30148 -19590930.33647  20391694.3984                   20391691.2774
 -14470861.52046 -11259326.23043  24521618.0314                   24521615.7774
 -14360389.56648 -11174955.03146  21857809.3364                   21857808.8284
 -26744949.16048 -20824671.14546  21369886.0634                   21369880.9614
 11  8 16  2  5 30.0000000  0  8G26G10G29G12G05G04G25G02
   5304952.52646   4147357.06343  24801591.6414                   24801589.9844
 -17468700.34046 -13598138.40244  22690568.3594                   22690566.3094
  -2486380.21547  -1925194.82044  23499763.7894                   23499762.1994
 -23047857.22348 -17944548.74646  21091805.6804                   21091802.1054
 -25190240.59448 -19613388.45747  20386210.1024                   20386206.9144
 -14415821.03946 -11216437.56643  24532091.9454                   24532089.9844
 -14414943.43748 -11217464.53146  21847428.1174                   21847428.0984
 -26735721.41848 -20817480.67646  21371641.8754                   21371636.7814
 11  8 16  2  6  0.0000000  0  8G26G10G29G12G05G04G25G02
   5186823.72946   4055308.67642  24779112.4454                   24779110.0044
 -17401730.40247 -13545954.04344  22703312.5784                   22703310.6414
  -2594060.41047  -2009101.37544  23479273.1884                   23479270.4384
 -23035261.57848 -17934733.96546  21094202.4534                   21094199.3324
 -25218482.59448 -19635395.18447  20380835.4384                   20380832.0594
 -14360834.59046 -11173590.94142  24542554.9384                   24542553.9454
 -14468928.26648 -11259530.61346  21837154.5864                   21837154.4734
 -26726377.90248 -20810200.00846  21373420.1884                   21373415.1764
 11  8 16  2  6 30.0000000  0  8G26G10G29G12G05G04G25G02
   5068588.42246   3963177.39843  24756612.0704                   24756610.6134
 -17334444.47347 -13493523.44544  22716116.5704                   22716114.1564
  -2701740.81247  -2093008.09044  23458781.9614                   23458779.7624
 -23022127.37148 -17924499.52346  21096701.6254                   21096698.7704
 -25246148.59848 -19656953.08647  20375570.7584                   20375567.6644
 -14305905.27046 -11130788.88743  24553008.3524                   24553005.8794
 -14522346.05548 -11301154.84046  21826989.9064                   21826989.7384
 -26716921.95748 -20802831.71946  21375219.4534                   21375214.5434
 11  8 16  2  7  0.0000000  0  8G26G10G29G12G05G04G25G02
   4950254.56345   3870969.32043  24734094.2114                   24734093.5554
 -17266840.34446 -13440844.93444  22728980.6644                   22728978.7974
  -2809414.54347  -2176909.59045  23438292.3284                   23438290.1214
 -23008451.14848 -17913842.73046  21099304.2734                   21099301.0784
 -25273233.86348 -19678058.46547  20370416.8674                   20370413.3094
 -14251028.25846 -11088027.54743  24563450.5234                   24563449.4804
 -14575190.82847 -11342332.55946  21816933.9454                   21816933.2274
 -26707349.49248 -20795372.64846  21377040.8364                   21377035.5864
 11  8 16  2  7 30.0000000  0  8G26G10G29G12G05G04G25G02
   4831823.70746   3778685.65643  24711557.4144                   24711556.2034
 -17198922.61347 -13387922.02044  22741906.1414                   22741903.0594
  -2917081.94547  -2260806.18045  23417804.0944                   23417802.1214
 -22994236.47348 -17902766.37546  21102009.2584                   21102006.0164
 -25299741.02048 -19698713.36747  20365372.3984                   20365369.5434
 -14196205.52346 -11045308.56243  24573883.0164                   24573882.4964
 -14627463.32048 -11383064.35946  21806986.9064                   21806985.8834
 -26697662.51647 -20787824.34846  21378884.2814                   21378879.4384
 11  8 16  2  8  0.0000000  0  8G26G10G29G12G05G04G25G02
   4713299.18446   3686329.02343  24689003.0944                   24689001.9304
 -17130693.33646 -13334756.35944  22754889.5634                   22754887.1214
  -3024741.09047  -2344696.32445  23397317.0474                   23397315.3714
 -22979483.86748 -17891270.83246  21104816.9144                   21104812.9964
 -25325669.39548 -19718917.28547  20360438.4924                   20360435.1644
 -14141436.44546 -11002631.29743  24584306.0004                   24584303.7234
 -14679162.00047 -11423349.02346  21797148.9694                   21797148.5824
 -26687860.61747 -20780186.48846  21380749.5474                   21380744.5004
 11  8 16  2  8 30.0000000  0  8G26G10G29G12G05G04G25G02
   4594682.56346   3593900.59843  24666430.3524                   24666429.7544
 -17062157.19547 -13281351.58244  22767931.5234                   22767928.8754
  -3132392.40647  -2428580.38344  23376831.4384                   23376829.3014
 -22964196.38348 -17879358.51646  21107725.8444                   21107722.2544
 -25351021.35948 -19738672.04347  20355614.4614                   20355610.8484
 -14086723.15246 -10959997.53143  24594717.4924                   24594715.0204
 -14730287.70747 -11463187.21546  21787419.8914                   21787419.3204
 -26677946.23047 -20772460.97346  21382636.1804                   21382630.8484
 11  8 16  2  9  0.0000000  0  8G26G10G29G12G05G04G25G02
   4475977.44546   3501403.19943  24643842.1174                   24643839.9774
 -16993316.59446 -13227709.55944  22781030.7734                   22781028.9654
  -3240033.70747  -2512456.65245  23356347.6024                   23356345.9264
 -22948375.55548 -17867030.60946  21110736.4844                   21110732.8674
 -25375796.71148 -19757977.48447  20350899.2504                   20350896.3444
 -14032065.21146 -10917406.94143  24605118.0704                   24605115.6644
 -14780839.06248 -11502577.87146  21777800.6174                   21777799.2894
 -26667919.41448 -20764647.85946  21384544.6484                   21384539.2034
 11  8 16  2  9 30.0000000  0  8G26G10G29G12G05G04G25G02
   4357188.41046   3408840.43043  24621237.3834                   24621235.9884
 -16924172.31246 -13173830.91444  22794189.4224                   22794186.7544
  -3347662.06247  -2596322.82845  23335866.4614                   23335865.6604
 -22932021.05948 -17854286.85246  21113848.3134                   21113844.9574
 -25399994.25448 -19776832.69547  20346294.8204                   20346291.5824
 -13977461.07846 -10874858.25043  24615508.8134                   24615507.0474
 -14830813.46548 -11541518.94546  21768290.8054                   21768290.0274
 -26657778.78548 -20756746.07046  21386474.0784                   21386468.9534
 11  8 16  2 10  0.0000000  0  8G26G10G29G12G05G04G25G02
   4238317.21147   3316213.65643  24598616.4614                   24598615.1564
 -16854728.87147 -13119719.13344  22807404.0164                   22807401.0394
  -3455277.36347  -2680178.82845  23315388.1484                   23315386.9264
 -22915135.73048 -17841129.45746  21117061.4774                   21117058.2854
 -25423615.97347 -19795239.21547  20341799.7814                   20341796.3164
 -13922912.39146 -10832352.76243  24625888.7034                   24625887.7274
 -14880211.54348 -11580010.93746  21758890.3524                   21758890.3164
 -26647526.16448 -20748757.00846  21388424.9454                   21388419.7464
 11  8 16  2 10 30.0000000  0  8G26G10G29G12G05G04G25G02
   4119366.90247   3223525.19943  24575981.6564                   24575979.7074
 -16784988.94146 -13065376.33244  22820675.3364                   22820672.3054
  -3562877.97346  -2764023.36745  23294912.6564                   23294910.5664
 -22897721.38748 -17827559.84846  21120375.3674                   21120372.1724
 -25446662.62548 -19813197.62147  20337413.9144                   20337410.8954
 -13868419.08247 -10789890.45343  24636259.1414                   24636256.9264
 -14929032.62947 -11618053.31646  21749599.8594                   21749599.2344
 -26637162.13747 -20740681.11346  21390397.3754                   21390392.4734
 11  8 16  2 11  0.0000000  0  8G26G10G29G12G05G04G25G02
   4000341.08246   3130777.91043  24553331.1484                   24553330.4694
 -16714954.87546 -13010804.33644  22834002.4924                   22833999.2974
  -3670461.93746  -2847854.95344  23274439.5704                   23274437.2344
 -22879779.33648 -17813579.03146  21123789.8204                   21123786.2934
 -25469134.05148 -19830707.80947  20333137.7664                   20333134.8484
 -13813981.10247 -10747471.20343  24646617.9844                   24646616.5824
 -14977275.35548 -11655645.02746  21740419.8984                   21740419.5164
 -26626686.74247 -20732518.46546  21392390.4924                   21392385.4064
 11  8 16  2 11 30.0000000  0  8G26G10G29G12G05G04G25G02
   3881243.71146   3037974.86343  24530667.0234                   24530666.4224
 -16644628.49647 -12956004.54744  22847384.5234                   22847381.9264
  -3778026.89846  -2931671.73445  23253970.5944                   23253969.1524
 -22861310.27048 -17799187.55546  21127303.8754                   21127300.8874
 -25491030.02348 -19847769.58247  20328971.1334                   20328967.9144
 -13759597.44946 -10705094.31243  24656966.7734                   24656965.0164
 -15024938.08648 -11692784.80146  21731349.8284                   21731349.2304
 -26616099.52747 -20724268.67646  21394404.9614                   21394399.7704
 11  8 16  2 12  0.0000000  0  8G26G10G29G12G05G04G25G02
   3762075.23846   2945116.38743  24507990.0784                   24507988.7154
 -16574015.48046 -12900981.41844  22860822.8594                   22860819.4884
  -3885574.32046  -3015474.82445  23233505.0084                   23233503.6844
 -22842318.40648 -17784388.70346  21130918.3594                   21130915.2894
 -25512353.66048 -19864385.38747  20324913.5164                   20324909.8524
 -13705271.10546 -10662762.07843  24667305.0864                   24667303.3524
 -15072022.84448 -11729474.19946  21722389.3914                   21722388.9144
 -26605403.53547 -20715934.12146  21396440.3984                   21396435.0824
 11  8 16  2 12 30.0000000  0  8G26G10G29G12G05G04G25G02
   3642839.83646   2852205.78543  24485300.3204                   24485299.6414
 -16503117.46146 -12845736.21144  22874313.8984                   22874310.4184
  -3993101.37947  -3099262.08245  23213043.8134                   23213041.2734
 -22822804.71148 -17769183.23046  21134631.6024                   21134628.8954
 -25533104.62948 -19880554.95747  20320964.8284                   20320961.4454
 -13651001.28546 -10620473.87143  24677631.7814                   24677630.2624
 -15118527.93748 -11765711.91046  21713540.4144                   21713540.5824
 -26594598.02347 -20707514.22746  21398496.7194                   21398491.5234
 11  8 16  2 13  0.0000000  0  8G26G10G29G12G05G04G25G02
   3523541.78546   2759246.37543  24462598.4384                   24462597.5744
 -16431936.50046 -12790270.51644  22887858.7424                   22887855.1954
  -4100605.51647  -3183031.48045  23192586.4534                   23192583.5164
 -22802769.75448 -17753571.57846  21138443.9384                   21138441.1724
 -25553282.87147 -19896278.24247  20317124.9224                   20317121.6374
 -13596786.61746 -10578228.72343  24687948.6884                   24687947.5084
 -15164451.55948 -11801496.52746  21704801.0944                   21704800.7584
 -26583682.55947 -20699008.65646  21400573.8914                   21400568.9304
 11  8 16  2 13 30.0000000  0  8G26G10G29G12G05G04G25G02
   3404182.03546   2666238.85543  24439885.1954                   24439883.0824
 -16360477.13346 -12734587.87944  22901456.8524                   22901453.8524
  -4208087.35547  -3266783.48045  23172132.8674                   23172131.1174
 -22782216.86348 -17737556.35246  21142355.3444                   21142351.9064
 -25572890.90247 -19911557.20347  20313393.5164                   20313390.4774
 -13542629.49246 -10536028.34843  24698254.6884                   24698253.1334
 -15209795.07848 -11836829.10946  21696172.7344                   21696172.2344
 -26572659.53147 -20690419.28546  21402671.6094                   21402666.5634
 11  8 16  2 14  0.0000000  0  8G26G10G29G12G05G04G25G02
   3284763.85247   2573185.80143  24417161.1414                   24417159.7424
 -16288742.41046 -12678690.68744  22915107.5394                   22915105.2344
  -4315545.38746  -3350516.92245  23151684.0704                   23151682.2774
 -22761148.60248 -17721139.53146  21146364.0634                   21146361.1294
 -25591929.25048 -19926392.26647  20309771.0084                   20309767.6684
 -13488530.12947 -10493873.00043  24708549.9224                   24708547.8054
 -15254558.08648 -11871709.35546  21687654.2894                   21687653.9844
 -26561529.44147 -20681746.46546  21404789.5004                   21404784.4734
 11  8 16  2 14 30.0000000  0  7G26G10G29G12G05G25G02
   3165290.25846   2480089.57443  24394425.5164                   24394424.0634
 -16216735.28946 -12622581.25844  22928810.2504                   22928807.3914
  -4422978.00847  -3434230.60245  23131240.5634                   23131237.9344
 -22739566.42648 -17704322.25046  21150471.5704                   21150468.1254
 -25610399.00848 -19940784.26647  20306256.1564                   20306252.6724
 -15298739.95748 -11906136.77346  21679246.9844                   21679246.4574
 -26550292.64147 -20672990.51246  21406927.7584                   21406922.8984
 11  8 16  2 15  0.0000000  0  7G26G10G29G12G05G25G02
   3045766.39546   2386954.16443  24371680.8834                   24371678.6134
 -16144456.50846 -12566260.14144  22942564.2504                   22942561.7544
  -4530381.89846  -3517921.88745  23110802.0474                   23110799.8794
 -22717470.37948 -17687104.56246  21154676.0634                   21154672.9264
 -25628298.96948 -19954732.26247  20302849.6334                   20302846.2814
 -15342338.32048 -11940109.50446  21670950.8284                   21670949.5744
 -26538947.90247 -20664150.44946  21409086.5394                   21409081.7814
 11  8 16  2 15 30.0000000  0  7G26G10G29G12G05G25G02
   2926201.49646   2293786.78543  24348928.6024                   24348927.1564
 -16071902.74246 -12509724.73044  22956370.6414                   22956367.6294
  -4637749.32446  -3601584.73445  23090370.6884                   23090368.8984
 -22694855.93048 -17669482.92246  21158979.3284                   21158976.1684
 -25645623.91448 -19968232.21147  20299552.8364                   20299549.3014
 -15385346.45348 -11973622.30546  21662766.1954                   21662765.3954
 -26527489.26647 -20655221.62146  21411267.0234                   21411261.4494
 11  8 16  2 16  0.0000000  0  7G26G10G29G12G05G25G02
   2806601.80546   2200592.31343  24326169.0634                   24326168.3364
 -15999074.09046 -12452975.12544  22970229.5944                   22970226.6914
  -4745075.60946  -3685215.52345  23069947.3054                   23069945.3164
 -22671722.50048 -17651456.87546  21163381.8444                   21163378.2194
 -25662371.33647 -19981282.12147  20296365.8594                   20296362.5044
 -15427760.89548 -12006672.48846  21654694.9224                   21654694.6564
 -26515914.14547 -20646202.03946  21413469.8444                   21413464.5044
 11  8 16  2 16 30.0000000  0  7G26G10G29G12G05G25G02
   2686971.33646   2107373.87543  24303404.5164                   24303403.0434
 -15925972.15246 -12396012.59044  22984140.3284                   22984138.1174
  -4852358.45746  -3768812.48445  23049532.0004                   23049529.5904
 -22648070.65648 -17633026.86746  21167882.5784                   21167879.3524
 -25678541.23447 -19993882.02347  20293288.8524                   20293285.6094
 -15469580.34448 -12039259.05546  21646737.1724                   21646736.9454
 -26504222.05547 -20637091.31246  21415694.5474                   21415689.5394
 11  8 16  2 17  0.0000000  0  7G26G10G29G12G05G25G02
   2567307.38346   2014129.29343  24280632.9384                   24280630.8594
 -15852606.17646 -12338844.30544  22998101.2274                   22998099.0554
  -4959602.27747  -3852379.02045  23029123.4144                   23029121.9964
 -22623908.84048 -17614199.48446  21172480.2974                   21172477.2194
 -25694141.01248 -20006037.68047  20290320.1884                   20290316.8364
 -15510810.39548 -12071386.34846  21638891.1024                   21638890.5314
 -26492419.66047 -20627894.63746  21417940.7194                   21417935.9654
 11  8 16  2 17 30.0000000  0  7G26G10G29G12G05G25G02
   2447613.29747   1920861.25043  24257856.2424                   24257855.1724
 -15778978.37146 -12281471.99644  23012112.3914                   23012109.6374
  -5066805.18047  -3935913.67645  23008723.9774                   23008721.4454
 -22599238.22348 -17594975.62546  21177175.2344                   21177171.8954
 -25709170.94148 -20017749.28947  20287460.2034                   20287456.7934
 -15551450.26648 -12103053.76646  21631157.7734                   21631157.1454
 -26480506.77347 -20618611.84446  21420207.3914                   21420202.5554
 11  8 16  2 18  0.0000000  0  7G26G10G29G12G05G25G02
   2327890.36746   1827570.75043  24235073.0634                   24235071.6724
 -15705093.65246 -12223899.48844  23026171.6804                   23026169.4694
  -5173967.34047  -4019416.61345  22988331.6564                   22988328.3164
 -22574063.02348 -17575358.60246  21181965.6884                   21181962.5234
 -25723634.04347 -20029019.22747  20284707.9774                   20284704.6294
 -15591501.67248 -12134262.63346  21623536.1954                   21623535.6484
 -26468485.75847 -20609244.80946  21422494.7344                   21422489.6564
 11  8 16  2 18 30.0000000  0  7G26G10G29G12G05G25G02
   2208139.73447   1734258.61343  24212285.6564                   24212283.5204
 -15630956.94146 -12166130.61344  23040280.1804                   23040277.3244
  -5281089.55947  -4102888.40645  22967946.1484                   22967944.5314
 -22548387.30148 -17555351.54346  21186851.5084                   21186848.2074
 -25737533.19148 -20039849.71147  20282063.2894                   20282059.5594
 -15630966.37148 -12165014.32046  21616026.3134                   21616025.8524
 -26456359.26248 -20599795.57446  21424802.7034                   21424797.4184
 11  8 16  2 19  0.0000000  0  7G26G10G29G12G05G25G02
   2088366.91446   1640929.19943  24189493.2114                   24189492.3524
 -15556568.69147 -12108165.75044  23054435.3134                   23054432.7034
  -5388167.92247  -4186326.01645  22947570.2034                   22947568.7974
 -22522210.38748 -17534953.95346  21191833.0084                   21191829.4574
 -25750867.11348 -20050239.76647  20279525.6414                   20279522.5434
 -15669841.57448 -12195306.66046  21608628.3984                   21608628.2974
 -26444125.23048 -20590262.54746  21427130.8054                   21427125.4574
 11  8 16  2 19 30.0000000  0  7G26G10G29G12G05G25G02
   1968572.44947   1547582.91843  24166697.6174                   24166695.8164
 -15481934.80946 -12050009.44944  23068637.8054                   23068635.3244
  -5495203.28147  -4269730.12145  22927201.7584                   22927200.0514
 -22495537.19548 -17514169.65646  21196908.9454                   21196905.4774
 -25763639.55148 -20060192.29747  20277094.8134                   20277091.9884
 -15708129.91448 -12225141.72346  21601342.3674                   21601341.8834
 -26431786.65648 -20580648.05546  21429478.5704                   21429473.2624
 11  8 16  2 20  0.0000000  0  7G26G10G29G12G05G25G02
   1848757.82447   1454220.95343  24143897.3134                   24143895.6414
 -15407059.66846 -11991665.19944  23082885.9924                   23082883.3324
  -5602195.90647  -4353100.92245  22906842.0944                   22906839.8874
 -22468371.91048 -17493001.90246  21202078.2344                   21202074.8164
 -25775853.21948 -20069709.42647  20274770.9924                   20274767.3404
 -15745832.68748 -12254520.48046  21594167.8834                   21594167.2624
 -26419345.73848 -20570953.81646  21431845.8594                   21431841.4454
 11  8 16  2 20 30.0000000  0  7G26G10G29G12G05G25G02
   1728928.15247   1360847.21944  24121094.2194                   24121094.2624
 -15331943.99247 -11933133.48444  23097180.0864                   23097176.2734
  -5709142.35947  -4436435.76245  22886490.8284                   22886488.4344
 -22440714.54348 -17471450.70746  21207341.0004                   21207337.8364
 -25787507.30548 -20078790.51247  20272553.1174                   20272549.9844
 -15782947.92648 -12283441.42646  21587105.0164                   21587104.0704
 -26406801.02748 -20561178.69946  21434233.1484                   21434227.9454
 11  8 16  2 21  0.0000000  0  7G26G10G29G12G05G25G02
   1609083.16447   1267461.55944  24098288.8984                   24098287.0784
 -15256594.05547 -11874419.22744  23111518.7664                   23111515.8954
  -5816044.57047  -4519736.11345  22866147.4534                   22866145.7274
 -22412570.59848 -17449520.37946  21212696.5554                   21212693.4924
 -25798606.37948 -20087439.11747  20270440.9224                   20270437.7734
 -15819478.85248 -12311907.07046  21580153.3364                   21580152.6644
 -26394156.23448 -20551325.59446  21436639.4614                   21436634.1484
 11  8 16  2 21 30.0000000  0  7G26G10G29G12G05G25G02
   1489229.35246   1174069.02743  24075480.6414                   24075479.3754
 -15181009.75447 -11815522.36344  23125901.4774                   23125900.2624
  -5922897.53547  -4602998.09845  22845814.1724                   22845812.4064
 -22383939.07448 -17427210.09846  21218145.0234                   21218141.8244
 -25809148.43747 -20095653.68747  20268435.3204                   20268431.7384
 -15855422.25048 -12339914.89146  21573313.5864                   21573312.8284
 -26381408.83648 -20541392.53946  21439065.2814                   21439059.7774
 11  8 16  2 22  0.0000000  0  7G26G10G29G12G05G25G02
   1369368.71946   1080671.16843  24052672.6564                   24052670.7934
 -15105195.21547 -11756446.11744  23140328.6174                   23140326.6764
  -6029700.96547  -4686221.49645  22825490.0864                   22825487.9104
 -22354823.01248 -17404522.27046  21223685.7894                   21223682.6564
 -25819135.90648 -20103436.11347  20266534.5634                   20266531.1724
 -15890779.12148 -12367465.68446  21566585.5784                   21566584.8284
 -26368560.14848 -20531380.54346  21441510.2424                   21441504.9964
 11  8 16  2 22 30.0000000  0  7G26G10G29G12G05G25G02
   1249504.14546    987270.27343  24029862.5084                   24029861.0004
 -15029153.57047 -11697192.90244  23154799.3054                   23154796.7504
  -6136453.60247  -4769405.30945  22805175.8674                   22805173.7664
 -22325225.41048 -17381459.20746  21229317.9774                   21229314.9774
 -25828570.13748 -20110787.44147  20264739.0474                   20264735.9264
 -15925549.69948 -12394559.62946  21559968.6024                   21559968.3794
 -26355610.66048 -20521290.02746  21443974.2424                   21443968.9804
 11  8 16  2 23  0.0000000  0  7G26G10G29G12G05G25G02
   1129641.03146    893870.53543  24007053.8594                   24007051.6844
 -14952885.44947 -11637763.18744  23169312.9924                   23169310.4384
  -6243151.42647  -4852546.39545  22784871.7504                   22784869.5824
 -22295146.00848 -17358020.70746  21235041.8444                   21235038.5704
 -25837450.28948 -20117707.01247  20263049.2194                   20263046.0124
 -15959731.83648 -12421195.04746  21553464.2344                   21553463.1954
 -26342559.05948 -20511119.93446  21446457.9924                   21446452.7504
 11  8 16  2 23 30.0000000  0  7G26G10G29G12G05G25G02
   1009781.34846    800473.43843  23984245.3444                   23984244.1804
 -14876395.17647 -11578160.37544  23183868.2344                   23183865.8444
  -6349794.44147  -4935644.77745  22764578.4614                   22764576.7774
 -22264588.98848 -17334210.06246  21240856.9224                   21240853.7344
 -25845778.91848 -20124196.84447  20261464.4064                   20261461.1884
 -15993326.96548 -12447373.04746  21547071.0704                   21547071.0004
 -26329406.96548 -20500871.53146  21448960.9614                   21448955.6994
 11  8 16  2 24  0.0000000  0  7G26G10G29G12G05G25G02
    889927.63346    707080.97743  23961437.9774                   23961436.5554
 -14799686.39147 -11518387.28944  23198465.4694                   23198462.9024
  -6456381.59047  -5018699.61345  22744295.2814                   22744293.0984
 -22233556.89548 -17310029.21946  21246761.9844                   21246758.9884
 -25853557.87948 -20130258.35547  20259983.9144                   20259980.8204
 -16026335.65648 -12473094.09846  21540789.7194                   21540789.2504
 -26316155.30148 -20490545.54746  21451482.3444                   21451476.9924
 11  8 16  2 24 30.0000000  0  7G26G10G29G12G05G25G02
    770085.46946    613697.56643  23938632.7034                   23938631.1214
 -14722759.67647 -11458444.36744  23213104.6174                   23213101.2664
  -6562909.17647  -5101708.07445  22724023.7814                   22724021.2664
 -22202050.00048 -17285478.39146  21252757.3284                   21252754.0274
 -25860786.68448 -20135891.16847  20258608.2584                   20258605.0084
 -16058755.85248 -12498356.57046  21534620.4694                   21534619.6094
 -26302802.16448 -20480140.48446  21454023.6094                   21454018.7774
 11  8 16  2 25  0.0000000  0  7G26G10G29G12G05G25G02
    650257.03546    520324.80943  23915830.1024                   23915828.4384
 -14645618.80947 -11398334.59444  23227783.4694                   23227780.3594
  -6669376.19147  -5184669.33645  22703764.5394                   22703761.5554
 -22170071.29348 -17260559.92646  21258842.6644                   21258839.5004
 -25867467.46148 -20141096.94947  20257337.0394                   20257333.5514
 -16090588.51248 -12523161.23446  21528562.9774                   21528561.9224
 -26289348.94148 -20469657.43446  21456583.3674                   21456578.2194
 11  8 16  2 25 30.0000000  0  7G26G10G29G12G05G25G02
    530446.26146    426965.82444  23893030.5864                   23893029.8324
 -14568265.93747 -11338059.60544  23242503.9454                   23242499.9844
  -6775780.62547  -5267581.78945  22683514.7344                   22683513.4534
 -22137622.51248 -17235275.16846  21265017.6254                   21265014.0354
 -25873600.53148 -20145875.94147  20256169.8674                   20256166.7274
 -16121833.03148 -12547507.60246  21522617.0704                   21522616.6994
 -26275795.59448 -20459096.38346  21459162.6954                   21459157.2974
 11  8 16  2 26  0.0000000  0  7G26G10G29G12G05G25G02
    410655.00846    333622.05143  23870234.8204                   23870233.0314
 -14490705.36347 -11277622.79344  23257262.8674                   23257258.9654
  -6882121.91047  -5350445.05145  22663279.7584                   22663277.2114
 -22104707.21948 -17209626.89846  21271280.9774                   21271278.1134
 -25879188.65247 -20150230.30147  20255106.5474                   20255103.0784
 -16152490.97748 -12571396.89546  21516783.2504                   21516782.4884
 -26262143.69548 -20448458.52746  21461760.3914                   21461755.0084
 11  8 16  2 26 30.0000000  0  7G26G10G29G12G05G25G02
    290885.22347    240294.98044  23847444.3284                   23847442.3014
 -14412941.26247 -11217027.39544  23272060.3134                   23272057.6334
  -6988399.96947  -5433259.05945  22643055.0784                   22643053.6254
 -22071329.57848 -17183618.35246  21277632.7974                   21277629.5704
 -25884234.72748 -20154162.29347  20254146.3444                   20254142.8524
 -16182564.00448 -12594830.42246  21511060.2814                   21511059.6884
 -26248394.83248 -20437745.10546  21464377.0634                   21464372.0124
 11  8 16  2 27  0.0000000  0  7G26G10G29G12G05G25G02
    171143.22347    146989.56344  23824657.9224                   23824656.3244
 -14334973.62947 -11156273.41444  23286897.4924                   23286894.7234
  -7094610.18747  -5516020.19545  22622844.3134                   22622841.9454
 -22037488.77048 -17157248.90646  21284072.5944                   21284069.5044
 -25888737.40648 -20157670.85547  20253289.6414                   20253286.2624
 -16212049.24248 -12617805.93046  21505449.6564                   21505449.2384
 -26234546.41848 -20426954.13746  21467012.1254                   21467006.6644
 11  8 16  2 27 30.0000000  0  7G26G10G29G12G05G25G02
     51431.19946     53707.53144  23801876.6564                   23801875.1994
 -14256806.05147 -11095363.62144  23301772.1884                   23301769.1914
  -7200752.09047  -5598728.08645  22602645.5314                   22602643.6334
 -22003188.23447 -17130521.21546  21290599.6254                   21290596.7704
 -25892698.95348 -20160757.75447  20252535.9694                   20252532.7854
 -16240947.95748 -12640324.41046  21499950.3524                   21499949.6024
 -26220600.02748 -20416086.79346  21469666.0234                   21469660.7584
 11  8 16  2 28  0.0000000  0  7G26G10G29G12G05G25G02
    -68248.09046    -39549.04344  23779102.8914                   23779100.8444
 -14178442.47747 -11034301.09444  23316684.6334                   23316681.5864
  -7306823.93047  -5681381.42645  22582461.3284                   22582458.0904
 -21968431.16848 -17103437.80146  21297213.8524                   21297210.8244
 -25896121.35948 -20163424.54747  20251884.1564                   20251881.2544
 -16269261.02348 -12662386.51646  21494562.5634                   21494562.0274
 -26206556.19948 -20405143.54346  21472338.6414                   21472332.8984
 11  8 16  2 28 30.0000000  0  7G26G10G29G12G05G25G02
   -187889.19146   -132775.78544  23756336.0864                   23756334.3484
 -14099883.03547 -10973085.94544  23331633.5634                   23331631.0664
  -7412822.41847  -5763977.59445  22562290.5474                   22562288.1024
 -21933217.60248 -17075998.65246  21303914.6644                   21303911.6414
 -25899003.95748 -20165670.70747  20251335.5704                   20251332.3484
 -16296986.43748 -12683990.74646  21489286.4384                   21489285.8054
 -26192413.47348 -20394123.22746  21475029.7344                   21475024.6094
 11  8 16  2 29  0.0000000  0  7G26G10G29G12G05G25G02
   -307489.55547   -225970.80544  23733575.9774                   23733574.7034
 -14021131.58247 -10911721.18044  23346619.9304                   23346616.6764
  -7518746.73047  -5846515.92645  22542133.3984                   22542132.1684
 -21897550.85948 -17048206.40246  21310701.7034                   21310698.6174
 -25901349.12948 -20167498.09047  20250889.4694                   20250886.1134
 -16324125.46548 -12705138.02346  21484121.7814                   21484121.3364
 -26178172.66848 -20383026.48046  21477739.4924                   21477733.8834
 11  8 16  2 29 30.0000000  0  7G26G10G29G12G05G25G02
   -427047.02746   -319132.42244  23710825.2424                   23710823.9104
 -13942192.21547 -10850209.98844  23361640.9614                   23361637.5784
  -7624596.42247  -5928996.12945  22521990.9304                   22521988.7304
 -21861434.28148 -17020063.60946  21317574.6414                   21317571.5234
 -25903159.60548 -20168908.82847  20250544.7814                   20250541.5664
 -16350679.52748 -12725829.49646  21479068.8984                   21479068.8244
 -26163835.47348 -20371854.62546  21480467.4454                   21480461.8984
 11  8 16  2 30  0.0000000  0  7G26G10G29G12G05G25G02
   -546556.23446   -412256.38344  23688082.5784                   23688082.0084
 -13863065.55547 -10788552.84043  23376698.3444                   23376694.7424
  -7730367.02347  -6011414.73045  22501863.6644                   22501860.9884
 -21824868.87148 -16991571.08646  21324532.8204                   21324529.5784
 -25904434.59048 -20169902.30947  20250302.3284                   20250299.0554
 -16376646.87948 -12746063.79346  21474127.5394                   21474127.2934
 -26149399.89548 -20360606.10946  21483214.6804                   21483209.4694
 11  8 16  2 30 30.0000000  0  7G26G10G29G12G05G25G02
   -666016.19146   -505342.02744  23665350.4924                   23665349.1454
 -13783757.15246 -10726754.09043  23391789.7974                   23391786.7734
  -7836059.48047  -6093772.43045  22481750.5704                   22481748.0004
 -21787859.46148 -16962732.59846  21331575.6484                   21331572.2894
 -25905178.36748 -20170481.85547  20250160.9384                   20250157.5904
 -16402030.50448 -12765843.22346  21469297.2584                   21469296.7234
 -26134869.02748 -20349283.34046  21485979.9224                   21485975.0474
 11  8 16  2 31  0.0000000  0  7G26G10G29G12G05G25G02
   -785420.59846   -598384.32844  23642628.4694                   23642627.1214
 -13704266.43446 -10664813.28543  23406916.1334                   23406912.9654
  -7941669.02047  -6176065.51245  22461654.2194                   22461651.7934
 -21750405.26648 -16933547.51246  21338702.5704                   21338699.2734
 -25905389.38747 -20170646.27347  20250120.9614                   20250117.3714
 -16426827.70348 -12785165.71946  21464578.6094                   21464577.7814
 -26120239.96548 -20337884.05946  21488763.6644                   21488758.1914
 11  8 16  2 31 30.0000000  0  7G26G10G29G12G05G25G02
   -904768.52046   -691382.64144  23619917.7974                   23619916.4494
 -13624598.87146 -10602734.63743  23422076.8054                   23422073.1294
  -8047196.50847  -6258294.67245  22441572.8524                   22441569.9574
 -21712511.31648 -16904019.76246  21345913.7194                   21345910.9264
 -25905071.53548 -20170398.58247  20250181.2274                   20250177.7894
 -16451041.30948 -12804033.45346  21459970.9844                   21459970.5634
 -26105515.40248 -20326410.34846  21491565.7814                   21491560.1214
 11  8 16  2 32  0.0000000  0  7G26G10G29G12G05G25G02
  -1024055.03946   -784333.12944  23597218.0554                   23597217.2074
 -13544755.76646 -10540519.22743  23437270.8674                   23437267.5704
  -8152638.36747  -6340457.11745  22421508.1484                   22421505.3484
 -21674178.58247 -16874150.10946  21353208.0864                   21353205.3874
 -25904225.06648 -20169738.97747  20250342.1564                   20250338.4104
 -16474670.35548 -12822445.68446  21455474.3834                   21455473.9614
 -26090694.25448 -20314861.39146  21494385.9454                   21494380.8484
 11  8 16  2 32 30.0000000  0  7G26G10G29G12G05G25G02
  -1143278.28946   -877234.30544  23574530.9064                   23574529.2814
 -13464741.21547 -10478170.25044  23452497.4694                   23452494.2584
  -8257994.79347  -6422552.97745  22401458.9064                   22401457.1254
 -21635411.43747 -16843941.94546  21360585.2894                   21360582.2344
 -25902852.93748 -20168669.76247  20250603.3284                   20250599.8284
 -16497716.65248 -12840403.83646  21451088.8674                   21451088.4454
 -26075777.87548 -20303238.23046  21497224.6094                   21497219.2814
 11  8 16  2 33  0.0000000  0  8G26G10G29G12G05G15G25G02
  -1262435.54746   -970084.05144  23551855.7034                   23551853.6914
 -13384558.86747 -10415690.50044  23467754.8524                   23467752.7704
  -8363264.72747  -6504581.43745  22381426.7734                   22381424.7774
 -21596212.67648 -16813397.46546  21368044.8754                   21368041.2114
 -25900957.53548 -20167192.82047  20250964.1724                   20250960.5634
   6128071.42656   4788825.86353  24470288.3204                   24470288.3204
 -16520181.65648 -12857909.02746  21446813.7734                   21446813.1564
 -26060767.63748 -20291541.92246  21500080.7894                   21500075.6844
 11  8 16  2 33 30.0000000  0  8G26G10G29G12G05G15G25G02
  -1381529.58247  -1062884.53944  23529192.8754                   23529190.7934
 -13304217.57847 -10353086.88344  23483043.8984                   23483041.3834
  -8468452.16047  -6586545.59845  22361410.0944                   22361407.7934
 -21556591.37947 -16782523.73846  21375584.2664                   21375580.7154
 -25898546.77347 -20165314.28147  20251422.5634                   20251419.6024
   6010366.45746   4697107.85944  24447889.5704                   24447890.2384
 -16542071.90648 -12874966.36746  21442648.4534                   21442647.7934
 -26045669.63348 -20279777.23446  21502954.0084                   21502948.8954
 11  8 16  2 34  0.0000000  0  8G26G10G29G12G05G15G25G02
     74866.31646     71969.45344  23806336.1024                   23806334.6804
 -11648303.44547  -9062764.19544  23798153.4384                   23798151.1094
  -6998132.56247  -5440841.96145  22641202.5944                   22641200.1884
 -19941132.28947 -15523724.45746  21682995.9304                   21682992.8054
 -24320203.16847 -18935436.14147  20551771.4614                   20551768.1094
   7467956.96946   5832892.84444  24725260.1724                   24725259.6334
 -14987968.00048 -11663976.30146  21738384.2584                   21738383.8874
 -24455065.52748 -19040345.43746  21805635.9844                   21805630.7344
 11  8 16  2 34 30.0000000  0  8G26G10G29G12G05G15G25G02
    -44094.69146    -20727.37143  23783698.4614                   23783695.9344
 -11567656.24647  -8999922.23044  23813500.1334                   23813498.1564
  -7103153.36347  -5522676.30145  22621218.1564                   22621215.5744
 -19900677.34847 -15492201.12546  21690694.1484                   21690691.4184
 -24316770.23847 -18932761.11747  20552424.7194                   20552421.2974
   7349995.53746   5740975.05144  24702812.4774                   24702811.8094
 -15008714.19548 -11680142.16046  21734436.4774                   21734435.8674
 -24439796.63748 -19028447.59846  21808541.6954                   21808535.6294
 11  8 16  2 35  0.0000000  0  8G26G10G29G12G05G15G25G02
   -162979.70347   -113364.98444  23761075.1884                   23761073.2664
 -11486856.05946  -8936961.05144  23828875.9844                   23828873.6914
  -7208084.08647  -5604440.44545  22601250.5164                   22601247.6294
 -19859805.34047 -15460352.82046  21698471.7424                   21698469.0984
 -24312824.53947 -18929686.53147  20553175.6724                   20553172.1564
   7231913.60246   5648963.27044  24680342.8204                   24680341.4494
 -15028885.07447 -11695859.71946  21730598.0474                   21730597.0984
 -24424438.59848 -19016480.28546  21811463.9144                   21811458.8054
 11  8 16  2 35 30.0000000  0  8G26G10G29G12G05G15G25G02
   -281783.89147   -205939.58644  23738467.5004                   23738465.2424
 -11405903.93046  -8873881.53543  23844280.8594                   23844277.9844
  -7312920.79747  -5686131.33645  22581300.0004                   22581298.1644
 -19818517.09047 -15428180.15646  21706328.7664                   21706325.5634
 -24308365.85248 -18926212.21147  20554023.9924                   20554020.5004
   7113715.52746   5556861.05544  24657849.8834                   24657849.8594
 -15048479.52048 -11711128.10546  21726869.1884                   21726868.4774
 -24408989.58648 -19004442.06646  21814403.6804                   21814398.4534
 11  8 16  2 36  0.0000000  0  8G26G10G29G12G05G15G25G02
   -400503.05547   -298447.93744  23715875.7424                   23715873.9804
 -11324802.28146  -8810685.45343  23859713.9144                   23859711.1024
  -7417661.66847  -5767747.53145  22561369.2274                   22561365.9064
 -19776814.39848 -15395684.56646  21714264.1414                   21714261.7624
 -24303395.95348 -18922339.54747  20554969.7584                   20554966.1484
   6995404.30546   5464670.64143  24635335.6414                   24635334.9264
 -15067497.77048 -11725947.52346  21723250.4064                   21723249.5554
 -24393449.66848 -18992333.03546  21817361.2274                   21817355.5084
 11  8 16  2 36 30.0000000  0  8G26G10G29G12G05G15G25G02
   -519134.50847   -390887.93444  23693301.3754                   23693299.0004
 -11243554.24646  -8747375.34843  23875174.4694                   23875173.1214
  -7522305.14147  -5849287.85545  22541456.0634                   22541453.0354
 -19734700.99248 -15362868.93046  21722278.6484                   21722275.3674
 -24297916.68448 -18918069.97347  20556012.7584                   20556009.0164
   6876981.72346   5372393.47743  24612801.3914                   24612798.9964
 -15085941.07048 -11740318.92646  21719740.7584                   21719740.1214
 -24377819.39148 -18980153.59046  21820335.6484                   21820330.1134
 11  8 16  2 37  0.0000000  0  8G26G10G29G12G05G15G25G02
   -637672.22347   -483254.91044  23670743.9224                   23670741.5634
 -11162159.93047  -8683951.16443  23890664.0004                   23890660.6454
  -7626847.09047  -5930749.06645  22521562.2814                   22521559.8984
 -19692177.29348 -15329733.58246  21730370.3834                   21730367.2854
 -24291927.80548 -18913403.29747  20557152.1644                   20557148.8364
   6758452.68446   5280033.34843  24590244.1884                   24590243.9064
 -15103807.84048 -11754241.07446  21716340.5554                   21716340.4964
 -24362096.56248 -18967902.01246  21823327.1724                   21823322.0554
 11  8 16  2 37 30.0000000  0  8G26G10G29G12G05G15G25G02
   -756110.29747   -575544.21544  23648205.9454                   23648203.6334
 -11080619.74247  -8620413.28943  23906180.8914                   23906175.8244
  -7731283.10947  -6012127.71545  22501688.6884                   22501686.2734
 -19649243.03548 -15296278.33646  21738540.3444                   21738537.8094
 -24285428.38348 -18908338.79347  20558389.0554                   20558385.6174
   6639822.05946   5187594.08243  24567669.9454                   24567669.3444
 -15121096.15648 -11767712.48046  21713051.1254                   21713049.8714
 -24346278.82448 -18955576.48846  21826337.3054                   21826331.8954
 11  8 16  2 38  0.0000000  0  8G26G10G29G12G05G15G25G02
   -874449.14547   -667756.21544  23625686.7114                   23625684.2814
 -10998940.42647  -8556767.01643  23921723.4614                   23921719.0234
  -7835615.05547  -6093425.28145  22481834.9534                   22481832.9574
 -19605904.93748 -15262508.40246  21746787.3984                   21746784.3244
 -24278424.33248 -18902881.07447  20559721.7194                   20559718.3164
   6521088.68446   5095074.68442  24545075.8984                   24545074.7664
 -15137810.81648 -11780736.88746  21709870.5164                   21709869.9024
 -24330370.42648 -18943180.32046  21829364.5554                   21829359.2194
 11  8 16  2 38 30.0000000  0  8G26G10G29G12G05G15G25G02
   -992684.32447   -759887.45344  23603187.2734                   23603185.3444
 -10917123.44547  -8493013.48043  23937293.0084                   23937289.1884
  -7939839.97347  -6174639.44545  22462001.4534                   22461999.1214
 -19562164.61747 -15228425.04346  21755111.2664                   21755107.8594
 -24270915.99648 -18897030.40647  20561150.5394                   20561147.3284
   6402256.25046   5002478.07042  24522462.7424                   24522460.8204
 -15153951.44548 -11793313.98846  21706798.6094                   21706798.1484
 -24314370.39148 -18930712.75046  21832409.1484                   21832403.9494
 11  8 16  2 39  0.0000000  0  8G26G10G29G12G05G15G25G02
  -1110812.19947   -851935.07844  23580707.8754                   23580706.3874
 -10835171.59847  -8429154.90643  23952887.3984                   23952884.0004
  -8043956.05947  -6255768.80145  22442188.8984                   22442185.1844
 -19518024.88747 -15194030.45746  21763510.3754                   21763507.3554
 -24262905.40248 -18890788.37547  20562674.8284                   20562671.3054
   6283327.07046   4909806.08243  24499831.1174                   24499829.1994
 -15169518.84048 -11805444.42646  21703836.4924                   21703836.1524
 -24298278.84847 -18918173.88746  21835471.3364                   21835465.9064
 11  8 16  2 39 30.0000000  0  8G26G10G29G12G05G15G25G02
  -1228829.72347   -943896.71944  23558250.6564                   23558247.6414
 -10753087.82847  -8365193.53544  23968507.2894                   23968504.5904
  -8147961.63747  -6336812.06646  22422397.2974                   22422394.9574
 -19473488.73847 -15159326.98046  21771985.5784                   21771982.0664
 -24254394.72748 -18884156.66447  20564294.4454                   20564290.7814
   6164303.35547   4817060.43843  24477181.5234                   24477180.4924
 -15184514.33648 -11817129.21146  21700982.6414                   21700981.9454
 -24282096.23047 -18905564.03146  21838550.4694                   21838545.1214
 11  8 16  2 40  0.0000000  0  8G26G10G29G12G05G15G25G02
  -1346731.39547  -1035768.08644  23535814.3444                   23535812.6604
 -10670872.53146  -8301129.70744  23984152.2894                   23984149.8524
  -8251852.65247  -6417766.05146  22402627.6954                   22402625.1684
 -19428556.84847 -15124315.13746  21780535.8134                   21780532.6054
 -24245383.54748 -18877134.95347  20566008.9534                   20566005.5984
   6045189.95747   4724244.92644  24454515.6024                   24454513.6564
 -15198936.53148 -11828367.27346  21698238.5234                   21698237.4104
 -24265820.61347 -18892881.72746  21841647.9534                   21841642.6254
 11  8 16  2 40 30.0000000  0  8G26G10G29G12G05G15G25G02
  -1464513.66847  -1127546.41444  23513400.9454                   23513398.8554
 -10588528.75846  -8236965.73843  23999821.7344                   23999818.9534
  -8355627.89847  -6498629.83245  22382879.5634                   22382876.6484
 -19383232.02747 -15088997.10546  21789160.7424                   21789157.1954
 -24235874.39848 -18869725.20347  20567818.8134                   20567815.0274
   5925988.97747   4631361.17244  24431832.2814                   24431831.3324
 -15212786.72748 -11839159.62146  21695603.0864                   21695601.5704
 -24249452.51247 -18880127.34446  21844762.6484                   21844757.4414
 11  8 16  2 41  0.0000000  0  8G26G10G29G12G05G15G25G02
  -1582172.43046  -1219228.52344  23491010.8524                   23491008.0164
 -10506058.35546  -8172703.12143  24015516.1564                   24015512.9694
  -8459284.42647  -6579401.08245  22363153.9534                   22363151.2664
 -19337516.37147 -15053374.52346  21797860.4064                   21797857.0594
 -24225868.21148 -18861928.16047  20569722.4924                   20569719.2274
   5806703.71547   4538411.74644  24409132.9304                   24409132.4144
 -15226065.05948 -11849506.35946  21693075.7424                   21693075.3364
 -24232991.14147 -18867300.28546  21847895.0314                   21847889.9064
 11  8 16  2 41 30.0000000  0  8G26G10G29G12G05G15G25G02
  -1699704.98447  -1310812.27044  23468645.4454                   23468642.6214
 -10423464.71147  -8108344.44544  24031232.9144                   24031229.9224
  -8562821.12947  -6660078.99645  22343451.9774                   22343449.0594
 -19291413.59047 -15017450.28146  21806633.3674                   21806629.8874
 -24215367.66448 -18853745.91447  20571720.8984                   20571717.5164
   5687335.94547   4445398.02744  24386417.5634                   24386417.2274
 -15238773.23847 -11859408.83646  21690657.5314                   21690656.8244
 -24216437.64847 -18854401.45346  21851045.4694                   21851039.9024
 11  8 16  2 42  0.0000000  0  8G26G10G29G12G05G15G25G02
  -1817107.73047  -1402294.87144  23446303.8204                   23446301.3284
 -10340750.93447  -8043892.14543  24046972.9774                   24046969.6604
  -8666235.80947  -6740661.82445  22323772.9844                   22323770.0554
 -19244926.56247 -14981226.62546  21815479.6724                   21815476.2854
 -24204374.78948 -18845180.02047  20573812.9924                   20573809.5044
   5567888.48046   4352322.21544  24363686.9454                   24363686.8874
 -15250912.23448 -11868867.77046  21688347.7194                   21688347.6254
 -24199791.93747 -18841430.75446  21854212.7274                   21854207.0394
 11  8 16  2 42 30.0000000  0  8G26G10G29G12G05G15G25G02
  -1934375.87947  -1493672.58244  23423988.8204                   23423985.7304
 -10257918.12947  -7979347.10543  24062735.6174                   24062732.6174
  -8769525.50447  -6821147.24245  22304116.5474                   22304114.4144
 -19198056.48448 -14944704.50446  21824398.8984                   21824395.4774
 -24192890.14548 -18836230.93047  20575998.4224                   20575994.9694
   5448365.18046   4259187.34843  24340943.1804                   24340942.1954
 -15262481.76248 -11877882.97746  21686146.3364                   21686145.5204
 -24183052.97347 -18828387.41446  21857398.1024                   21857392.7734
 11  8 16  2 43  0.0000000  0  8G26G10G29G12G05G15G25G02
  -2051507.22747  -1584943.70344  23401699.4144                   23401696.8284
 -10174970.04747  -7914712.18443  24078519.6564                   24078516.2854
  -8872689.40647  -6901534.63746  22284485.6414                   22284482.7464
 -19150807.54747 -14907887.14846  21833389.5634                   21833386.7734
 -24180916.92648 -18826901.13747  20578276.6884                   20578273.0744
   5328767.10546   4165994.21543  24318183.0084                   24318182.6134
 -15273484.06248 -11886456.18446  21684052.1724                   21684051.6454
 -24166222.14547 -18815272.46946  21860600.6954                   21860595.4734
 11  8 16  2 43 30.0000000  0  8G26G10G29G12G05G15G25G02
  -2168497.89147  -1676105.19544  23379436.0704                   23379434.1884
 -10091908.91847  -7849989.22343  24094325.7274                   24094322.4534
  -8975725.12547  -6981822.19145  22264878.6024                   22264875.9614
 -19103182.26247 -14870776.54346  21842452.3984                   21842449.7664
 -24168456.94148 -18817192.05147  20580647.8444                   20580643.9064
   5209097.25046   4072745.20343  24295410.2274                   24295410.2664
 -15283919.96148 -11894588.05146  21682066.3754                   21682065.4614
 -24149299.14148 -18802085.69945  21863821.0164                   21863815.7704
 11  8 16  2 44  0.0000000  0  8G26G10G29G12G05G15G25G02
  -2285344.44547  -1767154.40644  23357201.6564                   23357199.0984
 -10008737.59047  -7785180.37943  24110153.0864                   24110149.1414
  -9078631.20747  -7062008.70346  22245296.2974                   22245293.7384
 -19055184.00847 -14833375.30546  21851586.1884                   21851582.8754
 -24155512.37948 -18807105.36747  20583111.0394                   20583107.6564
   5089358.36746   3979442.33243  24272625.3444                   24272623.8524
 -15293790.73048 -11902279.55546  21680188.3444                   21680187.2274
 -24132284.16047 -18788827.25846  21867059.2034                   21867053.8634
 11  8 16  2 44 30.0000000  0  8G26G10G29G12G05G15G25G02
  -2402042.94147  -1858088.23044  23334994.4844                   23334992.9494
  -9925458.59446  -7720287.64843  24125999.5004                   24125997.0594
  -9181404.87547  -7142092.03146  22225739.3204                   22225736.6604
 -19006814.72747 -14795684.96546  21860790.7034                   21860787.4184
 -24142084.74647 -18796642.25847  20585666.1564                   20585662.7154
   4969553.32046   3886087.87943  24249827.5394                   24249825.5164
 -15303097.09448 -11909531.25046  21678417.3364                   21678416.3524
 -24115177.14147 -18775497.10546  21870314.3984                   21870308.4264
 11  8 16  2 45  0.0000000  0  8G26G10G29G12G05G15G25G02
  -2518591.87147  -1948905.53144  23312816.4534                   23312813.5234
  -9842076.19946  -7655314.38743  24141867.3364                   24141864.4264
  -9284046.03547  -7222072.11746  22206207.1334                   22206204.8874
 -18958079.43747 -14757709.42246  21870064.8284                   21870061.8634
 -24128178.02747 -18785805.84047  20588312.2974                   20588308.8984
   4849682.61747   3792682.25043  24227016.7194                   24227015.1174
 -15311842.06648 -11916345.50846  21676752.9844                   21676752.1804
 -24097980.06647 -18762096.78946  21873586.9534                   21873581.2734
 11  8 16  2 45 30.0000000  0  8G26G10G29G12G05G15G25G02
  -2634986.65247  -2039602.68444  23290666.5704                   23290664.9614
  -9758592.21946  -7590261.94543  24157753.9694                   24157750.7584
  -9386552.04747  -7301946.86746  22186701.1484                   22186698.1374
 -18908979.95347 -14719450.09846  21879408.0704                   21879405.2304
 -24113793.22347 -18774596.89147  20591050.0704                   20591046.2704
   4729750.16447   3699228.48043  24204194.2424                   24204191.5434
 -15320025.87148 -11922722.49246  21675195.6024                   21675194.9264
 -24080691.78148 -18748625.39845  21876876.7584                   21876870.9574
 11  8 16  2 46  0.0000000  0  8G26G10G29G12G05G15G25G02
  -2751223.77747  -2130177.01644  23268547.8054                   23268544.8834
  -9675009.30946  -7525132.40243  24173658.7974                   24173656.0434
  -9488921.14147  -7381714.94545  22167220.3594                   22167217.4184
 -18859518.90648 -14680909.02046  21888820.4614                   21888817.7304
 -24098932.31248 -18763016.94947  20593877.6644                   20593874.1994
   4609758.39847   3605728.42243  24181361.4144                   24181355.9454
 -15327649.70348 -11928663.12946  21673745.0234                   21673744.2304
 -24063312.60248 -18735083.16046  21880183.7584                   21880178.0984
 11  8 16  2 46 30.0000000  0  8G26G10G29G12G05G15G25G02
  -2867298.50847  -2220624.78944  23246458.4064                   23246457.0394
  -9591328.65646  -7459926.71943  24189582.7584                   24189579.6294
  -9591149.85247  -7461373.64846  22147767.1334                   22147763.9264
 -18809698.16048 -14642087.65646  21898300.3284                   21898297.8014
 -24083596.23848 -18751066.75047  20596796.1724                   20596792.6374
   4489711.08647   3512185.13343  24158516.8984                   24158514.1134
 -15334713.62948 -11934167.49246  21672400.7034                   21672399.5474
 -24045841.42248 -18721469.25045  21883508.2894                   21883502.9884
 11  8 16  2 47  0.0000000  0  8G26G10G29G12G05G15G25G02
  -2983207.05147  -2310943.04344  23224402.1024                   23224400.1134
  -9507552.86746  -7394646.89543  24205525.1414                   24205522.2774
  -9693235.83247  -7540921.13346  22128341.1644                   22128337.5434
 -18759520.85948 -14602988.48446  21907849.0084                   21907845.8364
 -24067786.95747 -18738747.81647  20599804.7344                   20599800.7344
   4369611.03147   3418600.79344  24135662.1884                   24135660.3524
 -15341218.68448 -11939236.35946  21671163.0084                   21671162.0274
 -24028278.16847 -18707783.58645  21886850.6024                   21886845.1644
 11  8 16  2 47 30.0000000  0  8G26G10G29G12G05G15G25G02
  -3098945.19146  -2401128.55144  23202378.2114                   23202376.2194
  -9423683.56646  -7329294.15243  24221484.6484                   24221481.9774
  -9795176.49647  -7620355.37146  22108942.2814                   22108939.2814
 -18708989.05948 -14563613.05146  21917465.2114                   21917462.0474
 -24051505.93448 -18726061.28547  20602902.7424                   20602899.0164
   4249461.65247   3324978.03144  24112797.7584                   24112797.2114
 -15347165.44148 -11943870.18046  21670031.0394                   21670030.4144
 -24010622.08648 -18694025.59445  21890209.9694                   21890204.8954
 11  8 16  2 48  0.0000000  0  8G26G10G29G12G05G15G25G02
  -3214509.31247  -2491178.45344  23180387.0704                   23180384.8324
  -9339723.34446  -7263870.58643  24237461.4694                   24237458.9964
  -9896969.64147  -7699674.66846  22089571.4694                   22089568.1644
 -18658105.16048 -14523963.27746  21927147.9844                   21927145.2664
 -24034754.89547 -18713008.52747  20606090.1644                   20606086.5824
   4129265.98446   3231319.21544  24089925.4614                   24089924.5704
 -15352554.91848 -11948069.77046  21669005.8284                   21669004.9734
 -23992873.14147 -18680195.24645  21893588.0944                   21893582.2384
 11  8 16  2 48 30.0000000  0  8G26G10G29G12G05G15G25G02
  -3329899.85946  -2581093.08244  23158428.5864                   23158426.8014
  -9255678.75846  -7198381.29743  24253455.1884                   24253452.6024
  -9998617.53147  -7778880.75846  22070228.4454                   22070226.1414
 -18606876.55548 -14484044.87946  21936896.7114                   21936893.4534
 -24017540.34847 -18699594.57447  20609365.9924                   20609362.6764
   4009022.07046   3137622.77344  24067043.5314                   24067042.7544
 -15357392.81248 -11951839.55946  21668085.3524                   21668084.5124
 -23975035.57847 -18666295.82846  21896982.2894                   21896976.9694
 11  8 16  2 49  0.0000000  0  8G26G10G29G12G05G15G25G02
  -3445109.88347  -2670867.06244  23136505.0784                   23136502.6214
  -9171548.92246  -7132825.60243  24269464.6334                   24269461.2234
 -10100114.49247  -7857969.25046  22050914.3204                   22050911.1254
 -18555302.59048 -14443857.38346  21946710.7274                   21946707.4384
 -23999861.03948 -18685818.48446  20612730.3054                   20612726.5124
   3888736.53146   3043893.98044  24044153.9384                   24044152.7384
 -15361676.83248 -11955177.75446  21667269.7734                   21667268.8954
 -23957105.86747 -18652324.63346  21900394.2194                   21900389.1254
 11  8 16  2 49 30.0000000  0  8G26G10G29G12G05G15G25G02
  -3560136.03147  -2760497.77744  23114616.4774                   23114613.3834
  -9087336.54746  -7067205.57843  24285489.8134                   24285486.6174
 -10201458.79747  -7936938.79346  22031629.0234                   22031626.0274
 -18503386.48848 -14403403.27746  21956589.8134                   21956586.6174
 -23981719.17248 -18671681.94947  20616182.4844                   20616178.8984
   3768411.57846   2950134.47744  24021255.7894                   24021255.5234
 -15365408.75048 -11958085.74246  21666559.5394                   21666558.5314
 -23939084.39847 -18638281.90645  21903823.1884                   21903818.0124
 11  8 16  2 50  0.0000000  0  8G26G10G29G12G05G15G25G02
  -3674974.22747  -2849982.03544  23092762.8444                   23092760.2814
  -9003044.02046  -7001523.03942  24301530.1954                   24301526.5434
 -10302648.19947  -8015787.63346  22012372.9224                   22012370.1454
 -18451130.87548 -14362684.62946  21966534.2034                   21966530.8054
 -23963116.50848 -18657186.35247  20619722.1414                   20619718.7894
   3648050.33246   2856346.62144  23998352.2424                   23998350.6914
 -15368589.42648 -11960564.18746  21665954.4454                   21665953.7664
 -23920970.89847 -18624167.49245  21907270.9534                   21907265.0474
 11  8 16  2 50 30.0000000  0  8G26G10G29G12G05G15G25G02
  -3789621.21147  -2939317.30144  23070946.8204                   23070943.6604
  -8918673.70346  -6935779.91042  24317584.8674                   24317580.3594
 -10403680.53547  -8094514.09046  21993147.2664                   21993144.3874
 -18398538.81248 -14321703.79746  21976541.8524                   21976538.7814
 -23944055.34448 -18642333.48846  20623349.9844                   20623346.0744
   3527655.44947   2762532.57044  23975442.0704                   23975440.5744
 -15371220.45748 -11962614.35246  21665453.6644                   21665452.9104
 -23902765.35947 -18609981.34845  21910734.8134                   21910729.7074
 11  8 16  2 51  0.0000000  0  8G26G10G29G12G05G15G25G02
  -3904072.35947  -3028499.94544  23049167.2974                   23049163.7304
  -8834227.32046  -6869977.53543  24333655.0004                   24333650.5984
 -10504552.66447  -8173115.69546  21973951.9454                   21973949.7034
 -18345612.34848 -14280462.41046  21986613.1414                   21986610.3094
 -23924537.09448 -18627124.44547  20627064.0944                   20627060.2154
   3407230.93847   2668695.42244  23952526.0784                   23952524.7624
 -15373302.33248 -11964236.59046  21665057.3594                   21665056.4654
 -23884466.96147 -18595722.84845  21914216.5944                   21914210.9104
 11  8 16  2 51 30.0000000  0  8G26G10G29G12G05G15G25G02
  -4018323.48847  -3117526.75444  23027425.9304                   23027423.3134
  -8749706.73846  -6804117.33643  24349738.3204                   24349734.7544
 -10605262.11747  -8251590.53146  21954787.7344                   21954784.6644
 -18292353.77747 -14238962.22346  21996748.2194                   21996744.7114
 -23904563.21947 -18611560.37546  20630864.7974                   20630861.3754
   3286779.53147   2574837.30144  23929605.0704                   23929603.3484
 -15374835.98848 -11965431.65246  21664765.8674                   21664764.8874
 -23866075.17247 -18581391.57845  21917716.3984                   21917711.0434
 11  8 16  2 52  0.0000000  0  8G26G10G29G12G05G15G25G02
  -4132372.07847  -3206395.73044  23005722.2274                   23005720.4614
  -8665115.55147  -6738202.14143  24365836.2034                   24365831.8754
 -10705807.84447  -8329937.80546  21935654.4224                   21935650.9964
 -18238766.95748 -14197206.26246  22006945.2344                   22006942.3404
 -23884136.94547 -18595643.79347  20634751.7974                   20634748.0984
   3166302.95347   2480959.53944  23906679.1644                   23906676.2734
 -15375823.90248 -11966201.45346  21664578.0084                   21664576.8594
 -23847590.83247 -18566988.18445  21921233.9614                   21921227.9804
 11  8 16  2 52 30.0000000  0  8G26G10G29G12G05G15G25G02
  -4246215.37947  -3295104.74644  22984059.1564                   22984056.8554
  -8580457.05146  -6672234.47343  24381945.3754                   24381942.1954
 -10806188.11747  -8408156.15646  21916552.4534                   21916549.0824
 -18184855.93448 -14155197.67646  22017204.7114                   22017201.2584
 -23863261.43748 -18579377.15647  20638724.2584                   20638720.7274
   3045803.33247   2387063.81644  23883748.7894                   23883746.1134
 -15376268.45748 -11966547.86346  21664493.2274                   21664492.0164
 -23829014.85947 -18552513.40245  21924769.1414                   21924763.8874
 11  8 16  2 53  0.0000000  0  8G26G10G29G12G05G15G25G02
  -4359848.53947  -3383650.01644  22962435.6644                   22962433.3984
  -8495732.53946  -6606215.39543  24398068.3134                   24398063.8674
 -10906400.59047  -8486243.75446  21897482.7664                   21897479.0204
 -18130622.66848 -14112937.98046  22027524.7274                   22027521.5474
 -23841937.73847 -18562761.27746  20642782.1644                   20642778.7584
   2925284.42247   2293153.07444  23860814.6174                   23860812.1764
 -15376169.96948 -11966471.11346  21664512.1334                   21664511.4064
 -23810346.08647 -18537966.29345  21928321.6484                   21928316.2734
 11  8 16  2 53 30.0000000  0  9G26G10G29G12G05G15G25G02G21
  -4473269.38347  -3472029.81644  22940852.2504                   22940850.0554
  -8410945.69146  -6540147.69543  24414203.1564                   24414198.9804
 -11006444.27747  -8564199.82846  21878444.7894                   21878442.4304
 -18076071.49647 -14070430.58246  22037905.4534                   22037902.0704
 -23820169.16448 -18545798.74246  20646924.7664                   20646920.6724
   2804747.54746   2199228.33643  23837877.2504                   23837875.0204
 -15375531.33248 -11965973.47746  21664633.3364                   21664632.4344
 -23791585.94947 -18523347.99645  21931891.5704                   21931886.3014
   7757932.11315                  25145701.414
 11  8 16  2 54  0.0000000  0  9G26G10G29G12G05G15G25G02G21
  -4586482.56247  -3560247.83244  22919308.9534                   22919306.1174
  -8326107.48046  -6474039.98443  24430347.0944                   24430343.5204
 -11106325.41847  -8642029.23446  21859437.9844                   21859435.3094
 -18021213.58247 -14027684.15246  22048344.4064                   22048341.0164
 -23797966.56648 -18528498.00846  20651149.1484                   20651146.2934
   2684187.51646   2105285.58643  23814934.7424                   23814932.0984
 -15374362.53948 -11965062.71946  21664855.7114                   21664854.7814
 -23772742.94547 -18508665.12945  21935477.4064                   21935471.2194
   7677039.211 5                  25130308.813
 11  8 16  2 54 30.0000000  0  9G26G10G29G12G05G15G25G02G21
  -4699485.35547  -3648301.90245  22897805.2584                   22897802.6024
  -8241221.26646  -6407894.86743  24446500.6644                   24446496.0554
 -11206042.23448  -8719730.60246  21840462.6644                   21840460.0474
 -17966052.74647 -13984701.69145  22058840.8364                   22058837.9224
 -23775333.16848 -18510861.59047  20655456.2424                   20655452.7384
   2563605.89147   2011325.96944  23791988.6644                   23791986.3674
 -15372666.07048 -11963740.79746  21665178.5944                   21665177.9414
 -23753817.51647 -18493918.04345  21939078.4694                   21939073.4024
                                  25114916.336
 11  8 16  2 55  0.0000000  0  9G26G10G29G12G05G15G25G02G21
  -4812273.53147  -3736188.71544  22876341.5084                   22876339.9654
  -8156288.34445  -6341713.40643  24462661.9384                   24462658.5004
 -11305592.06247  -8797301.86346  21821519.1174                   21821516.1024
 -17910591.39547 -13941485.05946  22069395.0234                   22069391.8634
 -23752270.41048 -18492890.60246  20659845.1174                   20659841.5124
   2443006.55147   1917352.59844  23769039.1024                   23769037.0044
 -15370442.59848 -11962008.22346  21665601.6804                   21665601.3674
 -23734809.03547 -18479106.23845  21942695.8054                   21942690.5274
                                  25099524.320
 11  8 16  2 55 30.0000000  0  9G26G10G29G12G05G15G25G02G21
  -4924838.94147  -3823901.96545  22854921.3444                   22854918.8244
  -8071307.23846  -6275494.34442  24478833.3134                   24478828.9614
 -11404968.70747  -8874738.18046  21802608.4614                   21802605.4024
 -17854828.28947 -13898033.28146  22080006.4534                   22080003.5824
 -23728776.05948 -18474583.29346  20664316.0314                   20664312.3204
   2322396.47746   1823370.85944  23746087.7814                   23746086.0044
 -15367689.55948 -11959863.00446  21666125.5704                   21666124.9654
 -23715713.27047 -18464226.41045  21946329.6484                   21946324.5554
   7434403.449 5                  25084135.172
 11  8 16  2 56  0.0000000  0  9G26G10G29G12G05G15G25G02G21
  -5037177.15647  -3911438.18444  22833544.1724                   22833541.4774
  -7986279.34846  -6209238.84042  24495013.6884                   24495008.6684
 -11504169.32047  -8952037.30146  21783731.1024                   21783727.8954
 -17798765.43747 -13854347.94945  22090674.7504                   22090672.0514
 -23704851.40248 -18455940.69547  20668868.6884                   20668865.0394
   2201779.24647   1729383.52344  23723135.3134                   23723133.3404
 -15364407.80148 -11957305.77746  21666750.1804                   21666749.5474
 -23696528.96948 -18449277.60245  21949980.4844                   21949974.6094
   7353544.219 5                  25068747.820
 11  8 16  2 56 30.0000000  0  9G26G10G29G12G05G15G25G02G21
  -5149282.26647  -3998792.76644  22812210.8284                   22812207.7894
  -7901204.37946  -6142946.56242  24511202.8204                   24511199.2034
 -11603188.65648  -9029195.19546  21764888.0704                   21764885.0354
 -17742403.52747 -13810429.59046  22101400.0704                   22101397.4654
 -23680496.39548 -18436962.77046  20673503.4614                   20673499.5824
   2081160.19147   1635394.75444  23700182.2504                   23700180.5864
 -15360596.50048 -11954335.93046  21667475.2424                   21667474.8484
 -23677253.71947 -18434257.93045  21953648.3204                   21953643.0044
   7272697.422 6                  25053363.883
 11  8 16  2 57  0.0000000  0  9G26G10G29G12G05G15G25G02G21
  -5261150.98447  -4085963.14844  22790923.6334                   22790920.9494
  -7816085.51646  -6076620.21143  24527400.4614                   24527397.7934
 -11702025.57848  -9106210.95346  21746080.1254                   21746076.7974
 -17685745.82847 -13766280.72345  22112181.6484                   22112178.5164
 -23655714.24247 -18417651.98846  20678218.8754                   20678215.3204
   1960541.39546   1541406.21544  23677228.7424                   23677227.6134
 -15356257.96948 -11950955.25446  21668300.9224                   21668300.4574
 -23657888.19947 -18419167.91045  21957333.5084                   21957328.0004
   7191861.461 5                  25037980.516
 11  8 16  2 57 30.0000000  0  8G26G29G12G05G15G25G02G21
  -5372781.71147  -4172948.07044  22769680.7114                   22769678.3914
 -11800679.70748  -9183084.28146  21727306.7894                   21727303.5124
 -17628797.67647 -13721905.55546  22123018.8524                   22123015.4264
 -23630508.71548 -18398011.31246  20683015.6174                   20683011.8204
   1839923.98846   1447418.76244  23654276.2424                   23654275.2774
 -15351395.89848 -11947166.63346  21669226.2424                   21669226.0314
 -23638434.40648 -18404009.11345  21961035.4144                   21961029.9344
   7111034.090 5                  25022599.047
 11  8 16  2 58  0.0000000  0  8G26G29G12G05G15G25G02G21
  -5484165.08647  -4259740.25445  22748485.1414                   22748482.5904
 -11899143.20748  -9259809.04346  21708569.7194                   21708567.4574
 -17571556.38348 -13677301.95346  22133911.2894                   22133908.0274
 -23604876.65247 -18378038.27346  20687893.1254                   20687890.0704
   1719316.27347   1353438.85244  23631325.8284                   23631323.5394
 -15346006.16048 -11942966.83646  21670251.9384                   21670251.1844
 -23618886.28148 -18388776.80145  21964754.9304                   21964749.8484
   7030220.336 6                  25007221.414
 11  8 16  2 58 30.0000000  0  8G26G29G12G05G15G25G02G21
  -5595290.31647  -4346331.28944  22727338.1334                   22727335.7854
 -11997406.53148  -9336377.82846  21689870.7114                   21689868.3284
 -17514017.48447 -13632466.46145  22144860.9144                   22144857.2854
 -23578812.96148 -18357728.89547  20692853.2424                   20692849.3324
   1598728.66446   1259474.59844  23608377.7344                   23608375.8444
 -15340083.32048 -11938351.62546  21671379.3134                   21671378.3754
 -23599236.38748 -18373465.20345  21968494.2424                   21968488.7854
   6949426.996 5                  24991845.953
 11  8 16  2 59  0.0000000  0  8G26G29G12G05G15G25G02G21
  -5706153.43047  -4432718.04745  22706241.5634                   22706239.7504
 -12095467.55948  -9412788.98846  21671210.6094                   21671207.2774
 -17456184.30147 -13587401.63746  22155866.0634                   22155862.5784
 -23552320.02348 -18337085.03946  20697894.5084                   20697891.0864
   1478163.98447   1165528.20744  23585435.7114                   23585432.5784
 -15333629.14548 -11933322.39146  21672607.1804                   21672606.8014
 -23579484.98848 -18358074.50845  21972253.1954                   21972247.7344
   6868653.523 5                  24976475.430
 11  8 16  2 59 30.0000000  0  8G26G29G12G05G15G25G02G21
  -5816752.32447  -4518898.94944  22685195.1334                   22685193.5784
 -12193325.11748  -9489041.61346  21652588.7504                   21652585.0554
 -17398060.82047 -13542110.62146  22166926.6954                   22166923.5084
 -23525401.32448 -18316109.43046  20703017.0004                   20703013.5084
   1357623.85547   1071600.92244  23562498.0314                   23562494.5944
 -15326646.65248 -11927881.47746  21673935.8594                   21673934.4804
 -23559632.77047 -18342605.24245  21976030.7664                   21976025.2774
   6787897.738 6                  24961108.500
 11  8 16  3  0  0.0000000  0  8G26G29G12G05G15G25G02G21
  -5927083.82047  -4604871.47745  22664200.2894                   22664198.1604
 -12290977.80148  -9565134.59046  21634005.6644                   21634003.3364
 -17339650.77347 -13496596.30545  22178041.6804                   22178038.1844
 -23498059.53547 -18294804.12946  20708219.7584                   20708216.3674
   1237110.68046    977694.65644  23539564.6954                   23539561.9574
 -15319138.07848 -11922030.63346  21675364.4384                   21675363.3954
 -23539679.98848 -18327057.61345  21979827.3284                   21979822.1454
   6707158.965 5                  24945743.820
 11  8 16  3  0 30.0000000  0  8G26G29G12G05G15G25G02G21
  -6037148.86347  -4690636.37545  22643255.1094                   22643253.1524
 -12388428.31648  -9641070.03146  21615462.0004                   21615459.0314
 -17280961.93047 -13450864.73446  22189209.5944                   22189206.7464
 -23470302.15647 -18273174.99646  20713501.9064                   20713498.0354
   1116622.12146    883807.59444  23516636.2814                   23516633.0164
 -15311110.35948 -11915775.27346  21676892.5864                   21676891.9064
 -23519632.25848 -18311436.01245  21983642.7894                   21983637.2154
   6626431.277 5                  24930382.789
 11  8 16  3  1  0.0000000  0  8G26G29G12G05G15G25G02G21
  -6146944.20347  -4776191.11745  22622362.0314                   22622359.7664
 -12485674.08648  -9716845.91846  21596956.3914                   21596953.8634
 -17221997.28547 -13404918.27745  22200430.5314                   22200427.3404
 -23442131.39548 -18251223.75446  20718862.7274                   20718858.7894
    996161.46546    789942.23444  23493713.2504                   23493711.0984
 -15302565.07848 -11909116.59846  21678518.3984                   21678517.7304
 -23499488.55548 -18295739.60245  21987475.8364                   21987470.5824
   6545714.69545   5121174.85953  24915022.4224                   24915020.5634
 11  8 16  3  1 30.0000000  0  8G26G29G12G05G15G25G02G21
  -6256466.55947  -4861533.14845  22601520.0864                   22601518.3954
 -12582713.90248  -9792461.33246  21578490.5234                   21578487.4884
 -17162760.87947 -13358760.04745  22211702.5234                   22211699.3014
 -23413550.41848 -18228952.85546  20724301.4304                   20724297.5594
    875730.78946    696100.22344  23470795.8834                   23470793.6914
 -15293505.03148 -11902056.80946  21680242.3834                   21680241.9104
 -23479249.80548 -18279969.15645  21991326.9064                   21991322.1334
   6465007.61345   5058286.33642  24899664.6954                   24899660.5354
 11  8 16  3  2  0.0000000  0  8G26G29G12G05G15G25G02G21
  -6365709.49247  -4946657.47345  22580732.1024                   22580729.9344
 -12679542.35548  -9867912.04346  21560064.5784                   21560061.1724
 -17103252.80547 -13312390.11345  22223026.9454                   22223023.2624
 -23384558.29747 -18206361.59446  20729818.3984                   20729814.2114
    755335.84846    602286.09844  23447885.2584                   23447882.5784
 -15283929.10248 -11894595.05146  21682064.7344                   21682063.9494
 -23458912.86748 -18264122.18445  21995197.1094                   21995191.7344
   6384312.11345   4995406.87142  24884307.3284                   24884304.3054
 11  8 16  3  2 30.0000000  0  8G26G29G12G05G15G25G02G21
  -6474672.09047  -5031563.34045  22559997.1884                   22559995.3834
 -12776160.06248  -9943198.55146  21541679.1414                   21541676.0354
 -17043478.71147 -13265812.89845  22234401.2034                   22234398.5784
 -23355160.56648 -18183454.26246  20735412.6254                   20735408.8484
    634976.91746    508500.03544  23424981.4534                   23424979.0044
 -15273841.90248 -11886734.90646  21683984.3524                   21683983.3164
 -23438480.34048 -18248200.74245  21999085.4844                   21999079.7034
   6303625.23045   4932534.05943  24868953.9614                   24868951.0634
 11  8 16  3  3  0.0000000  0  8G26G29G12G05G15G25G02G21
  -6583353.32447  -5116249.95744  22539315.9844                   22539313.3634
 -12872567.27348 -10018321.02046  21523332.9774                   21523329.8554
 -16983444.14847 -13219032.73045  22245825.3594                   22245822.5474
 -23325361.81648 -18160234.44946  20741083.1564                   20741079.2734
    514654.49246    414742.35544  23402085.1644                   23402082.2894
 -15263247.96548 -11878479.87146  21686000.0314                   21685999.5124
 -23417954.46148 -18232206.54745  22002991.1804                   22002985.1054
   6222943.69946   4869665.49243  24853600.5394                   24853597.5704
 11  8 16  3  3 30.0000000  0  8G26G29G12G05G15G25G02G21
  -6691746.94547  -5200712.48044  22518689.5474                   22518686.8014
 -12968759.61748 -10093276.05946  21505028.5634                   21505025.2734
 -16923149.85947 -13172050.18045  22257299.5164                   22257295.7704
 -23295162.02047 -18136702.13346  20746829.8914                   20746826.2234
    394373.67246    321017.14144  23379195.6334                   23379193.4924
 -15252146.90248 -11869829.69546  21688112.6804                   21688111.6724
 -23397333.07448 -18216137.93745  22006914.8834                   22006910.0124
   6142269.12546   4806802.31342  24838249.2344                   24838245.9574
 11  8 16  3  4  0.0000000  0  8G26G29G12G05G15G25G02G21
  -6799851.19947  -5284949.53144  22498117.8914                   22498113.9414
 -13064736.13348 -10168062.91846  21486764.8754                   21486761.3794
 -16862600.53947 -13124868.89845  22268821.3134                   22268817.9924
 -23264565.22347 -18112860.47346  20752652.3754                   20752648.6294
    274135.85246    227325.41444  23356315.6954                   23356312.9414
 -15240542.21148 -11860787.08646  21690320.7974                   21690320.7114
 -23376617.41448 -18199995.87945  22010857.5784                   22010852.0594
   6061599.46946   4743942.95742  24822897.4774                   24822895.2234
 11  8 16  3  4 30.0000000  0  8G26G29G12G05G15G25G02G21
  -6907659.59047  -5368956.03144  22477602.2424                   22477599.2274
 -13160492.00048 -10242677.85246  21468542.7814                   21468539.5634
 -16801796.53147 -13077489.16445  22280391.9774                   22280389.1134
 -23233571.24248 -18088709.31246  20758550.3834                   20758546.4264
    153946.68046    133671.57844  23333444.4144                   23333441.8484
 -15228433.40648 -11851351.64846  21692625.3204                   21692624.1884
 -23355804.71948 -18183778.18745  22014818.1804                   22014812.8164
   5980936.92246   4681089.10242  24807548.4844                   24807545.8164
 11  8 16  3  5  0.0000000  0  8G26G29G12G05G15G25G02G21
  -7015171.50847  -5452731.51644  22457143.4454                   22457140.4494
 -13256028.19148 -10317121.61746  21450363.1484                   21450359.6724
 -16740744.17247 -13029915.91045  22292009.6884                   22292006.8834
 -23202185.71548 -18064253.04746  20764522.7814                   20764519.0044
     33806.09046     40055.62544  23310582.3054                   23310580.1954
 -15215825.33648 -11841527.16046  21695024.3754                   21695023.3094
 -23334897.71548 -18167487.01645  22018796.5084                   22018790.7734
   5900277.63746   4618237.84842  24792199.0394                   24792196.2774
 11  8 16  3  5 30.0000000  0  8G26G29G12G05G15G25G02G21
  -7122382.19147  -5536272.26244  22436741.1884                   22436738.5904
 -13351340.98848 -10391391.29746  21432225.6254                   21432222.4884
 -16679445.27347 -12982150.53945  22303674.8204                   22303671.5634
 -23170409.71148 -18039492.52746  20770569.8284                   20770565.8284
    -86281.81247    -53519.27344  23287729.8594                   23287728.1024
 -15202718.99248 -11831314.42246  21697518.2974                   21697517.6524
 -23313895.21148 -18151121.43045  22022793.1414                   22022787.2734
   5819622.25446   4555389.62542  24776850.4924                   24776847.4924
 11  8 16  3  6  0.0000000  0  8G26G29G12G05G15G25G02G21
  -7229287.87146  -5619575.34045  22416397.8834                   22416396.0204
 -13446428.10248 -10465485.13346  21414130.8364                   21414128.1054
 -16617902.97347 -12934195.51245  22315385.7974                   22315382.4494
 -23138245.19147 -18014429.25446  20776690.0234                   20776686.4964
   -206313.95747   -147050.73044  23264889.1644                   23264886.3554
 -15189116.35948 -11820714.96146  21700107.0234                   21700105.9574
 -23292796.83648 -18134681.12145  22026808.0634                   22026802.7114
   5738970.51646   4492544.17642  24761502.3834                   24761499.4774
 11  8 16  3  6 30.0000000  0  8G26G29G12G05G15G25G02G21
  -7335883.75447  -5702637.01645  22396113.8984                   22396111.5664
 -13541286.03148 -10539400.36746  21396079.9384                   21396077.3524
 -16556118.61347 -12886051.85545  22327142.9224                   22327139.6844
 -23105693.59047 -17989064.36746  20782884.4534                   20782880.9494
   -326286.23047   -240535.52345  23242059.0474                   23242055.8674
 -15175018.10548 -11809729.30946  21702789.3914                   21702788.4344
 -23271600.64148 -18118164.60945  22030841.6174                   22030835.8284
   5658323.04346   4429702.13742  24746156.6174                   24746152.7074
 11  8 16  3  7  0.0000000  0  8G26G29G12G05G15G25G02G21
  -5866743.23847  -4557852.14545  22675681.9924                   22675680.3324
 -12060490.28948  -9385533.52346  21677865.7584                   21677862.7894
 -14918678.01247 -11610124.14545  22638737.6644                   22638734.0944
 -21497339.24647 -16735801.22746  21088944.1334                   21088940.7934
   1129227.56347    893631.16044  23519033.8054                   23519031.2774
 -13585007.73448 -10570760.18446  22005358.9304                   22005357.5314
 -21674888.75848 -16873973.53545  22334685.8134                   22334679.7154
   7153100.89146   5594464.19542  25030602.6174                   25030599.7814
 11  8 16  3  7 30.0000000  0  8G26G29G12G05G15G25G02G21
  -5972709.70747  -4640423.38745  22655517.5704                   22655515.1994
 -12154884.20348  -9459087.19946  21659903.8524                   21659900.8054
 -14856420.35547 -11561611.69545  22650585.0234                   22650581.5314
 -21464021.91448 -16709839.67246  21095284.4614                   21095280.3754
   1009382.64847    800245.60244  23496228.2424                   23496225.1024
 -13569926.05548 -10559008.22746  22008228.9454                   22008227.7974
 -21653499.02047 -16857306.19545  22338756.0944                   22338750.1604
   7072458.78146   5531626.30143  25015257.4454                   25015254.3914
 11  8 16  3  8  0.0000000  0  8G26G29G12G05G15G25G02G21
  -6078358.70747  -4722747.23445  22635413.0004                   22635410.5084
 -12249045.63348  -9532459.71946  21641985.2974                   21641982.3054
 -14793933.93047 -11512920.97345  22662475.4454                   22662472.9734
 -21430328.28948 -16683584.89546  21101695.7894                   21101692.3834
    889603.28147    706911.12944  23473434.8054                   23473432.2664
 -13554358.64148 -10546877.76646  22011191.1954                   22011189.5274
 -21632014.55147 -16840565.07445  22342844.4774                   22342838.6484
   6991815.64846   5468787.60942  24999911.6024                   24999908.0124
 11  8 16  3  8 30.0000000  0  8G26G29G12G05G15G25G02G21
  -6183683.87147  -4804818.74645  22615370.5394                   22615367.2854
 -12342969.50848  -9605647.12546  21624111.9614                   21624108.7974
 -14731218.72747 -11464052.00445  22674409.9534                   22674407.2274
 -21396257.63747 -16657036.33646  21108179.4064                   21108175.7974
    769894.98047    613632.02344  23450655.1334                   23450652.3134
 -13538304.87548 -10534368.34846  22014245.6334                   22014245.6214
 -21610432.64147 -16823747.98845  22346951.2194                   22346945.6174
   6911173.70346   5405949.80942  24984565.4774                   24984562.7774
 11  8 16  3  9  0.0000000  0  8G26G29G12G05G15G25G02G21
  -6288680.43447  -4886634.21145  22595390.2194                   22595387.6804
 -12436652.12548  -9678646.53546  21606284.5004                   21606281.5274
 -14668276.31647 -11415005.98845  22686387.7034                   22686384.5354
 -21361811.61347 -16630195.27046  21114734.2194                   21114731.1804
    650262.41847    520411.93044  23427889.0864                   23427886.9494
 -13521765.50848 -10521480.51646  22017393.2344                   22017392.2974
 -21588751.53148 -16806853.60945  22351076.6484                   22351071.3484
   6830534.02746   5343113.80942  24969219.9384                   24969217.0784
 11  8 16  3  9 30.0000000  0  8G26G29G12G05G15G25G02G21
  -6393347.33247  -4968192.78145  22575472.4774                   22575470.1094
 -12530093.54348  -9751458.00846  21588503.5864                   21588499.6294
 -14605112.85947 -11365787.71945  22698407.1254                   22698403.8634
 -21326994.69547 -16603065.19946  21121359.6804                   21121356.3794
    530705.32847    427250.68444  23405138.8834                   23405135.9144
 -13504745.47348 -10508218.15646  22020631.9774                   22020630.9184
 -21566973.70748 -16789883.87545  22355221.0394                   22355215.2974
   6749892.90646   5280276.67243  24953874.8134                   24953871.4064
 11  8 16  3 10  0.0000000  0  8G26G29G12G05G15G25G02G21
  -6497678.69947  -5049489.92245  22555618.9924                   22555616.5634
 -12623289.60948  -9824078.31246  21570768.8834                   21570765.6914
 -14541729.08247 -11316397.78545  22710468.4844                   22710465.4614
 -21291807.41048 -16575646.53546  21128055.7344                   21128051.8954
    411229.50047    334152.71944  23382403.0864                   23382400.2734
 -13487244.74248 -10494581.21146  22023962.5234                   22023960.8444
 -21545097.02747 -16772837.09445  22359383.8914                   22359378.7344
   6669252.43046   5217439.99243  24938529.6334                   24938526.5234
 11  8 16  3 10 30.0000000  0  8G26G29G12G05G15G25G02G21
  -6601672.78947  -5130524.23445  22535829.9224                   22535826.9344
 -12716239.94948  -9896507.11746  21553080.9614                   21553077.9804
 -14478130.02747 -11266840.10545  22722571.0234                   22722568.0904
 -21256254.16848 -16547942.70346  21134821.3054                   21134817.9024
    291835.84847    241118.80544  23359682.5784                   23359680.2584
 -13469267.50048 -10480572.96946  22027383.0944                   22027382.3444
 -21523122.94148 -16755714.44545  22363565.5704                   22363560.3444
   6588610.01646   5154601.82443  24923183.8524                   24923180.3404
 11  8 16  3 11  0.0000000  0  8G26G29G12G05G15G25G02G21
  -6705326.23847  -5211293.10245  22516104.8594                   22516101.9104
 -12808942.14148  -9968742.55546  21535440.3594                   21535437.3524
 -14414318.72747 -11217117.03545  22734714.0164                   22734710.9224
 -21220337.53947 -16519955.71546  21141655.8984                   21141652.6094
    172527.29747    148151.19145  23336979.2664                   23336976.4184
 -13450816.12148 -10466195.26646  22030894.7664                   22030893.3954
 -21501051.46948 -16738515.89145  22367765.8444                   22367760.5864
   6507964.77346   5091761.50043  24907836.8204                   24907834.0434
 11  8 16  3 11 30.0000000  0  8G26G29G12G05G15G25G02G21
  -6808635.12947  -5291793.50444  22496445.1564                   22496442.3714
 -12901393.70348 -10040782.70746  21517847.4774                   21517844.5314
 -14350297.93047 -11167230.72345  22746896.7814                   22746893.7894
 -21184059.54348 -16491687.13346  21148559.4924                   21148555.6604
     53307.10547     55252.43044  23314292.2034                   23314289.7154
 -13431892.41448 -10451449.52746  22034495.8054                   22034494.8524
 -21478881.59447 -16721240.66045  22371984.4144                   22371979.3134
   6427316.82046   5028919.03943  24892489.8204                   24892486.9574
 11  8 16  3 12  0.0000000  0  8G26G29G12G05G15G25G02G21
  -6911595.71547  -5372022.48045  22476852.8054                   22476849.9774
 -12993592.53948 -10112625.92646  21500302.3914                   21500299.9024
 -14286070.84447 -11117183.66445  22759119.2734                   22759115.1374
 -21147422.48848 -16463138.77746  21155530.9304                   21155527.3324
    -65821.61747    -37575.07844  23291622.7344                   23291620.6334
 -13412498.69148 -10436337.52746  22038186.2274                   22038185.0594
 -21456613.54747 -16703888.93745  22376222.3134                   22376216.7194
   6346665.47646   4966073.93043  24877142.2664                   24877139.6764
 11  8 16  3 12 30.0000000  0  8G26G29G12G05G15G25G02G21
  -7014204.33247  -5451977.20745  22457326.5084                   22457324.2274
 -13085535.78948 -10184269.98046  21482806.1564                   21482803.0204
 -14221640.42247 -11066978.16445  22771379.7034                   22771376.9104
 -21110428.93048 -16434312.62546  21162570.4924                   21162567.1844
   -184855.79747   -130328.88345  23268971.5084                   23268969.0274
 -13392637.19948 -10420861.04746  22041965.3444                   22041964.7234
 -21434246.82048 -16686460.31245  22380478.2664                   22380472.9654
   6266010.12546   4903225.72743  24861794.2734                   24861791.5634
 11  8 16  3 13  0.0000000  0  8G26G29G12G05G15G25G02G21
  -7116456.54347  -5531654.22345  22437868.6254                   22437865.9064
 -13177220.42248 -10255712.52346  21465359.0394                   21465356.1954
 -14157009.01247 -11016616.03145  22783678.2424                   22783675.4224
 -21073080.44948 -16405209.91846  21169678.3284                   21169674.1884
   -303791.61347   -223006.06244  23246338.6954                   23246335.4964
 -13372309.42648 -10405021.22346  22045833.3594                   22045832.4144
 -21411780.41847 -16668954.02745  22384753.5164                   22384748.6024
   6185351.47346   4840374.94143  24846445.0004                   24846442.0634
 11  8 16  3 13 30.0000000  0  8G26G29G12G05G15G25G02G21
  -7218350.60947  -5611052.17645  22418479.5474                   22418475.6564
 -13268645.93448 -10326953.15246  21447961.4534                   21447958.0594
 -14092181.54747 -10966101.14545  22796014.6094                   22796011.8954
 -21035381.37548 -16375834.00846  21176851.8524                   21176848.0864
   -422628.08647   -315605.85544  23223724.8674                   23223721.6374
 -13351519.41448 -10388821.20346  22049789.5084                   22049788.9774
 -21389215.60947 -16651371.06645  22389047.2344                   22389041.9774
   6104686.94146   4777519.58643  24831094.9694                   24831092.1644
 11  8 16  3 14  0.0000000  0  8G26G29G12G05G15G25G02G21
  -7319881.59047  -5690167.18045  22399158.6884                   22399155.4414
 -13359808.68048 -10397989.02746  21430613.6954                   21430610.5704
 -14027159.59047 -10915434.71545  22808388.3364                   22808384.7704
 -20997332.64848 -16346185.63746  21184092.2424                   21184088.6334
   -541360.26247   -408124.34044  23201130.2814                   23201128.1294
 -13330268.14848 -10372261.77346  22053833.7584                   22053833.1414
 -21366550.57847 -16633709.99645  22393360.4144                   22393354.9494
   6024017.37546   4714660.27343  24815744.5004                   24815741.3484
 11  8 16  3 14 30.0000000  0  8G26G29G12G05G15G25G02G21
  -7421045.83247  -5768996.41845  22379907.6334                   22379904.8134
 -13450706.34848 -10468818.34846  21413316.5474                   21413313.3094
 -13961946.31647 -10864619.17645  22820797.9064                   22820794.2074
 -20958936.87948 -16316266.85546  21191398.7814                   21191395.2734
   -659985.28947   -500559.35544  23178556.9454                   23178553.3874
 -13308558.14548 -10355344.89846  22057965.4144                   22057964.5824
 -21343785.84448 -16615971.23045  22397692.0474                   22397687.0744
   5943342.15246   4651796.62143  24800392.5864                   24800388.9614
 11  8 16  3 15  0.0000000  0  8G26G29G12G05G15G25G02G21
  -7521840.12948  -5847537.40245  22360727.2584                   22360723.8984
 -13541336.78948 -10539439.44546  21396069.7584                   21396066.4304
 -13896545.14847 -10813657.25445  22833242.8284                   22833240.1604
 -20920196.61348 -16286079.63746  21198770.6884                   21198767.0434
   -778500.29747   -592908.64545  23156004.1724                   23156001.0744
 -13286391.89848 -10338072.48046  22062183.5474                   22062182.6174
 -21320920.91848 -16598154.40645  22402043.5704                   22402038.0354
   5862660.60246   4588927.94143  24785038.7344                   24785035.6024
 11  8 16  3 15 30.0000000  0  8G26G29G12G05G15G25G02G21
  -7622260.51648  -5925787.03545  22341617.7974                   22341615.1844
 -13631697.46948 -10609850.33246  21378874.9064                   21378871.5004
 -13830958.82847 -10762551.03545  22845724.2814                   22845721.6484
 -20881114.21148 -16255625.81246  21206208.1414                   21206204.1454
   -896902.16847   -685169.77345  23133473.0164                   23133470.9774
 -13263771.51648 -10320446.21946  22066488.0704                   22066486.7504
 -21297955.05547 -16580258.91445  22406413.5704                   22406408.4064
   5781972.43446   4526054.17643  24769684.4614                   24769681.1254
 11  8 16  3 16  0.0000000  0  8G26G29G12G05G15G25G02G21
  -7722302.87148  -6003742.07845  22322580.4304                   22322577.8914
 -13721785.30948 -10680048.63746  21361732.0554                   21361728.3594
 -13765189.66847 -10711302.35945  22858239.6484                   22858236.4654
 -20841691.45348 -16224906.77046  21213709.9064                   21213705.8914
  -1015187.16847   -777339.84845  23110963.8674                   23110961.6724
 -13240698.76648 -10302467.44946  22070878.7894                   22070877.4264
 -21274887.34048 -16562284.08645  22410803.4844                   22410797.6804
   5701277.80946   4463175.34843  24754328.3674                   24754324.8754
 11  8 16  3 16 30.0000000  0  8G26G29G12G05G15G25G02G21
  -7821963.43447  -6081399.61345  22303615.4614                   22303612.7734
 -13811597.83248 -10750032.39846  21344641.1254                   21344637.7344
 -13699240.66447 -10659913.55945  22870788.9694                   22870785.8404
 -20801930.56648 -16193924.26246  21221276.0314                   21221272.0744
  -1133352.02747   -869416.28944  23088478.1174                   23088474.7584
 -13217175.93448 -10284137.96546  22075354.7734                   22075353.7304
 -21251717.44547 -16544229.61745  22415212.2734                   22415207.3324
   5620576.35546   4400291.23843  24738971.8284                   24738968.2934
 11  8 16  3 17  0.0000000  0  8G26G29G12G05G15G25G02G21
  -7921238.71548  -6158756.93745  22284724.3524                   22284721.5514
 -13901132.81248 -10819799.88346  21327602.9064                   21327599.7274
 -13633115.08247 -10608387.14545  22883372.1804                   22883369.0314
 -20761834.11748 -16162680.27746  21228906.0314                   21228902.3834
  -1251393.62147   -961396.69145  23066015.5314                   23066012.8914
 -13193205.49248 -10265459.70746  22079916.0864                   22079915.1374
 -21228445.30547 -16526095.49245  22419640.5704                   22419635.5784
   5539867.43946   4337401.24243  24723613.0004                   24723610.1484
 11  8 16  3 17 30.0000000  0  8G26G29G12G05G15G25G02G21
  -8020128.02347  -6235813.51245  22265905.5784                   22265903.1174
 -13990390.73848 -10889351.48446  21310617.8134                   21310614.3484
 -13566819.03947 -10556727.89545  22895987.7734                   22895985.4304
 -20721407.55948 -16131179.06646  21236598.9304                   21236595.1844
  -1369311.74647  -1053280.87145  23043576.0634                   23043574.1454
 -13168792.82048 -10246436.84446  22084561.5474                   22084560.5784
 -21205073.34447 -16507883.57445  22424088.7424                   22424083.2424
   5459147.71146   4274502.87143  24708252.7034                   24708248.6604
 11  8 16  3 18  0.0000000  0  8G26G29G12G05G15G25G02G21
  -8118624.12147  -6312563.67645  22247162.5784                   22247159.8984
 -14079365.62948 -10958682.54746  21293686.2344                   21293682.7464
 -13500351.74247 -10504935.25445  22908636.1334                   22908633.4184
 -20680649.17248 -16099419.27346  21244355.0394                   21244351.2274
  -1487099.81247  -1145063.73045  23021162.2814                   23021159.1054
 -13143936.63748 -10227068.39146  22089292.0474                   22089290.9344
 -21181597.70347 -16489590.88345  22428555.4384                   22428550.3204
   5378420.51646   4211598.62943  24692890.7194                   24692888.1254
 11  8 16  3 18 30.0000000  0  9G26G18G29G12G05G15G25G02G21
  -8216727.14147  -6389007.56645  22228493.5864                   22228491.5044
   9285766.12556   7249091.60552  24707649.8524                   24707647.1334
 -14168058.48048 -11027793.84446  21276808.8674                   21276805.6524
 -13433719.56647 -10453014.10545  22921316.3054                   22921313.0824
 -20639565.48448 -16067406.02346  21252173.1414                   21252169.5784
  -1604758.22747  -1236745.52345  22998772.1334                   22998769.4224
 -13118643.07448 -10207359.11746  22094104.6804                   22094104.3054
 -21158021.19947 -16471219.58645  22433041.9384                   22433036.7114
   5297681.73046   4148685.40243  24677526.3284                   24677522.9454
 11  8 16  3 19  0.0000000  0  9G26G18G29G12G05G15G25G02G21
  -8314440.42647  -6465147.75445  22209900.3134                   22209897.0784
   9172393.58245   7160749.56642  24686075.5004                   24686071.7424
 -14256474.12948 -11096689.12546  21259983.7584                   21259980.5984
 -13366932.82047 -10400972.50845  22934025.3284                   22934021.7584
 -20598165.87148 -16035146.58246  21260051.3984                   21260047.7704
  -1722290.83647  -1328329.34845  22976406.8054                   22976403.5354
 -13092921.40248 -10187316.27346  22098999.7194                   22098999.2304
 -21134350.49247 -16452774.88745  22437546.4454                   22437540.7074
   5216923.86746   4085757.28143  24662158.4534                   24662155.5204
 11  8 16  3 19 30.0000000  0  9G26G18G29G12G05G15G25G02G21
  -8411759.43447  -6540980.71145  22191380.7894                   22191377.4184
   9059181.30546   7072532.34042  24664531.8134                   24664527.7464
 -14344609.16848 -11165365.76646  21243211.9924                   21243208.7814
 -13299993.81247 -10348812.25445  22946763.1644                   22946759.5944
 -20556451.96948 -16002642.23846  21267989.0314                   21267985.2034
  -1839693.35547  -1419811.77345  22954065.6174                   22954062.4494
 -13066773.32848 -10166941.15646  22103975.8834                   22103974.5044
 -21110584.65647 -16434256.08245  22442069.1254                   22442063.8674
   5136147.37146   4022814.64543  24646787.1254                   24646783.8674
 11  8 16  3 20  0.0000000  0  9G26G18G29G12G05G15G25G02G21
  -8508679.00847  -6616502.43045  22172937.5004                   22172934.6334
   8946132.02746   6984442.16842  24643019.2734                   24643015.7034
 -14432459.27748 -11233820.37146  21226494.8524                   21226491.9924
 -13232903.54347 -10296534.14145  22959530.3594                   22959527.1054
 -20514424.25848 -15969893.37146  21275986.7584                   21275983.2734
  -1956961.03547  -1511189.13345  22931750.0314                   22931746.7074
 -13040199.52748 -10146234.30146  22109032.4774                   22109031.5984
 -21086721.69147 -16415661.53945  22446609.8984                   22446604.2774
   5055353.31646   3959858.28543  24631412.5554                   24631409.0634
 11  8 16  3 20 30.0000000  0  9G26G18G29G12G05G15G25G02G21
  -8605196.25447  -6691710.65645  22154571.0394                   22154567.7974
   8833246.82846   6896479.78542  24621537.9144                   24621534.6804
 -14520022.96948 -11302051.80546  21209832.0164                   21209828.7114
 -13165665.91847 -10244141.22745  22972324.9224                   22972322.0434
 -20472085.74248 -15936902.33646  21284043.5314                   21284039.7274
  -2074091.54347  -1602459.60245  22909461.2504                   22909458.0634
 -13013203.19548 -10125198.21146  22114169.7504                   22114168.7424
 -21062761.84447 -16396991.54745  22451169.5474                   22451164.2934
   4974540.96146   3896887.73043  24616033.9924                   24616031.4574
 11  8 16  3 21  0.0000000  0  9G26G18G29G12G05G15G25G02G21
  -8701302.55148  -6766598.64545  22136282.4304                   22136279.6214
   8720531.76646   6808649.99242  24600087.8834                   24600085.3484
 -14607293.00048 -11370054.39846  21193224.9614                   21193222.2074
 -13098278.73447 -10191631.73445  22985148.1414                   22985145.8444
 -20429433.84448 -15903667.08646  21292159.9694                   21292156.0044
  -2191076.63347  -1693616.77745  22887199.4534                   22887196.6054
 -12985781.75048 -10103830.85946  22119387.8204                   22119385.9494
 -21038699.23047 -16378241.48845  22455748.6414                   22455743.1484
   4893714.72346   3833906.29343  24600653.6724                   24600650.1024
 11  8 16  3 21 30.0000000  0  9G26G18G29G12G05G15G25G02G21
  -8796993.89548  -6841163.31245  22118073.1954                   22118070.0274
   8607988.63346   6720954.18042  24578672.1094                   24578668.9964
 -14694266.24648 -11437825.74246  21176674.5944                   21176671.1454
 -13030744.60547 -10139007.77045  22997999.5634                   22997996.7154
 -20386470.52748 -15870189.17646  21300335.2894                   21300331.7304
  -2307913.02047  -1784658.05945  22864966.5314                   22864963.4694
 -12957937.16048 -10082133.77046  22124686.2194                   22124685.5824
 -21014533.16847 -16359410.78545  22460347.1884                   22460341.6174
   4812874.65646   3770914.14143  24585270.3914                   24585267.5704
 11  8 16  3 22  0.0000000  0  9G26G18G29G12G05G15G25G02G21
  -8892266.67247  -6915401.82045  22099943.6644                   22099940.5554
   8495618.85546   6633393.49242  24557288.2974                   24557285.6804
 -14780939.99648 -11505363.71146  21160181.3134                   21160177.9614
 -12963066.42647 -10086271.56645  23010878.9384                   23010875.2464
 -20343198.26248 -15836470.53146  21308569.5944                   21308566.3204
  -2424597.26247  -1875580.80145  22842761.5554                   22842758.4924
 -12929672.03548 -10060109.01246  22130065.0394                   22130064.3324
 -20990263.35947 -16340499.25445  22464965.7974                   22464960.4414
   4732020.75446   3707911.14543  24569884.4694                   24569880.3284
 11  8 16  3 22 30.0000000  0  9G26G18G29G12G05G15G25G02G21
  -8987118.24247  -6989312.10245  22081893.8204                   22081890.1604
   8383422.85546   6545968.16442  24535938.1414                   24535934.4844
 -14867312.93748 -11572667.28946  21143744.7974                   21143741.9414
 -12895248.11347 -10033426.14845  23023784.3134                   23023780.4534
 -20299620.24648 -15802513.64146  21316862.5554                   21316858.8284
  -2541126.66047  -1966382.88345  22820587.1094                   22820583.3444
 -12900989.64148 -10037759.08646  22135523.0944                   22135522.3284
 -20965890.11747 -16321507.14145  22469603.7584                   22469597.9344
   4651151.56646   3644896.31643  24554495.5004                   24554491.9454
 11  8 16  3 23  0.0000000  0  9G26G18G29G12G05G15G25G02G21
  -9081545.53547  -7062891.78545  22063924.7114                   22063921.1174
   8271401.76946   6458679.07843  24514621.5234                   24514617.4144
 -14953383.37948 -11639735.15646  21127366.6954                   21127363.1174
 -12827293.21547  -9980474.28945  23036715.4454                   23036712.0274
 -20255739.39848 -15768320.77346  21325212.8674                   21325208.9224
  -2657498.68047  -2057062.34845  22798442.0164                   22798439.5204
 -12871893.08248 -10015086.45746  22141060.2584                   22141058.7234
 -20941413.64847 -16302434.56645  22474261.5164                   22474256.6994
   4570265.94146   3581868.62943  24539103.3444                   24539100.3444
 11  8 16  3 23 30.0000000  0  9G26G18G29G12G05G15G25G02G21
  -9175543.54347  -7136136.96545  22046037.3444                   22046034.5234
   8159558.17246   6371528.43043  24493338.1174                   24493334.3484
 -15039146.91848 -11706563.85946  21111046.1334                   21111042.7274
 -12759203.10947  -9927417.10245  23049672.5554                   23049669.3014
 -20211556.50448 -15733892.53146  21333620.6094                   21333616.6994
  -2773708.83247  -2147615.66445  22776328.0944                   22776324.9224
 -12842383.30148  -9992091.81646  22146675.2584                   22146674.8484
 -20916831.56647 -16283279.72345  22478939.5704                   22478934.0434
   4489365.13346   3518829.13343  24523708.3134                   24523705.4614
 11  8 16  3 24  0.0000000  0  9G26G18G29G12G05G15G25G02G21
  -9269108.24648  -7209044.50045  22028232.9384                   22028229.2304
   8047894.09046   6284517.59443  24472088.9614                   24472086.3204
 -15124600.76647 -11773151.25846  21094784.5634                   21094781.0084
 -12690980.48447  -9874256.64545  23062655.2114                   23062651.9654
 -20167073.54748 -15699230.50046  21342085.2664                   21342081.4654
  -2889753.34847  -2238039.91445  22754245.7584                   22754242.1334
 -12812462.30948  -9968776.77746  22152369.0784                   22152368.5164
 -20892143.32047 -16264042.13745  22483637.4304                   22483631.6764
   4408449.54746   3455778.12543  24508310.7114                   24508306.9184
 11  8 16  3 24 30.0000000  0  9G26G18G29G12G05G15G25G02G21
  -9362237.28547  -7281612.54745  22010510.5474                   22010507.1644
   7936409.46946   6197646.57843  24450875.1174                   24450871.2344
 -15209743.72748 -11839496.41846  21078582.5864                   21078578.8954
 -12622629.28547  -9820995.98845  23075661.8134                   23075658.1374
 -20122294.07048 -15664337.40246  21350606.5784                   21350602.8984
  -3005630.05547  -2328333.40645  22732194.9304                   22732191.4494
 -12782133.97348  -9945144.30946  22158140.4454                   22158139.2304
 -20867349.77347 -16244722.50845  22488355.2424                   22488350.0984
   4327517.45346   3392714.24243  24492909.9224                   24492905.8364
 11  8 16  3 25  0.0000000  0  9G26G18G29G12G05G15G25G02G21
  -9454925.97747  -7353837.46945  21992872.6254                   21992869.7154
   7825107.00046   6110917.51243  24429694.4454                   24429690.5314
 -15294571.94148 -11905596.30946  21062440.1484                   21062437.2114
 -12554151.34047  -9767636.57845  23088692.4844                   23088689.3094
 -20077219.39148 -15629214.27746  21359184.3054                   21359180.1414
  -3121334.82047  -2418492.92245  22710176.9144                   22710174.0204
 -12751399.64548  -9921195.49646  22163988.9384                   22163988.3324
 -20842449.21147 -16225319.47745  22493094.0314                   22493088.8164
   4246569.57446   3329638.02343  24477505.9454                   24477502.7154
 11  8 16  3 25 30.0000000  0  9G26G18G29G12G05G15G25G02G21
  -9547171.38347  -7425716.96945  21975318.7584                   21975316.1024
   7713987.19946   6024330.85243  24408548.3914                   24408545.2814
 -15379083.58648 -11971449.52046  21046358.0944                   21046355.1724
 -12485550.00447  -9714181.03145  23101746.6414                   23101744.1604
 -20031852.28148 -15593863.27346  21367816.9534                   21367813.3134
  -3236864.87147  -2508516.30545  22688192.4144                   22688189.4574
 -12720262.44148  -9896932.74646  22169914.6724                   22169913.5274
 -20817441.29347 -16205832.80945  22497852.5004                   22497846.6884
   4165605.11347   3266548.92643  24462098.7194                   24462095.1254
 11  8 16  3 26  0.0000000  0  9G26G18G29G12G05G15G25G02G21
  -9638970.09047  -7497248.40245  21957850.2274                   21957847.4184
   7603051.50846   5937887.59843  24387437.5944                   24387435.5594
 -15463276.23448 -12037054.16446  21030336.6954                   21030333.3484
 -12416828.39147  -9660631.75445  23114824.0314                   23114821.3914
 -19986194.78148 -15558285.99246  21376505.5554                   21376501.6804
  -3352216.80147  -2598400.87545  22666241.5864                   22666238.0664
 -12688724.89848  -9872358.03146  22175915.3674                   22175914.7584
 -20792325.90647 -16186262.41045  22502631.2114                   22502626.4224
   4084624.05946   3203446.89843  24446688.3674                   24446685.1254
 11  8 16  3 26 30.0000000  0  9G26G18G29G12G05G15G25G02G21
  -9730319.16047  -7568429.46945  21940466.9144                   21940464.2384
   7492300.73846   5851588.40643  24366362.5394                   24366360.0704
 -15547148.28148 -12102408.99246  21014376.3914                   21014372.9064
 -12347990.10247  -9606991.55145  23127923.8834                   23127920.2894
 -19940250.25448 -15522485.07046  21385248.4304                   21385244.4494
  -3467388.22747  -2688144.80945  22644324.9924                   22644321.5274
 -12656790.25848  -9847473.89846  22181992.5704                   22181992.1524
 -20767103.10247 -16166608.27045  22507431.1724                   22507426.0904
   4003625.02746   3140330.85943  24431275.1024                   24431271.1764
 11  8 16  3 27  0.0000000  0  9G26G18G29G12G05G15G25G02G21
  -9821215.19947  -7639257.51645  21923169.8524                   21923167.1024
   7381735.94546   5765434.16843  24345322.2344                   24345319.5824
 -15630696.99248 -12167511.86746  20998477.4924                   20998474.4454
 -12279038.02347  -9553262.68445  23141044.8364                   23141041.7544
 -19894021.07848 -15486462.33246  21394045.5554                   21394041.3754
  -3582375.88347  -2777745.53545  22622443.0234                   22622440.7424
 -12624461.14548  -9822282.39146  22188144.5864                   22188143.6844
 -20741772.18047 -16146869.90245  22512251.6804                   22512246.4694
   3922607.59047   3077200.48843  24415857.2194                   24415854.0354
 11  8 16  3 27 30.0000000  0  9G26G18G29G12G05G15G25G02G21
  -9911653.74247  -7709729.06645  21905960.0634                   21905957.5274
   7271359.48846   5679426.71543  24324317.5004                   24324315.3634
 -15713919.03547 -12232360.19546  20982640.8134                   20982637.8054
 -12209974.17647  -9499446.72745  23154187.2344                   23154183.9454
 -19847508.61348 -15450218.84446  21402896.5554                   21402892.8204
  -3697175.47347  -2867199.73045  22600597.7894                   22600595.1684
 -12591739.12148  -9796784.69146  22194371.4774                   22194370.8484
 -20716332.15647 -16127046.53145  22517092.9454                   22517086.9304
   3841572.82447   3014056.58244  24400437.5084                   24400434.0274
 11  8 16  3 28  0.0000000  0  9G26G18G29G12G05G15G25G02G21
 -10001633.52047  -7779843.16045  21888837.2424                   21888834.9414
   7161170.31646   5593565.11743  24303350.3054                   24303346.9964
 -15796814.51248 -12296954.05546  20966866.2114                   20966863.1134
 -12140803.73447  -9445547.74645  23167350.0474                   23167347.1684
 -19800717.85548 -15413758.51646  21411800.6954                   21411797.1564
  -3811786.19147  -2956506.75445  22578788.3834                   22578785.2704
 -12558629.32848  -9770984.85546  22200671.9614                   22200671.5434
 -20690784.61747 -16107139.35245  22521954.3984                   22521948.9494
   3760517.87946   2950896.99244  24385012.9614                   24385009.0944
 11  8 16  3 28 30.0000000  0  9G26G18G29G12G05G15G25G02G21
 -10091150.02347  -7849596.26245  21871803.0474                   21871800.2304
   7051171.04346   5507851.49643  24282418.3914                   24282414.6804
 -15879379.31648 -12361290.25046  20951154.9224                   20951151.6524
 -12071528.49247  -9391567.07445  23180533.1024                   23180530.1994
 -19753649.00848 -15377081.50046  21420757.4384                   21420754.0314
  -3926203.23847  -3045662.84845  22557015.4774                   22557012.5394
 -12525132.87547  -9744883.73046  22207046.5474                   22207045.4024
 -20665127.73847 -16087147.00845  22526837.6564                   22526831.8404
   3679443.92647   2887722.58644  24369585.2894                   24369580.7274
 11  8 16  3 29  0.0000000  0  9G26G18G29G12G05G15G25G02G21
 -10180199.10548  -7918985.12945  21854857.7424                   21854854.0864
   6941363.59846   5422287.36343  24261521.8594                   24261518.4414
 -15961610.48447 -12425366.47346  20935506.8054                   20935503.7194
 -12002150.61747  -9337506.43445  23193735.2664                   23193732.1454
 -19706304.23048 -15340189.45346  21429766.8204                   21429763.4884
  -4040423.03547  -3134665.26245  22535280.0084                   22535276.5394
 -12491251.87948  -9718482.95746  22213493.2424                   22213492.2584
 -20639360.31247 -16067068.48845  22531740.9384                   22531734.7974
   3598350.95747   2824533.31344  24354153.6724                   24354150.1024
 11  8 16  3 29 30.0000000  0  9G26G18G29G12G05G15G25G02G21
 -10268778.77048  -7988008.22345  21838001.6564                   21837998.2544
   6831747.92646   5336872.63743  24240662.9924                   24240659.3674
 -16043507.03948 -12489181.95746  20919922.5164                   20919918.8754
 -11932674.43447  -9283369.19145  23206956.0474                   23206953.7934
 -19658687.62948 -15303085.60946  21438828.0554                   21438824.3714
  -4154443.68447  -3223512.47745  22513583.0474                   22513580.0044
 -12456990.43747  -9691785.73846  22220013.3284                   22220012.7544
 -20613483.37947 -16046904.65245  22536664.6174                   22536659.2114
   3517237.29747   2761327.96143  24338717.8914                   24338713.8444
 11  8 16  3 30  0.0000000  0  9G26G18G29G12G05G15G25G02G21
 -10356884.48847  -8056662.00045  21821235.4694                   21821232.3244
   6722326.05546   5251608.95343  24219841.1564                   24219838.6454
 -16125065.46148 -12552733.96146  20904402.5004                   20904399.2974
 -11863101.55147  -9229156.57845  23220195.4454                   23220192.2584
 -19610800.18048 -15265770.71546  21447940.8364                   21447937.1484
  -4268260.98447  -3312201.23445  22491923.8204                   22491920.7894
 -12422350.07847  -9664793.25846  22226605.1804                   22226604.4304
 -20587495.37147 -16026654.27045  22541609.9774                   22541604.9104
   3436104.00447   2698107.29344  24323278.7424                   24323275.0594
 11  8 16  3 30 30.0000000  0  9G26G18G29G12G05G15G25G02G21
 -10444514.38748  -8124945.01645  21804560.2194                   21804556.9384
   6613097.71946   5166496.07043  24199055.0944                   24199053.0634
 -16206284.75848 -12616021.71146  20888946.9694                   20888943.3954
 -11793436.96547  -9174872.51645  23233452.0234                   23233448.7894
 -19562645.62548 -15228247.68446  21457104.1024                   21457100.0664
  -4381873.03947  -3400730.06645  22470304.1724                   22470300.3484
 -12387335.08247  -9637508.85246  22233267.8524                   22233267.6334
 -20561397.46947 -16006318.25845  22546576.1564                   22546570.9104
   3354949.03547   2634869.75444  24307835.3054                   24307831.0554
 11  8 16  3 31  0.0000000  0  9G26G18G29G12G05G15G25G02G21
 -10531664.31647  -8192854.02045  21787975.7034                   21787972.6564
   6504065.66446   5081536.13743  24178306.9064                   24178303.1994
 -16287161.62548 -12679042.62546  20873556.5164                   20873553.3554
 -11723682.35947  -9120518.28945  23246725.2194                   23246723.3134
 -19514225.52748 -15190517.73846  21466317.9924                   21466314.4184
  -4495275.76247  -3489095.77045  22448723.9924                   22448721.5394
 -12351947.09447  -9609933.80546  22240002.2194                   22240001.7034
 -20535188.00847 -15985895.29345  22551563.4304                   22551558.5274
   3273773.17247   2571615.90244  24292387.9454                   24292384.7194
 11  8 16  3 31 30.0000000  0  9G26G18G29G12G05G15G25G02G21
 -10618331.43047  -8260386.82445  21771483.8524                   21771480.4344
   6395229.70746   4996728.98443  24157595.9534                   24157591.9264
 -16367694.36748 -12741795.39846  20858231.4924                   20858228.1804
 -11653841.61347  -9066096.97344  23260016.0634                   23260013.3794
 -19465543.36748 -15152583.58646  21475581.8834                   21475578.5004
  -4608467.00047  -3577296.69545  22427184.6174                   22427181.5784
 -12316189.80547  -9582071.00046  22246806.4064                   22246806.4614
 -20508867.26247 -15965385.64545  22556572.8054                   22556567.4614
   3192575.23047   2508344.84844  24276936.4144                   24276933.2384
 11  8 16  3 32  0.0000000  0  9G26G18G29G12G05G15G25G02G21
 -10704512.27347  -8327540.69545  21755084.0084                   21755080.6094
   6286591.76646   4912076.15643  24136922.4454                   24136919.0394
 -16447880.00048 -12804277.68446  20842972.9454                   20842969.9224
 -11583916.75447  -9011610.09844  23273321.8524                   23273319.5944
 -19416600.22348 -15114446.07846  21484895.5314                   21484891.9184
  -4721442.60947  -3665329.58245  22405686.2034                   22405682.9654
 -12280065.21547  -9553921.98046  22253681.0084                   22253680.4534
 -20482434.17247 -15944788.45345  22561602.2974                   22561597.0664
   3111355.36346   2445056.71543  24261481.1484                   24261476.2704
 11  8 16  3 32 30.0000000  0  9G26G18G29G12G05G15G25G02G21
 -10790203.06247  -8394312.73045  21738777.6094                   21738774.6914
   6178153.53146   4827578.89843  24116287.8444                   24116283.3364
 -16527715.89848 -12866487.45346  20827780.2034                   20827777.0124
 -11513910.48047  -8957059.78144  23286644.3674                   23286641.0084
 -19367398.50048 -15076107.07046  21494258.4384                   21494254.5634
  -4834199.11347  -3753191.74645  22384228.7274                   22384225.6724
 -12243575.84047  -9525488.70346  22260624.9224                   22260623.8634
 -20455888.19547 -15924103.28145  22566654.2194                   22566649.0354
   3030113.59846   2381751.52343  24246020.4454                   24246017.3054
 11  8 16  3 33  0.0000000  0  9G26G18G29G12G05G15G25G02G21
 -10875401.51647  -8460701.11345  21722564.4304                   21722561.1134
   6069914.83646   4743237.16443  24095690.6094                   24095686.8444
 -16607200.59048 -12928423.56646  20812655.2034                   20812651.0984
 -11443826.66447  -8902449.01644  23299980.5394                   23299977.6604
 -19317941.65248 -15037569.27346  21503669.8594                   21503665.9064
  -4946734.66047  -3840881.72745  22362814.3204                   22362811.7464
 -12206725.48847  -9496774.15246  22267637.3594                   22267636.4414
 -20429229.41447 -15903330.23845  22571726.8284                   22571721.5904
   2948848.59046   2318428.21943  24230556.8054                   24230552.4144
 11  8 16  3 33 30.0000000  0  9G26G18G29G12G05G15G25G02G21
 -10960104.55947  -8526703.46545  21706446.3754                   21706442.9384
   5961876.93046   4659051.89143  24075131.2734                   24075127.7344
 -16686331.87948 -12990084.30146  20797597.0394                   20797593.3244
 -11373668.70746  -8847780.49244  23313331.2034                   23313328.3134
 -19268232.02748 -14998834.50446  21513129.3834                   21513126.2624
  -5059045.86347  -3928396.90245  22341442.3444                   22341439.0474
 -12169517.01247  -9467780.54345  22274717.5004                   22274716.7464
 -20402457.85247 -15882469.30945  22576821.9144                   22576816.1334
   2867560.17246   2255086.62943  24215088.0234                   24215084.4774
 11  8 16  3 34  0.0000000  0  9G26G18G29G12G05G15G25G02G21
 -11044309.45347  -8592317.65245  21690422.7424                   21690419.9104
   5854040.46546   4575023.55143  24054611.3834                   24054607.9024
 -16765107.87148 -13051468.17646  20782605.7194                   20782602.7544
 -11303439.84046  -8793056.73844  23326695.1254                   23326692.5044
 -19218272.71948 -14959905.16846  21522636.0004                   21522632.7154
  -5171130.11747  -4015735.25845  22320113.3284                   22320110.3754
 -12131953.67247  -9438510.41045  22281865.7974                   22281864.4224
 -20375573.13347 -15861520.17245  22581937.6334                   22581932.5434
   2786247.51246   2191726.19543  24199614.4614                   24199610.0634
 11  8 16  3 34 30.0000000  0  9G26G18G29G12G05G15G25G02G21
 -11128011.53147  -8657540.02045  21674494.8834                   21674491.7384
   5746407.89146   4491154.07843  24034128.8524                   24034126.3094
 -16843524.38348 -13112571.92646  20767684.0704                   20767680.9804
 -11233141.91446  -8738279.17244  23340073.1724                   23340070.1844
 -19168064.52048 -14920781.89546  21532190.3364                   21532186.7424
  -5282983.07847  -4102893.35945  22298828.3524                   22298825.2894
 -12094036.99247  -9408964.94945  22289080.9384                   22289079.9104
 -20348574.05147 -15840481.95745  22587075.1644                   22587070.5434
   2704911.95346   2128347.88343  24184137.3444                   24184132.6644
 11  8 16  3 35  0.0000000  0  9G26G18G29G12G05G15G25G02G21
 -11211209.03147  -8722369.21945  21658662.6884                   21658659.6134
   5638978.92246   4407443.25843  24013685.9694                   24013682.3054
 -16921581.16848 -13173395.36746  20752830.2034                   20752827.1094
 -11162778.73046  -8683450.75444  23353462.5314                   23353459.3794
 -19117611.29748 -14881467.68746  21541791.3834                   21541787.3484
  -5394602.92647  -4189869.83245  22277587.9384                   22277584.7274
 -12055771.09847  -9379147.39146  22296362.6804                   22296362.4694
 -20321460.96547 -15819354.87945  22592234.7274                   22592229.0044
   2623551.19146   2064949.96144  24168654.2664                   24168650.8094
 11  8 16  3 35 30.0000000  0  9G26G18G29G12G05G15G25G02G21
 -11293897.94947  -8786802.11345  21642927.5554                   21642923.9964
   5531755.52746   4323892.63743  23993281.9304                   23993278.0354
 -16999274.72748 -13233935.77746  20738045.8984                   20738042.4844
 -11092352.85246  -8628573.42644  23366863.7504                   23366860.7584
 -19066914.55548 -14841963.72346  21551439.0784                   21551434.8484
  -5505985.15247  -4276661.11745  22256392.5704                   22256388.8674
 -12017158.06247  -9349059.30946  22303710.5784                   22303710.0004
 -20294232.89547 -15798138.19945  22597416.3054                   22597410.6094
   2542165.89546   2001532.91843  24153167.2894                   24153163.4454
 11  8 16  3 36  0.0000000  0  9G26G18G29G12G05G15G25G02G21
 -11376075.04747  -8850836.20745  21627289.4064                   21627286.6334
   5424739.03546   4240503.26244  23972917.5234                   23972913.4184
 -17076602.77048 -13294191.38747  20723330.5634                   20723327.1334
 -11021866.69547  -8573649.17244  23380277.3834                   23380274.0474
 -19015976.35548 -14802271.62946  21561131.8444                   21561128.1174
  -5617126.61747  -4363264.83645  22235242.8284                   22235239.2194
 -11978200.56647  -9318702.80946  22311124.3204                   22311123.3054
 -20266889.11347 -15776831.35945  22602619.6174                   22602613.6334
   2460755.99646   1938096.70344  24137675.7814                   24137670.9654
 11  8 16  3 36 30.0000000  0  9G26G18G29G12G05G15G25G02G21
 -11457736.88747  -8914468.78945  21611750.0004                   21611746.8244
   5317930.87546   4157276.20743  23952592.1724                   23952589.1214
 -17153562.41048 -13354159.93046  20708685.8364                   20708682.2504
 -10951323.05146  -8518680.14144  23393701.2664                   23393698.3794
 -18964799.07048 -14762393.21946  21570870.5944                   21570867.0044
  -5728024.15247  -4449678.45345  22214140.0164                   22214136.2034
 -11938901.10547  -9288079.85946  22318602.2424                   22318601.7584
 -20239428.74247 -15755433.65645  22607844.8284                   22607839.0944
   2379321.61746   1874641.40643  24122178.8054                   24122175.1914
 11  8 16  3 37  0.0000000  0  9G26G18G29G12G05G15G25G02G21
 -11538879.77047  -8977696.96945  21596308.9384                   21596305.5784
   5211332.20746   4074212.39543  23932306.8674                   23932303.7544
 -17230150.87548 -13413839.22746  20694111.1024                   20694108.2664
 -10880724.63346  -8463668.40245  23407135.8364                   23407133.5394
 -18913384.40248 -14722329.84846  21580654.4924                   21580650.8524
  -5838674.07047  -4535899.12945  22193083.9304                   22193079.8524
 -11899262.14147  -9257192.35545  22326145.5554                   22326145.2424
 -20211850.90247 -15733944.44945  22613092.4694                   22613087.1484
   2297862.80946   1811167.07443  24106677.7344                   24106673.7154
 11  8 16  3 37 30.0000000  0  9G26G18G29G12G05G15G25G02G21
 -11619501.50447  -9040519.08245  21580966.8364                   21580964.2034
   5104943.66846   3991312.28543  23912062.1954                   23912058.4104
 -17306366.59048 -13473228.08247  20679608.3914                   20679604.6414
 -10810074.65646  -8408616.53144  23420579.8984                   23420577.4024
 -18861735.60948 -14682084.02746  21590483.1174                   21590479.3014
  -5949073.88747  -4621924.93045  22172075.3914                   22172071.9224
 -11859287.28547  -9226043.11346  22333752.9614                   22333752.1764
 -20184155.64547 -15712363.74245  22618362.8594                   22618357.7544
   2216378.67246   1747673.00044  24091171.6564                   24091167.1914
 11  8 16  3 38  0.0000000  0  9G26G18G29G12G05G15G25G02G21
 -11699598.33247  -9102932.17645  21565725.0474                   21565722.0204
   4998766.69546   3908577.07043  23891857.7814                   23891853.6334
 -17382206.84048 -13532324.36747  20665175.8444                   20665172.5784
 -10739375.79347  -8353526.49244  23434033.4774                   23434030.6334
 -18809854.35948 -14641657.07846  21600355.4454                   21600351.8094
  -6059220.28547  -4707753.23845  22151115.5474                   22151111.9104
 -11818978.89147  -9194633.97746  22341422.8134                   22341422.4224
 -20156342.90647 -15690691.47745  22623655.3524                   22623650.3554
   2134869.55546   1684159.41444  24075661.1094                   24075657.3014
 11  8 16  3 38 30.0000000  0  9G26G18G29G12G05G15G25G02G21
 -11779169.42247  -9164935.59045  21550583.4774                   21550580.1524
   4892800.38346   3826006.00443  23871692.6334                   23871689.5044
 -17457671.11748 -13591127.69947  20650815.8524                   20650812.5984
 -10668632.81247  -8298402.11744  23447495.0394                   23447493.1214
 -18757745.15648 -14601052.50446  21610271.8364                   21610267.8054
  -6169111.70747  -4793382.87945  22130203.1564                   22130200.2894
 -11778341.88747  -9162968.77745  22349155.9694                   22349155.4384
 -20128413.11347 -15668928.02345  22628969.9844                   22628964.9344
   2053332.59846   1620624.21144  24060145.5864                   24060140.9734
 11  8 16  3 39  0.0000000  0  9G26G18G29G12G05G15G25G02G21
 -11858209.19147  -9226524.98845  21535542.2344                   21535539.9024
   4787047.96146   3743601.57043  23851568.3834                   23851564.2114
 -17532754.91048 -13649634.53946  20636527.8444                   20636524.6134
 -10597846.44147  -8243243.91444  23460965.5704                   23460961.6174
 -18705408.01248 -14560270.30146  21620231.0084                   21620227.2544
  -6278742.67247  -4878809.57045  22109341.3594                   22109337.9414
 -11737376.85947  -9131047.98845  22356951.3524                   22356950.8594
 -20100363.73047 -15647071.38745  22634307.7584                   22634302.5204
   1971770.45347   1557069.34844  24044624.3524                   24044619.5554
 11  8 16  3 39 30.0000000  0  9G26G18G29G12G05G15G25G02G21
 -11936717.13747  -9287700.00445  21520602.4064                   21520599.9964
   4681508.40246   3661363.02043  23831484.3134                   23831480.9064
 -17607458.26648 -13707844.93046  20622312.2344                   20622308.4264
 -10527021.90046  -8188056.02744  23474442.5784                   23474438.6484
 -18652847.54348 -14519314.08246  21630233.0164                   21630228.8754
  -6388112.59447  -4964032.84845  22088528.7814                   22088525.8674
 -11696089.14847  -9098875.75045  22364807.7894                   22364807.0274
 -20072197.09847 -15625123.37145  22639668.2584                   22639663.0514
   1890179.85547   1493492.32444  24029097.5554                   24029094.5004
 11  8 16  3 40  0.0000000  0  9G26G18G29G12G05G15G25G02G21
 -12014689.75447  -9348457.85545  21505764.8914                   21505761.9494
   4576182.84046   3579291.21143  23811441.7894                   23811438.2974
 -17681778.33648 -13765756.66846  20608169.5004                   20608165.6914
 -10456161.73446  -8132840.32044  23487927.0554                   23487923.4104
 -18600065.88348 -14478185.51646  21640277.1024                   21640273.0124
  -6497217.60947  -5049049.71145  22067766.8984                   22067763.2664
 -11654481.12947  -9066453.91845  22372726.0944                   22372724.4924
 -20043912.12947 -15603083.14545  22645050.6564                   22645045.3984
   1808561.23046   1429893.46543  24013566.2664                   24013562.9884
